<?xml version="1.0" encoding="UTF-8" standalone="no" ?>
<gpx xmlns="http://www.topografix.com/GPX/1/1" xmlns:xsi="http://www.w3.org/2001/XMLSchema-instance" xsi:schemaLocation="http://www.topografix.com/GPX/1/1 http://www.topografix.com/GPX/1/1/gpx.xsd" version="1.1" creator="VisuGPX - https://www.visugpx.com">
  <metadata>
    <name>Cyclo - Tour Jura 3ème</name>
    <desc><![CDATA[Virée superbe]]></desc>
  </metadata>
  <trk>
    <name><![CDATA[02-AOU-14 15:54:36]]></name>
    <trkseg>
      <trkpt lat="46.57584" lon="5.9632">
        <ele>930.69</ele>
        <time>2014-08-02T06:22:25Z</time>
      </trkpt>
      <trkpt lat="46.57587" lon="5.9632">
        <ele>930.69</ele>
        <time>2014-08-02T06:22:26Z</time>
      </trkpt>
      <trkpt lat="46.57612" lon="5.96295">
        <ele>931.17</ele>
        <time>2014-08-02T06:22:37Z</time>
      </trkpt>
      <trkpt lat="46.5763" lon="5.96234">
        <ele>929.73</ele>
        <time>2014-08-02T06:22:50Z</time>
      </trkpt>
      <trkpt lat="46.57657" lon="5.9617">
        <ele>929.25</ele>
        <time>2014-08-02T06:23:04Z</time>
      </trkpt>
      <trkpt lat="46.57668" lon="5.96135">
        <ele>928.77</ele>
        <time>2014-08-02T06:23:14Z</time>
      </trkpt>
      <trkpt lat="46.57671" lon="5.96043">
        <ele>929.25</ele>
        <time>2014-08-02T06:23:32Z</time>
      </trkpt>
      <trkpt lat="46.57671" lon="5.95951">
        <ele>927.81</ele>
        <time>2014-08-02T06:23:46Z</time>
      </trkpt>
      <trkpt lat="46.57671" lon="5.95937">
        <ele>927.81</ele>
        <time>2014-08-02T06:23:48Z</time>
      </trkpt>
      <trkpt lat="46.57653" lon="5.95818">
        <ele>925.41</ele>
        <time>2014-08-02T06:24:04Z</time>
      </trkpt>
      <trkpt lat="46.57651" lon="5.95802">
        <ele>925.41</ele>
        <time>2014-08-02T06:24:06Z</time>
      </trkpt>
      <trkpt lat="46.57631" lon="5.95682">
        <ele>923</ele>
        <time>2014-08-02T06:24:20Z</time>
      </trkpt>
      <trkpt lat="46.57616" lon="5.95581">
        <ele>921.56</ele>
        <time>2014-08-02T06:24:32Z</time>
      </trkpt>
      <trkpt lat="46.57605" lon="5.95543">
        <ele>920.6</ele>
        <time>2014-08-02T06:24:40Z</time>
      </trkpt>
      <trkpt lat="46.57602" lon="5.95542">
        <ele>920.6</ele>
        <time>2014-08-02T06:24:41Z</time>
      </trkpt>
      <trkpt lat="46.57585" lon="5.9553">
        <ele>921.08</ele>
        <time>2014-08-02T06:24:49Z</time>
      </trkpt>
      <trkpt lat="46.57583" lon="5.95529">
        <ele>921.08</ele>
        <time>2014-08-02T06:25:01Z</time>
      </trkpt>
      <trkpt lat="46.57583" lon="5.95529">
        <ele>921.08</ele>
        <time>2014-08-02T06:25:09Z</time>
      </trkpt>
      <trkpt lat="46.57569" lon="5.95527">
        <ele>920.12</ele>
        <time>2014-08-02T07:00:33Z</time>
      </trkpt>
      <trkpt lat="46.57563" lon="5.95515">
        <ele>920.12</ele>
        <time>2014-08-02T07:00:34Z</time>
      </trkpt>
      <trkpt lat="46.57567" lon="5.95467">
        <ele>924.45</ele>
        <time>2014-08-02T07:00:58Z</time>
      </trkpt>
      <trkpt lat="46.57568" lon="5.95468">
        <ele>928.29</ele>
        <time>2014-08-02T07:01:00Z</time>
      </trkpt>
      <trkpt lat="46.57568" lon="5.95468">
        <ele>932.14</ele>
        <time>2014-08-02T07:01:02Z</time>
      </trkpt>
      <trkpt lat="46.57571" lon="5.9546">
        <ele>935.5</ele>
        <time>2014-08-02T07:01:04Z</time>
      </trkpt>
      <trkpt lat="46.57577" lon="5.95469">
        <ele>938.86</ele>
        <time>2014-08-02T07:01:08Z</time>
      </trkpt>
      <trkpt lat="46.57577" lon="5.95472">
        <ele>942.23</ele>
        <time>2014-08-02T07:01:14Z</time>
      </trkpt>
      <trkpt lat="46.57574" lon="5.95473">
        <ele>945.11</ele>
        <time>2014-08-02T07:01:24Z</time>
      </trkpt>
      <trkpt lat="46.57596" lon="5.95466">
        <ele>945.59</ele>
        <time>2014-08-02T07:01:40Z</time>
      </trkpt>
      <trkpt lat="46.57592" lon="5.9543">
        <ele>945.59</ele>
        <time>2014-08-02T07:01:51Z</time>
      </trkpt>
      <trkpt lat="46.57586" lon="5.95394">
        <ele>945.59</ele>
        <time>2014-08-02T07:02:03Z</time>
      </trkpt>
      <trkpt lat="46.57569" lon="5.95298">
        <ele>944.15</ele>
        <time>2014-08-02T07:02:21Z</time>
      </trkpt>
      <trkpt lat="46.57567" lon="5.95254">
        <ele>943.67</ele>
        <time>2014-08-02T07:02:28Z</time>
      </trkpt>
      <trkpt lat="46.57572" lon="5.95153">
        <ele>942.71</ele>
        <time>2014-08-02T07:02:46Z</time>
      </trkpt>
      <trkpt lat="46.57574" lon="5.95125">
        <ele>942.71</ele>
        <time>2014-08-02T07:02:51Z</time>
      </trkpt>
      <trkpt lat="46.57578" lon="5.95032">
        <ele>942.71</ele>
        <time>2014-08-02T07:03:08Z</time>
      </trkpt>
      <trkpt lat="46.57584" lon="5.94939">
        <ele>942.71</ele>
        <time>2014-08-02T07:03:23Z</time>
      </trkpt>
      <trkpt lat="46.57585" lon="5.94875">
        <ele>942.71</ele>
        <time>2014-08-02T07:03:33Z</time>
      </trkpt>
      <trkpt lat="46.57588" lon="5.94837">
        <ele>942.71</ele>
        <time>2014-08-02T07:03:39Z</time>
      </trkpt>
      <trkpt lat="46.57576" lon="5.94711">
        <ele>941.27</ele>
        <time>2014-08-02T07:03:57Z</time>
      </trkpt>
      <trkpt lat="46.5756" lon="5.94587">
        <ele>940.31</ele>
        <time>2014-08-02T07:04:14Z</time>
      </trkpt>
      <trkpt lat="46.57543" lon="5.94452">
        <ele>939.35</ele>
        <time>2014-08-02T07:04:32Z</time>
      </trkpt>
      <trkpt lat="46.57542" lon="5.94444">
        <ele>938.86</ele>
        <time>2014-08-02T07:04:33Z</time>
      </trkpt>
      <trkpt lat="46.57533" lon="5.94418">
        <ele>938.86</ele>
        <time>2014-08-02T07:04:37Z</time>
      </trkpt>
      <trkpt lat="46.57522" lon="5.94402">
        <ele>938.38</ele>
        <time>2014-08-02T07:04:40Z</time>
      </trkpt>
      <trkpt lat="46.57519" lon="5.94378">
        <ele>938.86</ele>
        <time>2014-08-02T07:04:44Z</time>
      </trkpt>
      <trkpt lat="46.57524" lon="5.94368">
        <ele>938.86</ele>
        <time>2014-08-02T07:04:46Z</time>
      </trkpt>
      <trkpt lat="46.57527" lon="5.94343">
        <ele>938.86</ele>
        <time>2014-08-02T07:04:50Z</time>
      </trkpt>
      <trkpt lat="46.57516" lon="5.94233">
        <ele>940.31</ele>
        <time>2014-08-02T07:05:09Z</time>
      </trkpt>
      <trkpt lat="46.57508" lon="5.94135">
        <ele>941.27</ele>
        <time>2014-08-02T07:05:27Z</time>
      </trkpt>
      <trkpt lat="46.57507" lon="5.94094">
        <ele>941.75</ele>
        <time>2014-08-02T07:05:34Z</time>
      </trkpt>
      <trkpt lat="46.57506" lon="5.93978">
        <ele>941.27</ele>
        <time>2014-08-02T07:05:52Z</time>
      </trkpt>
      <trkpt lat="46.57507" lon="5.9385">
        <ele>937.9</ele>
        <time>2014-08-02T07:06:06Z</time>
      </trkpt>
      <trkpt lat="46.57525" lon="5.9373">
        <ele>934.54</ele>
        <time>2014-08-02T07:06:17Z</time>
      </trkpt>
      <trkpt lat="46.57571" lon="5.93631">
        <ele>931.17</ele>
        <time>2014-08-02T07:06:27Z</time>
      </trkpt>
      <trkpt lat="46.57627" lon="5.93539">
        <ele>927.81</ele>
        <time>2014-08-02T07:06:37Z</time>
      </trkpt>
      <trkpt lat="46.57706" lon="5.93413">
        <ele>924.93</ele>
        <time>2014-08-02T07:06:52Z</time>
      </trkpt>
      <trkpt lat="46.57769" lon="5.93313">
        <ele>925.89</ele>
        <time>2014-08-02T07:07:07Z</time>
      </trkpt>
      <trkpt lat="46.57822" lon="5.93232">
        <ele>926.85</ele>
        <time>2014-08-02T07:07:24Z</time>
      </trkpt>
      <trkpt lat="46.57874" lon="5.9315">
        <ele>928.77</ele>
        <time>2014-08-02T07:07:42Z</time>
      </trkpt>
      <trkpt lat="46.5792" lon="5.93076">
        <ele>930.69</ele>
        <time>2014-08-02T07:08:00Z</time>
      </trkpt>
      <trkpt lat="46.57965" lon="5.93004">
        <ele>932.14</ele>
        <time>2014-08-02T07:08:18Z</time>
      </trkpt>
      <trkpt lat="46.57991" lon="5.92968">
        <ele>932.62</ele>
        <time>2014-08-02T07:08:31Z</time>
      </trkpt>
      <trkpt lat="46.5799" lon="5.92968">
        <ele>932.62</ele>
        <time>2014-08-02T07:08:46Z</time>
      </trkpt>
      <trkpt lat="46.5799" lon="5.92968">
        <ele>932.62</ele>
        <time>2014-08-02T07:09:02Z</time>
      </trkpt>
      <trkpt lat="46.5799" lon="5.92968">
        <ele>932.14</ele>
        <time>2014-08-02T07:09:29Z</time>
      </trkpt>
      <trkpt lat="46.5799" lon="5.92968">
        <ele>931.65</ele>
        <time>2014-08-02T07:10:01Z</time>
      </trkpt>
      <trkpt lat="46.57996" lon="5.92957">
        <ele>931.65</ele>
        <time>2014-08-02T07:10:17Z</time>
      </trkpt>
      <trkpt lat="46.58038" lon="5.92893">
        <ele>932.14</ele>
        <time>2014-08-02T07:10:34Z</time>
      </trkpt>
      <trkpt lat="46.58093" lon="5.92822">
        <ele>932.62</ele>
        <time>2014-08-02T07:10:51Z</time>
      </trkpt>
      <trkpt lat="46.58145" lon="5.9276">
        <ele>934.06</ele>
        <time>2014-08-02T07:11:08Z</time>
      </trkpt>
      <trkpt lat="46.582" lon="5.92694">
        <ele>935.98</ele>
        <time>2014-08-02T07:11:27Z</time>
      </trkpt>
      <trkpt lat="46.58247" lon="5.92635">
        <ele>937.9</ele>
        <time>2014-08-02T07:11:45Z</time>
      </trkpt>
      <trkpt lat="46.58284" lon="5.92592">
        <ele>938.38</ele>
        <time>2014-08-02T07:11:58Z</time>
      </trkpt>
      <trkpt lat="46.58333" lon="5.92537">
        <ele>937.9</ele>
        <time>2014-08-02T07:12:12Z</time>
      </trkpt>
      <trkpt lat="46.5841" lon="5.925">
        <ele>936.94</ele>
        <time>2014-08-02T07:12:28Z</time>
      </trkpt>
      <trkpt lat="46.5852" lon="5.92478">
        <ele>935.5</ele>
        <time>2014-08-02T07:12:47Z</time>
      </trkpt>
      <trkpt lat="46.58604" lon="5.92425">
        <ele>933.1</ele>
        <time>2014-08-02T07:13:01Z</time>
      </trkpt>
      <trkpt lat="46.58658" lon="5.92342">
        <ele>930.21</ele>
        <time>2014-08-02T07:13:11Z</time>
      </trkpt>
      <trkpt lat="46.58701" lon="5.92264">
        <ele>926.85</ele>
        <time>2014-08-02T07:13:19Z</time>
      </trkpt>
      <trkpt lat="46.58754" lon="5.9219">
        <ele>923.96</ele>
        <time>2014-08-02T07:13:27Z</time>
      </trkpt>
      <trkpt lat="46.58761" lon="5.92182">
        <ele>923.48</ele>
        <time>2014-08-02T07:13:28Z</time>
      </trkpt>
      <trkpt lat="46.58819" lon="5.92139">
        <ele>920.6</ele>
        <time>2014-08-02T07:13:35Z</time>
      </trkpt>
      <trkpt lat="46.58853" lon="5.92117">
        <ele>919.16</ele>
        <time>2014-08-02T07:13:39Z</time>
      </trkpt>
      <trkpt lat="46.58901" lon="5.92081">
        <ele>916.75</ele>
        <time>2014-08-02T07:13:45Z</time>
      </trkpt>
      <trkpt lat="46.5899" lon="5.92022">
        <ele>913.87</ele>
        <time>2014-08-02T07:13:56Z</time>
      </trkpt>
      <trkpt lat="46.58998" lon="5.92016">
        <ele>913.87</ele>
        <time>2014-08-02T07:13:57Z</time>
      </trkpt>
      <trkpt lat="46.59075" lon="5.91966">
        <ele>911.95</ele>
        <time>2014-08-02T07:14:07Z</time>
      </trkpt>
      <trkpt lat="46.59155" lon="5.91907">
        <ele>910.51</ele>
        <time>2014-08-02T07:14:18Z</time>
      </trkpt>
      <trkpt lat="46.5921" lon="5.91855">
        <ele>910.51</ele>
        <time>2014-08-02T07:14:27Z</time>
      </trkpt>
      <trkpt lat="46.59246" lon="5.91798">
        <ele>911.47</ele>
        <time>2014-08-02T07:14:36Z</time>
      </trkpt>
      <trkpt lat="46.59264" lon="5.91772">
        <ele>912.43</ele>
        <time>2014-08-02T07:14:41Z</time>
      </trkpt>
      <trkpt lat="46.59274" lon="5.91754">
        <ele>912.43</ele>
        <time>2014-08-02T07:14:44Z</time>
      </trkpt>
      <trkpt lat="46.5934" lon="5.91683">
        <ele>912.91</ele>
        <time>2014-08-02T07:15:00Z</time>
      </trkpt>
      <trkpt lat="46.59384" lon="5.91638">
        <ele>912.91</ele>
        <time>2014-08-02T07:15:10Z</time>
      </trkpt>
      <trkpt lat="46.59403" lon="5.91621">
        <ele>912.91</ele>
        <time>2014-08-02T07:15:14Z</time>
      </trkpt>
      <trkpt lat="46.59461" lon="5.91572">
        <ele>911.47</ele>
        <time>2014-08-02T07:15:25Z</time>
      </trkpt>
      <trkpt lat="46.59546" lon="5.9151">
        <ele>908.58</ele>
        <time>2014-08-02T07:15:38Z</time>
      </trkpt>
      <trkpt lat="46.59585" lon="5.91503">
        <ele>908.1</ele>
        <time>2014-08-02T07:15:43Z</time>
      </trkpt>
      <trkpt lat="46.59607" lon="5.91506">
        <ele>907.62</ele>
        <time>2014-08-02T07:15:46Z</time>
      </trkpt>
      <trkpt lat="46.59622" lon="5.91509">
        <ele>907.14</ele>
        <time>2014-08-02T07:15:48Z</time>
      </trkpt>
      <trkpt lat="46.59708" lon="5.91488">
        <ele>904.26</ele>
        <time>2014-08-02T07:15:59Z</time>
      </trkpt>
      <trkpt lat="46.59716" lon="5.91485">
        <ele>903.78</ele>
        <time>2014-08-02T07:16:00Z</time>
      </trkpt>
      <trkpt lat="46.5975" lon="5.91492">
        <ele>901.85</ele>
        <time>2014-08-02T07:16:04Z</time>
      </trkpt>
      <trkpt lat="46.598" lon="5.91524">
        <ele>899.93</ele>
        <time>2014-08-02T07:16:10Z</time>
      </trkpt>
      <trkpt lat="46.59889" lon="5.91539">
        <ele>896.09</ele>
        <time>2014-08-02T07:16:20Z</time>
      </trkpt>
      <trkpt lat="46.59925" lon="5.91542">
        <ele>894.64</ele>
        <time>2014-08-02T07:16:24Z</time>
      </trkpt>
      <trkpt lat="46.59961" lon="5.91536">
        <ele>893.2</ele>
        <time>2014-08-02T07:16:28Z</time>
      </trkpt>
      <trkpt lat="46.59986" lon="5.91521">
        <ele>891.76</ele>
        <time>2014-08-02T07:16:31Z</time>
      </trkpt>
      <trkpt lat="46.60024" lon="5.91445">
        <ele>888.88</ele>
        <time>2014-08-02T07:16:38Z</time>
      </trkpt>
      <trkpt lat="46.60032" lon="5.91394">
        <ele>887.43</ele>
        <time>2014-08-02T07:16:42Z</time>
      </trkpt>
      <trkpt lat="46.6001" lon="5.91302">
        <ele>885.99</ele>
        <time>2014-08-02T07:16:50Z</time>
      </trkpt>
      <trkpt lat="46.59998" lon="5.91288">
        <ele>885.51</ele>
        <time>2014-08-02T07:16:52Z</time>
      </trkpt>
      <trkpt lat="46.59884" lon="5.91151">
        <ele>882.15</ele>
        <time>2014-08-02T07:17:11Z</time>
      </trkpt>
      <trkpt lat="46.59798" lon="5.91016">
        <ele>879.74</ele>
        <time>2014-08-02T07:17:28Z</time>
      </trkpt>
      <trkpt lat="46.59704" lon="5.90916">
        <ele>877.82</ele>
        <time>2014-08-02T07:17:44Z</time>
      </trkpt>
      <trkpt lat="46.5962" lon="5.90796">
        <ele>876.38</ele>
        <time>2014-08-02T07:18:01Z</time>
      </trkpt>
      <trkpt lat="46.59552" lon="5.90658">
        <ele>873.98</ele>
        <time>2014-08-02T07:18:18Z</time>
      </trkpt>
      <trkpt lat="46.59514" lon="5.90532">
        <ele>873.01</ele>
        <time>2014-08-02T07:18:34Z</time>
      </trkpt>
      <trkpt lat="46.59513" lon="5.90524">
        <ele>873.01</ele>
        <time>2014-08-02T07:18:35Z</time>
      </trkpt>
      <trkpt lat="46.59512" lon="5.905">
        <ele>873.01</ele>
        <time>2014-08-02T07:18:38Z</time>
      </trkpt>
      <trkpt lat="46.59512" lon="5.90491">
        <ele>872.53</ele>
        <time>2014-08-02T07:18:39Z</time>
      </trkpt>
      <trkpt lat="46.59515" lon="5.90467">
        <ele>872.53</ele>
        <time>2014-08-02T07:18:42Z</time>
      </trkpt>
      <trkpt lat="46.5955" lon="5.90371">
        <ele>872.53</ele>
        <time>2014-08-02T07:18:56Z</time>
      </trkpt>
      <trkpt lat="46.59586" lon="5.90321">
        <ele>872.53</ele>
        <time>2014-08-02T07:19:08Z</time>
      </trkpt>
      <trkpt lat="46.59619" lon="5.90304">
        <ele>873.98</ele>
        <time>2014-08-02T07:19:19Z</time>
      </trkpt>
      <trkpt lat="46.59662" lon="5.90277">
        <ele>875.42</ele>
        <time>2014-08-02T07:19:35Z</time>
      </trkpt>
      <trkpt lat="46.59688" lon="5.9024">
        <ele>876.86</ele>
        <time>2014-08-02T07:19:49Z</time>
      </trkpt>
      <trkpt lat="46.5973" lon="5.90192">
        <ele>878.78</ele>
        <time>2014-08-02T07:20:07Z</time>
      </trkpt>
      <trkpt lat="46.59773" lon="5.90176">
        <ele>880.71</ele>
        <time>2014-08-02T07:20:23Z</time>
      </trkpt>
      <trkpt lat="46.59836" lon="5.90174">
        <ele>881.67</ele>
        <time>2014-08-02T07:20:44Z</time>
      </trkpt>
      <trkpt lat="46.59891" lon="5.90181">
        <ele>883.11</ele>
        <time>2014-08-02T07:21:02Z</time>
      </trkpt>
      <trkpt lat="46.59932" lon="5.90222">
        <ele>885.03</ele>
        <time>2014-08-02T07:21:20Z</time>
      </trkpt>
      <trkpt lat="46.59956" lon="5.90269">
        <ele>886.95</ele>
        <time>2014-08-02T07:21:36Z</time>
      </trkpt>
      <trkpt lat="46.59982" lon="5.90305">
        <ele>888.4</ele>
        <time>2014-08-02T07:21:51Z</time>
      </trkpt>
      <trkpt lat="46.60009" lon="5.90324">
        <ele>889.84</ele>
        <time>2014-08-02T07:22:04Z</time>
      </trkpt>
      <trkpt lat="46.60019" lon="5.90331">
        <ele>890.32</ele>
        <time>2014-08-02T07:22:09Z</time>
      </trkpt>
      <trkpt lat="46.6006" lon="5.9033">
        <ele>891.76</ele>
        <time>2014-08-02T07:22:26Z</time>
      </trkpt>
      <trkpt lat="46.60102" lon="5.9031">
        <ele>894.16</ele>
        <time>2014-08-02T07:22:45Z</time>
      </trkpt>
      <trkpt lat="46.60144" lon="5.90283">
        <ele>896.09</ele>
        <time>2014-08-02T07:23:04Z</time>
      </trkpt>
      <trkpt lat="46.60189" lon="5.90254">
        <ele>897.53</ele>
        <time>2014-08-02T07:23:24Z</time>
      </trkpt>
      <trkpt lat="46.60234" lon="5.90235">
        <ele>899.45</ele>
        <time>2014-08-02T07:23:43Z</time>
      </trkpt>
      <trkpt lat="46.60279" lon="5.9024">
        <ele>901.37</ele>
        <time>2014-08-02T07:24:01Z</time>
      </trkpt>
      <trkpt lat="46.60312" lon="5.90268">
        <ele>902.82</ele>
        <time>2014-08-02T07:24:17Z</time>
      </trkpt>
      <trkpt lat="46.60338" lon="5.90306">
        <ele>904.74</ele>
        <time>2014-08-02T07:24:33Z</time>
      </trkpt>
      <trkpt lat="46.60371" lon="5.90349">
        <ele>906.66</ele>
        <time>2014-08-02T07:24:52Z</time>
      </trkpt>
      <trkpt lat="46.60411" lon="5.90382">
        <ele>908.58</ele>
        <time>2014-08-02T07:25:11Z</time>
      </trkpt>
      <trkpt lat="46.60449" lon="5.90384">
        <ele>910.03</ele>
        <time>2014-08-02T07:25:27Z</time>
      </trkpt>
      <trkpt lat="46.60473" lon="5.90366">
        <ele>910.99</ele>
        <time>2014-08-02T07:25:39Z</time>
      </trkpt>
      <trkpt lat="46.60517" lon="5.9035">
        <ele>911.95</ele>
        <time>2014-08-02T07:25:58Z</time>
      </trkpt>
      <trkpt lat="46.60541" lon="5.90351">
        <ele>911.95</ele>
        <time>2014-08-02T07:26:11Z</time>
      </trkpt>
      <trkpt lat="46.60541" lon="5.9035">
        <ele>911.95</ele>
        <time>2014-08-02T07:26:26Z</time>
      </trkpt>
      <trkpt lat="46.60541" lon="5.9035">
        <ele>911.47</ele>
        <time>2014-08-02T07:26:50Z</time>
      </trkpt>
      <trkpt lat="46.60541" lon="5.90351">
        <ele>911.47</ele>
        <time>2014-08-02T07:27:15Z</time>
      </trkpt>
      <trkpt lat="46.60541" lon="5.90351">
        <ele>911.47</ele>
        <time>2014-08-02T07:27:38Z</time>
      </trkpt>
      <trkpt lat="46.60541" lon="5.90351">
        <ele>911.47</ele>
        <time>2014-08-02T07:27:57Z</time>
      </trkpt>
      <trkpt lat="46.60541" lon="5.90351">
        <ele>910.99</ele>
        <time>2014-08-02T07:28:19Z</time>
      </trkpt>
      <trkpt lat="46.60541" lon="5.90351">
        <ele>910.99</ele>
        <time>2014-08-02T07:28:40Z</time>
      </trkpt>
      <trkpt lat="46.60541" lon="5.90351">
        <ele>910.51</ele>
        <time>2014-08-02T07:29:03Z</time>
      </trkpt>
      <trkpt lat="46.60541" lon="5.90351">
        <ele>910.51</ele>
        <time>2014-08-02T07:29:32Z</time>
      </trkpt>
      <trkpt lat="46.60541" lon="5.90351">
        <ele>910.51</ele>
        <time>2014-08-02T07:29:52Z</time>
      </trkpt>
      <trkpt lat="46.60541" lon="5.90351">
        <ele>910.51</ele>
        <time>2014-08-02T07:30:14Z</time>
      </trkpt>
      <trkpt lat="46.60541" lon="5.9035">
        <ele>910.51</ele>
        <time>2014-08-02T07:30:15Z</time>
      </trkpt>
      <trkpt lat="46.60545" lon="5.90348">
        <ele>910.51</ele>
        <time>2014-08-02T07:30:18Z</time>
      </trkpt>
      <trkpt lat="46.60577" lon="5.90346">
        <ele>910.03</ele>
        <time>2014-08-02T07:30:32Z</time>
      </trkpt>
      <trkpt lat="46.60619" lon="5.90352">
        <ele>909.54</ele>
        <time>2014-08-02T07:30:45Z</time>
      </trkpt>
      <trkpt lat="46.60652" lon="5.90376">
        <ele>909.06</ele>
        <time>2014-08-02T07:30:54Z</time>
      </trkpt>
      <trkpt lat="46.60663" lon="5.90383">
        <ele>909.06</ele>
        <time>2014-08-02T07:30:57Z</time>
      </trkpt>
      <trkpt lat="46.60716" lon="5.90395">
        <ele>908.58</ele>
        <time>2014-08-02T07:31:09Z</time>
      </trkpt>
      <trkpt lat="46.60788" lon="5.90388">
        <ele>908.58</ele>
        <time>2014-08-02T07:31:27Z</time>
      </trkpt>
      <trkpt lat="46.60793" lon="5.90386">
        <ele>908.58</ele>
        <time>2014-08-02T07:31:38Z</time>
      </trkpt>
      <trkpt lat="46.60793" lon="5.90386">
        <ele>908.58</ele>
        <time>2014-08-02T07:32:06Z</time>
      </trkpt>
      <trkpt lat="46.60793" lon="5.90387">
        <ele>908.58</ele>
        <time>2014-08-02T07:32:36Z</time>
      </trkpt>
      <trkpt lat="46.60793" lon="5.90387">
        <ele>908.1</ele>
        <time>2014-08-02T07:32:57Z</time>
      </trkpt>
      <trkpt lat="46.60808" lon="5.90389">
        <ele>908.1</ele>
        <time>2014-08-02T07:33:09Z</time>
      </trkpt>
      <trkpt lat="46.60846" lon="5.90377">
        <ele>909.06</ele>
        <time>2014-08-02T07:33:23Z</time>
      </trkpt>
      <trkpt lat="46.60894" lon="5.90383">
        <ele>910.51</ele>
        <time>2014-08-02T07:33:40Z</time>
      </trkpt>
      <trkpt lat="46.60928" lon="5.90419">
        <ele>911.95</ele>
        <time>2014-08-02T07:33:56Z</time>
      </trkpt>
      <trkpt lat="46.60967" lon="5.90444">
        <ele>913.87</ele>
        <time>2014-08-02T07:34:13Z</time>
      </trkpt>
      <trkpt lat="46.6099" lon="5.9042">
        <ele>917.24</ele>
        <time>2014-08-02T07:34:25Z</time>
      </trkpt>
      <trkpt lat="46.61002" lon="5.90418">
        <ele>918.2</ele>
        <time>2014-08-02T07:34:37Z</time>
      </trkpt>
      <trkpt lat="46.61004" lon="5.90416">
        <ele>917.72</ele>
        <time>2014-08-02T07:35:00Z</time>
      </trkpt>
      <trkpt lat="46.61003" lon="5.90416">
        <ele>917.72</ele>
        <time>2014-08-02T07:35:17Z</time>
      </trkpt>
      <trkpt lat="46.61003" lon="5.90416">
        <ele>917.24</ele>
        <time>2014-08-02T07:35:39Z</time>
      </trkpt>
      <trkpt lat="46.61001" lon="5.90415">
        <ele>917.24</ele>
        <time>2014-08-02T07:35:55Z</time>
      </trkpt>
      <trkpt lat="46.61001" lon="5.90416">
        <ele>917.24</ele>
        <time>2014-08-02T07:36:15Z</time>
      </trkpt>
      <trkpt lat="46.61001" lon="5.90416">
        <ele>917.24</ele>
        <time>2014-08-02T07:36:21Z</time>
      </trkpt>
      <trkpt lat="46.60997" lon="5.90418">
        <ele>917.24</ele>
        <time>2014-08-02T07:36:25Z</time>
      </trkpt>
      <trkpt lat="46.60971" lon="5.90437">
        <ele>914.35</ele>
        <time>2014-08-02T07:36:36Z</time>
      </trkpt>
      <trkpt lat="46.60965" lon="5.90445">
        <ele>913.39</ele>
        <time>2014-08-02T07:36:38Z</time>
      </trkpt>
      <trkpt lat="46.60964" lon="5.90458">
        <ele>912.91</ele>
        <time>2014-08-02T07:36:46Z</time>
      </trkpt>
      <trkpt lat="46.60964" lon="5.90458">
        <ele>912.91</ele>
        <time>2014-08-02T07:37:02Z</time>
      </trkpt>
      <trkpt lat="46.60957" lon="5.90453">
        <ele>912.43</ele>
        <time>2014-08-02T07:37:10Z</time>
      </trkpt>
      <trkpt lat="46.60937" lon="5.90424">
        <ele>911.47</ele>
        <time>2014-08-02T07:37:19Z</time>
      </trkpt>
      <trkpt lat="46.60892" lon="5.90376">
        <ele>909.06</ele>
        <time>2014-08-02T07:37:30Z</time>
      </trkpt>
      <trkpt lat="46.60869" lon="5.90369">
        <ele>908.58</ele>
        <time>2014-08-02T07:37:34Z</time>
      </trkpt>
      <trkpt lat="46.60839" lon="5.90381">
        <ele>907.14</ele>
        <time>2014-08-02T07:37:40Z</time>
      </trkpt>
      <trkpt lat="46.60836" lon="5.90384">
        <ele>907.14</ele>
        <time>2014-08-02T07:37:51Z</time>
      </trkpt>
      <trkpt lat="46.60835" lon="5.90383">
        <ele>906.66</ele>
        <time>2014-08-02T07:37:57Z</time>
      </trkpt>
      <trkpt lat="46.60827" lon="5.90385">
        <ele>906.66</ele>
        <time>2014-08-02T07:38:09Z</time>
      </trkpt>
      <trkpt lat="46.60827" lon="5.90385">
        <ele>906.18</ele>
        <time>2014-08-02T07:38:34Z</time>
      </trkpt>
      <trkpt lat="46.60827" lon="5.90385">
        <ele>906.18</ele>
        <time>2014-08-02T07:38:54Z</time>
      </trkpt>
      <trkpt lat="46.60827" lon="5.90385">
        <ele>906.18</ele>
        <time>2014-08-02T07:39:06Z</time>
      </trkpt>
      <trkpt lat="46.60822" lon="5.90386">
        <ele>906.18</ele>
        <time>2014-08-02T07:39:10Z</time>
      </trkpt>
      <trkpt lat="46.60803" lon="5.9039">
        <ele>905.7</ele>
        <time>2014-08-02T07:39:18Z</time>
      </trkpt>
      <trkpt lat="46.60807" lon="5.90381">
        <ele>905.22</ele>
        <time>2014-08-02T07:39:23Z</time>
      </trkpt>
      <trkpt lat="46.60862" lon="5.90361">
        <ele>904.26</ele>
        <time>2014-08-02T07:39:39Z</time>
      </trkpt>
      <trkpt lat="46.60877" lon="5.90353">
        <ele>903.78</ele>
        <time>2014-08-02T07:39:42Z</time>
      </trkpt>
      <trkpt lat="46.60928" lon="5.90285">
        <ele>899.93</ele>
        <time>2014-08-02T07:39:52Z</time>
      </trkpt>
      <trkpt lat="46.60933" lon="5.90276">
        <ele>899.93</ele>
        <time>2014-08-02T07:39:53Z</time>
      </trkpt>
      <trkpt lat="46.60953" lon="5.90236">
        <ele>898.01</ele>
        <time>2014-08-02T07:39:57Z</time>
      </trkpt>
      <trkpt lat="46.60962" lon="5.90187">
        <ele>896.57</ele>
        <time>2014-08-02T07:40:01Z</time>
      </trkpt>
      <trkpt lat="46.60937" lon="5.90138">
        <ele>893.68</ele>
        <time>2014-08-02T07:40:06Z</time>
      </trkpt>
      <trkpt lat="46.60915" lon="5.90118">
        <ele>892.72</ele>
        <time>2014-08-02T07:40:09Z</time>
      </trkpt>
      <trkpt lat="46.60909" lon="5.9011">
        <ele>892.24</ele>
        <time>2014-08-02T07:40:10Z</time>
      </trkpt>
      <trkpt lat="46.60885" lon="5.90072">
        <ele>890.32</ele>
        <time>2014-08-02T07:40:14Z</time>
      </trkpt>
      <trkpt lat="46.60854" lon="5.89977">
        <ele>885.99</ele>
        <time>2014-08-02T07:40:22Z</time>
      </trkpt>
      <trkpt lat="46.60835" lon="5.89904">
        <ele>883.11</ele>
        <time>2014-08-02T07:40:28Z</time>
      </trkpt>
      <trkpt lat="46.60828" lon="5.89865">
        <ele>880.71</ele>
        <time>2014-08-02T07:40:31Z</time>
      </trkpt>
      <trkpt lat="46.60812" lon="5.89818">
        <ele>878.78</ele>
        <time>2014-08-02T07:40:35Z</time>
      </trkpt>
      <trkpt lat="46.60784" lon="5.89728">
        <ele>875.9</ele>
        <time>2014-08-02T07:40:43Z</time>
      </trkpt>
      <trkpt lat="46.60767" lon="5.89658">
        <ele>873.5</ele>
        <time>2014-08-02T07:40:49Z</time>
      </trkpt>
      <trkpt lat="46.60781" lon="5.89607">
        <ele>870.13</ele>
        <time>2014-08-02T07:40:55Z</time>
      </trkpt>
      <trkpt lat="46.60796" lon="5.89604">
        <ele>869.65</ele>
        <time>2014-08-02T07:40:57Z</time>
      </trkpt>
      <trkpt lat="46.60804" lon="5.89606">
        <ele>869.17</ele>
        <time>2014-08-02T07:40:58Z</time>
      </trkpt>
      <trkpt lat="46.6084" lon="5.89636">
        <ele>867.25</ele>
        <time>2014-08-02T07:41:03Z</time>
      </trkpt>
      <trkpt lat="46.60849" lon="5.89649">
        <ele>866.77</ele>
        <time>2014-08-02T07:41:04Z</time>
      </trkpt>
      <trkpt lat="46.60876" lon="5.89684">
        <ele>864.84</ele>
        <time>2014-08-02T07:41:08Z</time>
      </trkpt>
      <trkpt lat="46.60914" lon="5.89743">
        <ele>862.44</ele>
        <time>2014-08-02T07:41:14Z</time>
      </trkpt>
      <trkpt lat="46.60935" lon="5.89765">
        <ele>860.52</ele>
        <time>2014-08-02T07:41:17Z</time>
      </trkpt>
      <trkpt lat="46.60959" lon="5.89778">
        <ele>858.59</ele>
        <time>2014-08-02T07:41:20Z</time>
      </trkpt>
      <trkpt lat="46.60986" lon="5.89791">
        <ele>857.15</ele>
        <time>2014-08-02T07:41:23Z</time>
      </trkpt>
      <trkpt lat="46.61031" lon="5.89779">
        <ele>854.75</ele>
        <time>2014-08-02T07:41:28Z</time>
      </trkpt>
      <trkpt lat="46.61088" lon="5.89733">
        <ele>851.87</ele>
        <time>2014-08-02T07:41:33Z</time>
      </trkpt>
      <trkpt lat="46.61121" lon="5.89669">
        <ele>848.98</ele>
        <time>2014-08-02T07:41:39Z</time>
      </trkpt>
      <trkpt lat="46.61131" lon="5.89591">
        <ele>845.62</ele>
        <time>2014-08-02T07:41:45Z</time>
      </trkpt>
      <trkpt lat="46.61158" lon="5.89516">
        <ele>842.25</ele>
        <time>2014-08-02T07:41:52Z</time>
      </trkpt>
      <trkpt lat="46.61165" lon="5.89511">
        <ele>841.29</ele>
        <time>2014-08-02T07:41:54Z</time>
      </trkpt>
      <trkpt lat="46.6117" lon="5.89509">
        <ele>840.81</ele>
        <time>2014-08-02T07:42:04Z</time>
      </trkpt>
      <trkpt lat="46.61172" lon="5.89509">
        <ele>839.85</ele>
        <time>2014-08-02T07:42:17Z</time>
      </trkpt>
      <trkpt lat="46.61172" lon="5.89509">
        <ele>839.85</ele>
        <time>2014-08-02T07:42:47Z</time>
      </trkpt>
      <trkpt lat="46.61173" lon="5.89509">
        <ele>839.85</ele>
        <time>2014-08-02T07:43:13Z</time>
      </trkpt>
      <trkpt lat="46.6118" lon="5.89505">
        <ele>839.37</ele>
        <time>2014-08-02T07:43:18Z</time>
      </trkpt>
      <trkpt lat="46.61198" lon="5.89506">
        <ele>837.93</ele>
        <time>2014-08-02T07:43:22Z</time>
      </trkpt>
      <trkpt lat="46.61249" lon="5.895">
        <ele>833.6</ele>
        <time>2014-08-02T07:43:29Z</time>
      </trkpt>
      <trkpt lat="46.61301" lon="5.89493">
        <ele>830.72</ele>
        <time>2014-08-02T07:43:35Z</time>
      </trkpt>
      <trkpt lat="46.61368" lon="5.8948">
        <ele>827.35</ele>
        <time>2014-08-02T07:43:42Z</time>
      </trkpt>
      <trkpt lat="46.61387" lon="5.89476">
        <ele>826.39</ele>
        <time>2014-08-02T07:43:44Z</time>
      </trkpt>
      <trkpt lat="46.61397" lon="5.89474">
        <ele>825.91</ele>
        <time>2014-08-02T07:43:45Z</time>
      </trkpt>
      <trkpt lat="46.61433" lon="5.89436">
        <ele>823.03</ele>
        <time>2014-08-02T07:43:50Z</time>
      </trkpt>
      <trkpt lat="46.61412" lon="5.8939">
        <ele>821.58</ele>
        <time>2014-08-02T07:43:55Z</time>
      </trkpt>
      <trkpt lat="46.61328" lon="5.89362">
        <ele>818.22</ele>
        <time>2014-08-02T07:44:05Z</time>
      </trkpt>
      <trkpt lat="46.61305" lon="5.8935">
        <ele>816.78</ele>
        <time>2014-08-02T07:44:08Z</time>
      </trkpt>
      <trkpt lat="46.61286" lon="5.89291">
        <ele>812.93</ele>
        <time>2014-08-02T07:44:14Z</time>
      </trkpt>
      <trkpt lat="46.613" lon="5.89273">
        <ele>811.49</ele>
        <time>2014-08-02T07:44:16Z</time>
      </trkpt>
      <trkpt lat="46.61349" lon="5.89219">
        <ele>807.64</ele>
        <time>2014-08-02T07:44:22Z</time>
      </trkpt>
      <trkpt lat="46.61394" lon="5.89174">
        <ele>804.76</ele>
        <time>2014-08-02T07:44:27Z</time>
      </trkpt>
      <trkpt lat="46.61404" lon="5.89166">
        <ele>804.28</ele>
        <time>2014-08-02T07:44:28Z</time>
      </trkpt>
      <trkpt lat="46.61467" lon="5.89138">
        <ele>800.44</ele>
        <time>2014-08-02T07:44:34Z</time>
      </trkpt>
      <trkpt lat="46.61499" lon="5.89135">
        <ele>798.51</ele>
        <time>2014-08-02T07:44:37Z</time>
      </trkpt>
      <trkpt lat="46.61518" lon="5.89113">
        <ele>797.07</ele>
        <time>2014-08-02T07:44:40Z</time>
      </trkpt>
      <trkpt lat="46.615" lon="5.8907">
        <ele>795.15</ele>
        <time>2014-08-02T07:44:45Z</time>
      </trkpt>
      <trkpt lat="46.61458" lon="5.89024">
        <ele>793.71</ele>
        <time>2014-08-02T07:44:52Z</time>
      </trkpt>
      <trkpt lat="46.61439" lon="5.88988">
        <ele>792.74</ele>
        <time>2014-08-02T07:44:56Z</time>
      </trkpt>
      <trkpt lat="46.61431" lon="5.88933">
        <ele>789.86</ele>
        <time>2014-08-02T07:45:01Z</time>
      </trkpt>
      <trkpt lat="46.61445" lon="5.88784">
        <ele>786.5</ele>
        <time>2014-08-02T07:45:13Z</time>
      </trkpt>
      <trkpt lat="46.61462" lon="5.88683">
        <ele>786.5</ele>
        <time>2014-08-02T07:45:24Z</time>
      </trkpt>
      <trkpt lat="46.61461" lon="5.8864">
        <ele>787.46</ele>
        <time>2014-08-02T07:45:30Z</time>
      </trkpt>
      <trkpt lat="46.61489" lon="5.88566">
        <ele>787.46</ele>
        <time>2014-08-02T07:45:44Z</time>
      </trkpt>
      <trkpt lat="46.61491" lon="5.88561">
        <ele>787.46</ele>
        <time>2014-08-02T07:45:45Z</time>
      </trkpt>
      <trkpt lat="46.61507" lon="5.88541">
        <ele>787.46</ele>
        <time>2014-08-02T07:45:50Z</time>
      </trkpt>
      <trkpt lat="46.61561" lon="5.88486">
        <ele>787.46</ele>
        <time>2014-08-02T07:46:05Z</time>
      </trkpt>
      <trkpt lat="46.61608" lon="5.88444">
        <ele>788.42</ele>
        <time>2014-08-02T07:46:19Z</time>
      </trkpt>
      <trkpt lat="46.61611" lon="5.88443">
        <ele>787.94</ele>
        <time>2014-08-02T07:46:35Z</time>
      </trkpt>
      <trkpt lat="46.61613" lon="5.88442">
        <ele>787.94</ele>
        <time>2014-08-02T07:46:41Z</time>
      </trkpt>
      <trkpt lat="46.61621" lon="5.88438">
        <ele>788.42</ele>
        <time>2014-08-02T07:46:46Z</time>
      </trkpt>
      <trkpt lat="46.61627" lon="5.88434">
        <ele>788.42</ele>
        <time>2014-08-02T07:46:49Z</time>
      </trkpt>
      <trkpt lat="46.61637" lon="5.88429">
        <ele>788.42</ele>
        <time>2014-08-02T07:46:54Z</time>
      </trkpt>
      <trkpt lat="46.61688" lon="5.88383">
        <ele>788.9</ele>
        <time>2014-08-02T07:47:11Z</time>
      </trkpt>
      <trkpt lat="46.61746" lon="5.88331">
        <ele>789.38</ele>
        <time>2014-08-02T07:47:27Z</time>
      </trkpt>
      <trkpt lat="46.6179" lon="5.88283">
        <ele>789.86</ele>
        <time>2014-08-02T07:47:40Z</time>
      </trkpt>
      <trkpt lat="46.61806" lon="5.88253">
        <ele>789.38</ele>
        <time>2014-08-02T07:47:46Z</time>
      </trkpt>
      <trkpt lat="46.61812" lon="5.88236">
        <ele>789.86</ele>
        <time>2014-08-02T07:47:49Z</time>
      </trkpt>
      <trkpt lat="46.61805" lon="5.88229">
        <ele>789.38</ele>
        <time>2014-08-02T07:47:53Z</time>
      </trkpt>
      <trkpt lat="46.61796" lon="5.88221">
        <ele>789.38</ele>
        <time>2014-08-02T07:48:05Z</time>
      </trkpt>
      <trkpt lat="46.61796" lon="5.88221">
        <ele>788.9</ele>
        <time>2014-08-02T07:48:24Z</time>
      </trkpt>
      <trkpt lat="46.61796" lon="5.88221">
        <ele>788.9</ele>
        <time>2014-08-02T07:48:45Z</time>
      </trkpt>
      <trkpt lat="46.61816" lon="5.88209">
        <ele>788.9</ele>
        <time>2014-08-02T07:48:55Z</time>
      </trkpt>
      <trkpt lat="46.61817" lon="5.88201">
        <ele>789.38</ele>
        <time>2014-08-02T07:48:57Z</time>
      </trkpt>
      <trkpt lat="46.61819" lon="5.8814">
        <ele>789.86</ele>
        <time>2014-08-02T07:49:13Z</time>
      </trkpt>
      <trkpt lat="46.61818" lon="5.88101">
        <ele>790.34</ele>
        <time>2014-08-02T07:49:26Z</time>
      </trkpt>
      <trkpt lat="46.61815" lon="5.88064">
        <ele>789.86</ele>
        <time>2014-08-02T07:49:40Z</time>
      </trkpt>
      <trkpt lat="46.61814" lon="5.88041">
        <ele>789.38</ele>
        <time>2014-08-02T07:49:45Z</time>
      </trkpt>
      <trkpt lat="46.61808" lon="5.87982">
        <ele>788.9</ele>
        <time>2014-08-02T07:49:54Z</time>
      </trkpt>
      <trkpt lat="46.61801" lon="5.87944">
        <ele>788.9</ele>
        <time>2014-08-02T07:50:00Z</time>
      </trkpt>
      <trkpt lat="46.61773" lon="5.87852">
        <ele>786.5</ele>
        <time>2014-08-02T07:50:12Z</time>
      </trkpt>
      <trkpt lat="46.61726" lon="5.87714">
        <ele>785.05</ele>
        <time>2014-08-02T07:50:30Z</time>
      </trkpt>
      <trkpt lat="46.61702" lon="5.87667">
        <ele>785.05</ele>
        <time>2014-08-02T07:50:37Z</time>
      </trkpt>
      <trkpt lat="46.61691" lon="5.87615">
        <ele>785.05</ele>
        <time>2014-08-02T07:50:44Z</time>
      </trkpt>
      <trkpt lat="46.61694" lon="5.87567">
        <ele>784.57</ele>
        <time>2014-08-02T07:50:50Z</time>
      </trkpt>
      <trkpt lat="46.61674" lon="5.87493">
        <ele>784.57</ele>
        <time>2014-08-02T07:51:00Z</time>
      </trkpt>
      <trkpt lat="46.61663" lon="5.87458">
        <ele>784.57</ele>
        <time>2014-08-02T07:51:05Z</time>
      </trkpt>
      <trkpt lat="46.61655" lon="5.87339">
        <ele>784.09</ele>
        <time>2014-08-02T07:51:20Z</time>
      </trkpt>
      <trkpt lat="46.61645" lon="5.87223">
        <ele>784.09</ele>
        <time>2014-08-02T07:51:34Z</time>
      </trkpt>
      <trkpt lat="46.61631" lon="5.87095">
        <ele>783.61</ele>
        <time>2014-08-02T07:51:50Z</time>
      </trkpt>
      <trkpt lat="46.61631" lon="5.87087">
        <ele>783.61</ele>
        <time>2014-08-02T07:51:51Z</time>
      </trkpt>
      <trkpt lat="46.61649" lon="5.87036">
        <ele>783.13</ele>
        <time>2014-08-02T07:51:58Z</time>
      </trkpt>
      <trkpt lat="46.61721" lon="5.86991">
        <ele>783.13</ele>
        <time>2014-08-02T07:52:12Z</time>
      </trkpt>
      <trkpt lat="46.61742" lon="5.86979">
        <ele>782.65</ele>
        <time>2014-08-02T07:52:16Z</time>
      </trkpt>
      <trkpt lat="46.61787" lon="5.86928">
        <ele>782.17</ele>
        <time>2014-08-02T07:52:26Z</time>
      </trkpt>
      <trkpt lat="46.61802" lon="5.869">
        <ele>781.69</ele>
        <time>2014-08-02T07:52:30Z</time>
      </trkpt>
      <trkpt lat="46.61825" lon="5.86801">
        <ele>780.73</ele>
        <time>2014-08-02T07:52:42Z</time>
      </trkpt>
      <trkpt lat="46.61836" lon="5.86762">
        <ele>780.25</ele>
        <time>2014-08-02T07:52:47Z</time>
      </trkpt>
      <trkpt lat="46.61831" lon="5.86702">
        <ele>779.77</ele>
        <time>2014-08-02T07:52:54Z</time>
      </trkpt>
      <trkpt lat="46.61812" lon="5.86666">
        <ele>779.77</ele>
        <time>2014-08-02T07:52:59Z</time>
      </trkpt>
      <trkpt lat="46.61806" lon="5.86632">
        <ele>779.29</ele>
        <time>2014-08-02T07:53:03Z</time>
      </trkpt>
      <trkpt lat="46.61806" lon="5.86597">
        <ele>779.29</ele>
        <time>2014-08-02T07:53:07Z</time>
      </trkpt>
      <trkpt lat="46.61802" lon="5.8657">
        <ele>779.29</ele>
        <time>2014-08-02T07:53:10Z</time>
      </trkpt>
      <trkpt lat="46.61788" lon="5.86522">
        <ele>778.81</ele>
        <time>2014-08-02T07:53:16Z</time>
      </trkpt>
      <trkpt lat="46.61775" lon="5.86419">
        <ele>778.32</ele>
        <time>2014-08-02T07:53:29Z</time>
      </trkpt>
      <trkpt lat="46.61778" lon="5.86376">
        <ele>778.81</ele>
        <time>2014-08-02T07:53:34Z</time>
      </trkpt>
      <trkpt lat="46.61773" lon="5.86334">
        <ele>778.32</ele>
        <time>2014-08-02T07:53:39Z</time>
      </trkpt>
      <trkpt lat="46.61757" lon="5.86299">
        <ele>777.84</ele>
        <time>2014-08-02T07:53:44Z</time>
      </trkpt>
      <trkpt lat="46.61751" lon="5.86283">
        <ele>777.84</ele>
        <time>2014-08-02T07:53:46Z</time>
      </trkpt>
      <trkpt lat="46.61744" lon="5.86249">
        <ele>777.84</ele>
        <time>2014-08-02T07:53:50Z</time>
      </trkpt>
      <trkpt lat="46.61741" lon="5.86215">
        <ele>777.84</ele>
        <time>2014-08-02T07:53:54Z</time>
      </trkpt>
      <trkpt lat="46.61742" lon="5.86157">
        <ele>777.84</ele>
        <time>2014-08-02T07:54:01Z</time>
      </trkpt>
      <trkpt lat="46.61737" lon="5.86115">
        <ele>777.36</ele>
        <time>2014-08-02T07:54:06Z</time>
      </trkpt>
      <trkpt lat="46.61705" lon="5.86055">
        <ele>776.88</ele>
        <time>2014-08-02T07:54:15Z</time>
      </trkpt>
      <trkpt lat="46.61668" lon="5.85948">
        <ele>776.88</ele>
        <time>2014-08-02T07:54:29Z</time>
      </trkpt>
      <trkpt lat="46.61633" lon="5.85812">
        <ele>775.44</ele>
        <time>2014-08-02T07:54:46Z</time>
      </trkpt>
      <trkpt lat="46.61634" lon="5.85764">
        <ele>775.44</ele>
        <time>2014-08-02T07:54:52Z</time>
      </trkpt>
      <trkpt lat="46.61642" lon="5.85734">
        <ele>775.44</ele>
        <time>2014-08-02T07:54:56Z</time>
      </trkpt>
      <trkpt lat="46.61634" lon="5.85672">
        <ele>774.96</ele>
        <time>2014-08-02T07:55:04Z</time>
      </trkpt>
      <trkpt lat="46.61626" lon="5.85659">
        <ele>774.96</ele>
        <time>2014-08-02T07:55:06Z</time>
      </trkpt>
      <trkpt lat="46.616" lon="5.85567">
        <ele>774.48</ele>
        <time>2014-08-02T07:55:18Z</time>
      </trkpt>
      <trkpt lat="46.61608" lon="5.85429">
        <ele>774</ele>
        <time>2014-08-02T07:55:34Z</time>
      </trkpt>
      <trkpt lat="46.6161" lon="5.85388">
        <ele>774</ele>
        <time>2014-08-02T07:55:39Z</time>
      </trkpt>
      <trkpt lat="46.61616" lon="5.85329">
        <ele>773.52</ele>
        <time>2014-08-02T07:55:46Z</time>
      </trkpt>
      <trkpt lat="46.6163" lon="5.853">
        <ele>773.04</ele>
        <time>2014-08-02T07:55:50Z</time>
      </trkpt>
      <trkpt lat="46.61689" lon="5.85214">
        <ele>772.08</ele>
        <time>2014-08-02T07:56:04Z</time>
      </trkpt>
      <trkpt lat="46.61701" lon="5.85184">
        <ele>772.08</ele>
        <time>2014-08-02T07:56:09Z</time>
      </trkpt>
      <trkpt lat="46.61708" lon="5.85168">
        <ele>771.6</ele>
        <time>2014-08-02T07:56:12Z</time>
      </trkpt>
      <trkpt lat="46.61729" lon="5.85144">
        <ele>771.11</ele>
        <time>2014-08-02T07:56:24Z</time>
      </trkpt>
      <trkpt lat="46.6173" lon="5.85141">
        <ele>771.11</ele>
        <time>2014-08-02T07:56:26Z</time>
      </trkpt>
      <trkpt lat="46.61736" lon="5.85137">
        <ele>771.11</ele>
        <time>2014-08-02T07:56:31Z</time>
      </trkpt>
      <trkpt lat="46.61743" lon="5.85129">
        <ele>770.63</ele>
        <time>2014-08-02T07:56:37Z</time>
      </trkpt>
      <trkpt lat="46.61746" lon="5.85128">
        <ele>770.63</ele>
        <time>2014-08-02T07:56:39Z</time>
      </trkpt>
      <trkpt lat="46.61772" lon="5.85108">
        <ele>770.63</ele>
        <time>2014-08-02T07:56:52Z</time>
      </trkpt>
      <trkpt lat="46.61789" lon="5.85095">
        <ele>770.15</ele>
        <time>2014-08-02T07:56:57Z</time>
      </trkpt>
      <trkpt lat="46.6186" lon="5.85038">
        <ele>768.71</ele>
        <time>2014-08-02T07:57:13Z</time>
      </trkpt>
      <trkpt lat="46.61909" lon="5.84997">
        <ele>766.31</ele>
        <time>2014-08-02T07:57:22Z</time>
      </trkpt>
      <trkpt lat="46.61933" lon="5.84943">
        <ele>764.39</ele>
        <time>2014-08-02T07:57:28Z</time>
      </trkpt>
      <trkpt lat="46.61955" lon="5.84821">
        <ele>760.54</ele>
        <time>2014-08-02T07:57:39Z</time>
      </trkpt>
      <trkpt lat="46.61977" lon="5.84702">
        <ele>757.18</ele>
        <time>2014-08-02T07:57:49Z</time>
      </trkpt>
      <trkpt lat="46.61987" lon="5.84642">
        <ele>755.25</ele>
        <time>2014-08-02T07:57:54Z</time>
      </trkpt>
      <trkpt lat="46.61994" lon="5.84592">
        <ele>753.81</ele>
        <time>2014-08-02T07:57:58Z</time>
      </trkpt>
      <trkpt lat="46.61979" lon="5.84508">
        <ele>751.41</ele>
        <time>2014-08-02T07:58:05Z</time>
      </trkpt>
      <trkpt lat="46.6196" lon="5.84467">
        <ele>750.45</ele>
        <time>2014-08-02T07:58:09Z</time>
      </trkpt>
      <trkpt lat="46.61947" lon="5.84423">
        <ele>749</ele>
        <time>2014-08-02T07:58:13Z</time>
      </trkpt>
      <trkpt lat="46.61945" lon="5.84388">
        <ele>748.04</ele>
        <time>2014-08-02T07:58:16Z</time>
      </trkpt>
      <trkpt lat="46.6195" lon="5.84253">
        <ele>744.2</ele>
        <time>2014-08-02T07:58:28Z</time>
      </trkpt>
      <trkpt lat="46.6195" lon="5.84231">
        <ele>743.72</ele>
        <time>2014-08-02T07:58:30Z</time>
      </trkpt>
      <trkpt lat="46.61945" lon="5.84089">
        <ele>740.35</ele>
        <time>2014-08-02T07:58:43Z</time>
      </trkpt>
      <trkpt lat="46.61935" lon="5.83975">
        <ele>737.47</ele>
        <time>2014-08-02T07:58:54Z</time>
      </trkpt>
      <trkpt lat="46.61917" lon="5.83888">
        <ele>734.58</ele>
        <time>2014-08-02T07:59:02Z</time>
      </trkpt>
      <trkpt lat="46.61939" lon="5.83813">
        <ele>732.18</ele>
        <time>2014-08-02T07:59:09Z</time>
      </trkpt>
      <trkpt lat="46.61969" lon="5.83768">
        <ele>729.78</ele>
        <time>2014-08-02T07:59:14Z</time>
      </trkpt>
      <trkpt lat="46.6198" lon="5.83717">
        <ele>727.86</ele>
        <time>2014-08-02T07:59:18Z</time>
      </trkpt>
      <trkpt lat="46.61981" lon="5.83678">
        <ele>726.41</ele>
        <time>2014-08-02T07:59:21Z</time>
      </trkpt>
      <trkpt lat="46.61976" lon="5.83638">
        <ele>725.45</ele>
        <time>2014-08-02T07:59:24Z</time>
      </trkpt>
      <trkpt lat="46.6197" lon="5.83612">
        <ele>724.49</ele>
        <time>2014-08-02T07:59:26Z</time>
      </trkpt>
      <trkpt lat="46.61963" lon="5.83575">
        <ele>723.53</ele>
        <time>2014-08-02T07:59:29Z</time>
      </trkpt>
      <trkpt lat="46.6197" lon="5.83506">
        <ele>720.16</ele>
        <time>2014-08-02T07:59:35Z</time>
      </trkpt>
      <trkpt lat="46.61992" lon="5.83456">
        <ele>717.76</ele>
        <time>2014-08-02T07:59:40Z</time>
      </trkpt>
      <trkpt lat="46.62029" lon="5.83369">
        <ele>714.88</ele>
        <time>2014-08-02T07:59:47Z</time>
      </trkpt>
      <trkpt lat="46.6205" lon="5.83322">
        <ele>712.95</ele>
        <time>2014-08-02T07:59:51Z</time>
      </trkpt>
      <trkpt lat="46.62086" lon="5.83256">
        <ele>709.59</ele>
        <time>2014-08-02T07:59:57Z</time>
      </trkpt>
      <trkpt lat="46.62123" lon="5.83175">
        <ele>706.71</ele>
        <time>2014-08-02T08:00:04Z</time>
      </trkpt>
      <trkpt lat="46.62169" lon="5.8309">
        <ele>703.34</ele>
        <time>2014-08-02T08:00:12Z</time>
      </trkpt>
      <trkpt lat="46.62218" lon="5.83008">
        <ele>699.98</ele>
        <time>2014-08-02T08:00:20Z</time>
      </trkpt>
      <trkpt lat="46.62252" lon="5.82961">
        <ele>697.09</ele>
        <time>2014-08-02T08:00:25Z</time>
      </trkpt>
      <trkpt lat="46.62283" lon="5.82929">
        <ele>694.69</ele>
        <time>2014-08-02T08:00:29Z</time>
      </trkpt>
      <trkpt lat="46.62311" lon="5.8291">
        <ele>692.77</ele>
        <time>2014-08-02T08:00:33Z</time>
      </trkpt>
      <trkpt lat="46.62328" lon="5.82899">
        <ele>691.81</ele>
        <time>2014-08-02T08:00:36Z</time>
      </trkpt>
      <trkpt lat="46.62366" lon="5.82896">
        <ele>688.92</ele>
        <time>2014-08-02T08:00:45Z</time>
      </trkpt>
      <trkpt lat="46.62386" lon="5.82909">
        <ele>687.48</ele>
        <time>2014-08-02T08:00:55Z</time>
      </trkpt>
      <trkpt lat="46.62447" lon="5.82939">
        <ele>684.6</ele>
        <time>2014-08-02T08:01:07Z</time>
      </trkpt>
      <trkpt lat="46.62471" lon="5.82951">
        <ele>683.63</ele>
        <time>2014-08-02T08:01:11Z</time>
      </trkpt>
      <trkpt lat="46.62503" lon="5.82952">
        <ele>682.67</ele>
        <time>2014-08-02T08:01:16Z</time>
      </trkpt>
      <trkpt lat="46.62567" lon="5.82917">
        <ele>679.31</ele>
        <time>2014-08-02T08:01:26Z</time>
      </trkpt>
      <trkpt lat="46.6263" lon="5.8288">
        <ele>675.94</ele>
        <time>2014-08-02T08:01:35Z</time>
      </trkpt>
      <trkpt lat="46.62675" lon="5.82855">
        <ele>673.06</ele>
        <time>2014-08-02T08:01:41Z</time>
      </trkpt>
      <trkpt lat="46.6273" lon="5.82824">
        <ele>669.7</ele>
        <time>2014-08-02T08:01:48Z</time>
      </trkpt>
      <trkpt lat="46.62761" lon="5.82807">
        <ele>668.73</ele>
        <time>2014-08-02T08:01:52Z</time>
      </trkpt>
      <trkpt lat="46.62823" lon="5.82831">
        <ele>665.37</ele>
        <time>2014-08-02T08:02:00Z</time>
      </trkpt>
      <trkpt lat="46.62857" lon="5.82866">
        <ele>662.97</ele>
        <time>2014-08-02T08:02:05Z</time>
      </trkpt>
      <trkpt lat="46.62918" lon="5.82898">
        <ele>659.12</ele>
        <time>2014-08-02T08:02:12Z</time>
      </trkpt>
      <trkpt lat="46.62967" lon="5.82918">
        <ele>655.76</ele>
        <time>2014-08-02T08:02:17Z</time>
      </trkpt>
      <trkpt lat="46.63018" lon="5.82934">
        <ele>652.39</ele>
        <time>2014-08-02T08:02:22Z</time>
      </trkpt>
      <trkpt lat="46.63068" lon="5.82948">
        <ele>649.03</ele>
        <time>2014-08-02T08:02:27Z</time>
      </trkpt>
      <trkpt lat="46.63129" lon="5.82947">
        <ele>646.14</ele>
        <time>2014-08-02T08:02:33Z</time>
      </trkpt>
      <trkpt lat="46.63148" lon="5.8295">
        <ele>645.18</ele>
        <time>2014-08-02T08:02:35Z</time>
      </trkpt>
      <trkpt lat="46.63235" lon="5.83007">
        <ele>641.82</ele>
        <time>2014-08-02T08:02:46Z</time>
      </trkpt>
      <trkpt lat="46.63257" lon="5.83015">
        <ele>641.82</ele>
        <time>2014-08-02T08:02:49Z</time>
      </trkpt>
      <trkpt lat="46.63273" lon="5.83017">
        <ele>640.86</ele>
        <time>2014-08-02T08:02:51Z</time>
      </trkpt>
      <trkpt lat="46.63329" lon="5.83002">
        <ele>640.38</ele>
        <time>2014-08-02T08:02:59Z</time>
      </trkpt>
      <trkpt lat="46.63398" lon="5.83002">
        <ele>638.45</ele>
        <time>2014-08-02T08:03:09Z</time>
      </trkpt>
      <trkpt lat="46.63446" lon="5.83006">
        <ele>639.41</ele>
        <time>2014-08-02T08:03:21Z</time>
      </trkpt>
      <trkpt lat="46.63448" lon="5.83005">
        <ele>639.89</ele>
        <time>2014-08-02T08:03:32Z</time>
      </trkpt>
      <trkpt lat="46.63448" lon="5.83005">
        <ele>639.41</ele>
        <time>2014-08-02T08:03:56Z</time>
      </trkpt>
      <trkpt lat="46.6345" lon="5.83004">
        <ele>639.41</ele>
        <time>2014-08-02T08:04:07Z</time>
      </trkpt>
      <trkpt lat="46.63475" lon="5.82986">
        <ele>638.45</ele>
        <time>2014-08-02T08:04:18Z</time>
      </trkpt>
      <trkpt lat="46.6349" lon="5.82971">
        <ele>637.49</ele>
        <time>2014-08-02T08:04:22Z</time>
      </trkpt>
      <trkpt lat="46.63546" lon="5.82927">
        <ele>636.05</ele>
        <time>2014-08-02T08:04:35Z</time>
      </trkpt>
      <trkpt lat="46.63565" lon="5.82917">
        <ele>635.09</ele>
        <time>2014-08-02T08:04:39Z</time>
      </trkpt>
      <trkpt lat="46.63602" lon="5.8291">
        <ele>634.13</ele>
        <time>2014-08-02T08:04:45Z</time>
      </trkpt>
      <trkpt lat="46.63649" lon="5.82909">
        <ele>634.13</ele>
        <time>2014-08-02T08:04:53Z</time>
      </trkpt>
      <trkpt lat="46.63699" lon="5.82914">
        <ele>635.57</ele>
        <time>2014-08-02T08:05:03Z</time>
      </trkpt>
      <trkpt lat="46.63713" lon="5.82913">
        <ele>635.57</ele>
        <time>2014-08-02T08:05:06Z</time>
      </trkpt>
      <trkpt lat="46.63739" lon="5.82894">
        <ele>635.57</ele>
        <time>2014-08-02T08:05:12Z</time>
      </trkpt>
      <trkpt lat="46.63778" lon="5.82835">
        <ele>635.09</ele>
        <time>2014-08-02T08:05:23Z</time>
      </trkpt>
      <trkpt lat="46.63786" lon="5.82818">
        <ele>635.57</ele>
        <time>2014-08-02T08:05:26Z</time>
      </trkpt>
      <trkpt lat="46.63835" lon="5.82744">
        <ele>634.61</ele>
        <time>2014-08-02T08:05:40Z</time>
      </trkpt>
      <trkpt lat="46.63908" lon="5.82688">
        <ele>633.65</ele>
        <time>2014-08-02T08:05:55Z</time>
      </trkpt>
      <trkpt lat="46.63912" lon="5.82682">
        <ele>633.17</ele>
        <time>2014-08-02T08:05:56Z</time>
      </trkpt>
      <trkpt lat="46.63996" lon="5.82563">
        <ele>630.76</ele>
        <time>2014-08-02T08:06:14Z</time>
      </trkpt>
      <trkpt lat="46.64074" lon="5.82482">
        <ele>627.88</ele>
        <time>2014-08-02T08:06:27Z</time>
      </trkpt>
      <trkpt lat="46.64137" lon="5.82426">
        <ele>625.96</ele>
        <time>2014-08-02T08:06:37Z</time>
      </trkpt>
      <trkpt lat="46.6415" lon="5.8242">
        <ele>625.96</ele>
        <time>2014-08-02T08:06:39Z</time>
      </trkpt>
      <trkpt lat="46.64259" lon="5.82408">
        <ele>624.51</ele>
        <time>2014-08-02T08:06:56Z</time>
      </trkpt>
      <trkpt lat="46.64343" lon="5.82405">
        <ele>624.51</ele>
        <time>2014-08-02T08:07:09Z</time>
      </trkpt>
      <trkpt lat="46.64404" lon="5.82401">
        <ele>627.4</ele>
        <time>2014-08-02T08:07:23Z</time>
      </trkpt>
      <trkpt lat="46.64447" lon="5.82393">
        <ele>630.28</ele>
        <time>2014-08-02T08:07:37Z</time>
      </trkpt>
      <trkpt lat="46.64484" lon="5.82372">
        <ele>631.72</ele>
        <time>2014-08-02T08:07:49Z</time>
      </trkpt>
      <trkpt lat="46.64544" lon="5.82327">
        <ele>632.2</ele>
        <time>2014-08-02T08:08:07Z</time>
      </trkpt>
      <trkpt lat="46.64557" lon="5.82324">
        <ele>632.2</ele>
        <time>2014-08-02T08:08:10Z</time>
      </trkpt>
      <trkpt lat="46.6458" lon="5.82319">
        <ele>631.72</ele>
        <time>2014-08-02T08:08:15Z</time>
      </trkpt>
      <trkpt lat="46.64667" lon="5.82264">
        <ele>628.84</ele>
        <time>2014-08-02T08:08:31Z</time>
      </trkpt>
      <trkpt lat="46.64752" lon="5.82221">
        <ele>626.92</ele>
        <time>2014-08-02T08:08:45Z</time>
      </trkpt>
      <trkpt lat="46.64848" lon="5.82182">
        <ele>626.44</ele>
        <time>2014-08-02T08:09:02Z</time>
      </trkpt>
      <trkpt lat="46.64935" lon="5.82147">
        <ele>625.47</ele>
        <time>2014-08-02T08:09:17Z</time>
      </trkpt>
      <trkpt lat="46.64981" lon="5.82116">
        <ele>625.47</ele>
        <time>2014-08-02T08:09:26Z</time>
      </trkpt>
      <trkpt lat="46.65032" lon="5.82074">
        <ele>625.47</ele>
        <time>2014-08-02T08:09:37Z</time>
      </trkpt>
      <trkpt lat="46.65051" lon="5.82065">
        <ele>625.47</ele>
        <time>2014-08-02T08:09:41Z</time>
      </trkpt>
      <trkpt lat="46.65074" lon="5.82058">
        <ele>625.96</ele>
        <time>2014-08-02T08:09:46Z</time>
      </trkpt>
      <trkpt lat="46.65112" lon="5.82047">
        <ele>626.44</ele>
        <time>2014-08-02T08:09:55Z</time>
      </trkpt>
      <trkpt lat="46.65155" lon="5.82028">
        <ele>626.44</ele>
        <time>2014-08-02T08:10:05Z</time>
      </trkpt>
      <trkpt lat="46.65231" lon="5.81968">
        <ele>623.55</ele>
        <time>2014-08-02T08:10:21Z</time>
      </trkpt>
      <trkpt lat="46.65295" lon="5.81926">
        <ele>620.19</ele>
        <time>2014-08-02T08:10:30Z</time>
      </trkpt>
      <trkpt lat="46.65342" lon="5.81903">
        <ele>618.26</ele>
        <time>2014-08-02T08:10:36Z</time>
      </trkpt>
      <trkpt lat="46.65389" lon="5.81843">
        <ele>616.34</ele>
        <time>2014-08-02T08:10:44Z</time>
      </trkpt>
      <trkpt lat="46.65437" lon="5.81723">
        <ele>613.46</ele>
        <time>2014-08-02T08:10:58Z</time>
      </trkpt>
      <trkpt lat="46.65449" lon="5.81676">
        <ele>612.5</ele>
        <time>2014-08-02T08:11:03Z</time>
      </trkpt>
      <trkpt lat="46.65474" lon="5.81531">
        <ele>610.09</ele>
        <time>2014-08-02T08:11:18Z</time>
      </trkpt>
      <trkpt lat="46.65499" lon="5.81354">
        <ele>606.73</ele>
        <time>2014-08-02T08:11:36Z</time>
      </trkpt>
      <trkpt lat="46.65537" lon="5.81189">
        <ele>603.85</ele>
        <time>2014-08-02T08:11:53Z</time>
      </trkpt>
      <trkpt lat="46.65597" lon="5.81019">
        <ele>601.44</ele>
        <time>2014-08-02T08:12:12Z</time>
      </trkpt>
      <trkpt lat="46.65619" lon="5.80953">
        <ele>601.44</ele>
        <time>2014-08-02T08:12:20Z</time>
      </trkpt>
      <trkpt lat="46.65656" lon="5.8085">
        <ele>602.88</ele>
        <time>2014-08-02T08:12:36Z</time>
      </trkpt>
      <trkpt lat="46.65671" lon="5.80807">
        <ele>603.36</ele>
        <time>2014-08-02T08:12:44Z</time>
      </trkpt>
      <trkpt lat="46.65694" lon="5.80704">
        <ele>605.77</ele>
        <time>2014-08-02T08:13:04Z</time>
      </trkpt>
      <trkpt lat="46.65686" lon="5.80633">
        <ele>606.73</ele>
        <time>2014-08-02T08:13:19Z</time>
      </trkpt>
      <trkpt lat="46.6567" lon="5.8054">
        <ele>608.65</ele>
        <time>2014-08-02T08:13:39Z</time>
      </trkpt>
      <trkpt lat="46.6568" lon="5.80452">
        <ele>610.09</ele>
        <time>2014-08-02T08:13:58Z</time>
      </trkpt>
      <trkpt lat="46.65688" lon="5.80382">
        <ele>611.54</ele>
        <time>2014-08-02T08:14:13Z</time>
      </trkpt>
      <trkpt lat="46.65697" lon="5.803">
        <ele>612.5</ele>
        <time>2014-08-02T08:14:30Z</time>
      </trkpt>
      <trkpt lat="46.65698" lon="5.8021">
        <ele>612.5</ele>
        <time>2014-08-02T08:14:46Z</time>
      </trkpt>
      <trkpt lat="46.65699" lon="5.80107">
        <ele>612.5</ele>
        <time>2014-08-02T08:15:03Z</time>
      </trkpt>
      <trkpt lat="46.657" lon="5.79979">
        <ele>609.13</ele>
        <time>2014-08-02T08:15:20Z</time>
      </trkpt>
      <trkpt lat="46.657" lon="5.7988">
        <ele>605.77</ele>
        <time>2014-08-02T08:15:29Z</time>
      </trkpt>
      <trkpt lat="46.65679" lon="5.79751">
        <ele>602.4</ele>
        <time>2014-08-02T08:15:41Z</time>
      </trkpt>
      <trkpt lat="46.65648" lon="5.79582">
        <ele>599.52</ele>
        <time>2014-08-02T08:15:58Z</time>
      </trkpt>
      <trkpt lat="46.65639" lon="5.79441">
        <ele>597.6</ele>
        <time>2014-08-02T08:16:13Z</time>
      </trkpt>
      <trkpt lat="46.65637" lon="5.7931">
        <ele>595.67</ele>
        <time>2014-08-02T08:16:27Z</time>
      </trkpt>
      <trkpt lat="46.65631" lon="5.79197">
        <ele>594.71</ele>
        <time>2014-08-02T08:16:39Z</time>
      </trkpt>
      <trkpt lat="46.65588" lon="5.79075">
        <ele>591.83</ele>
        <time>2014-08-02T08:16:53Z</time>
      </trkpt>
      <trkpt lat="46.65579" lon="5.79057">
        <ele>590.87</ele>
        <time>2014-08-02T08:16:55Z</time>
      </trkpt>
      <trkpt lat="46.65568" lon="5.7904">
        <ele>589.91</ele>
        <time>2014-08-02T08:16:57Z</time>
      </trkpt>
      <trkpt lat="46.65535" lon="5.7901">
        <ele>587.5</ele>
        <time>2014-08-02T08:17:02Z</time>
      </trkpt>
      <trkpt lat="46.65512" lon="5.78997">
        <ele>585.58</ele>
        <time>2014-08-02T08:17:05Z</time>
      </trkpt>
      <trkpt lat="46.65475" lon="5.78957">
        <ele>582.22</ele>
        <time>2014-08-02T08:17:11Z</time>
      </trkpt>
      <trkpt lat="46.65469" lon="5.78949">
        <ele>581.73</ele>
        <time>2014-08-02T08:17:13Z</time>
      </trkpt>
      <trkpt lat="46.65463" lon="5.78938">
        <ele>580.29</ele>
        <time>2014-08-02T08:17:22Z</time>
      </trkpt>
      <trkpt lat="46.65463" lon="5.78938">
        <ele>580.29</ele>
        <time>2014-08-02T08:17:47Z</time>
      </trkpt>
      <trkpt lat="46.65464" lon="5.78938">
        <ele>580.29</ele>
        <time>2014-08-02T08:18:13Z</time>
      </trkpt>
      <trkpt lat="46.65463" lon="5.78938">
        <ele>580.29</ele>
        <time>2014-08-02T08:18:42Z</time>
      </trkpt>
      <trkpt lat="46.65463" lon="5.78938">
        <ele>580.29</ele>
        <time>2014-08-02T08:19:05Z</time>
      </trkpt>
      <trkpt lat="46.65463" lon="5.78938">
        <ele>580.29</ele>
        <time>2014-08-02T08:19:27Z</time>
      </trkpt>
      <trkpt lat="46.65466" lon="5.78919">
        <ele>579.81</ele>
        <time>2014-08-02T08:19:37Z</time>
      </trkpt>
      <trkpt lat="46.65466" lon="5.78919">
        <ele>579.81</ele>
        <time>2014-08-02T08:19:57Z</time>
      </trkpt>
      <trkpt lat="46.65465" lon="5.78899">
        <ele>578.85</ele>
        <time>2014-08-02T08:20:03Z</time>
      </trkpt>
      <trkpt lat="46.6546" lon="5.7888">
        <ele>577.89</ele>
        <time>2014-08-02T08:20:06Z</time>
      </trkpt>
      <trkpt lat="46.65442" lon="5.78799">
        <ele>574.53</ele>
        <time>2014-08-02T08:20:15Z</time>
      </trkpt>
      <trkpt lat="46.65428" lon="5.78742">
        <ele>571.64</ele>
        <time>2014-08-02T08:20:20Z</time>
      </trkpt>
      <trkpt lat="46.65409" lon="5.7867">
        <ele>568.76</ele>
        <time>2014-08-02T08:20:26Z</time>
      </trkpt>
      <trkpt lat="46.65388" lon="5.78591">
        <ele>564.91</ele>
        <time>2014-08-02T08:20:32Z</time>
      </trkpt>
      <trkpt lat="46.65378" lon="5.78551">
        <ele>563.47</ele>
        <time>2014-08-02T08:20:35Z</time>
      </trkpt>
      <trkpt lat="46.65361" lon="5.78482">
        <ele>560.11</ele>
        <time>2014-08-02T08:20:40Z</time>
      </trkpt>
      <trkpt lat="46.65348" lon="5.78425">
        <ele>556.26</ele>
        <time>2014-08-02T08:20:44Z</time>
      </trkpt>
      <trkpt lat="46.65334" lon="5.7835">
        <ele>552.9</ele>
        <time>2014-08-02T08:20:49Z</time>
      </trkpt>
      <trkpt lat="46.65322" lon="5.78274">
        <ele>549.05</ele>
        <time>2014-08-02T08:20:54Z</time>
      </trkpt>
      <trkpt lat="46.65316" lon="5.78199">
        <ele>546.17</ele>
        <time>2014-08-02T08:20:59Z</time>
      </trkpt>
      <trkpt lat="46.65316" lon="5.78118">
        <ele>542.8</ele>
        <time>2014-08-02T08:21:05Z</time>
      </trkpt>
      <trkpt lat="46.65319" lon="5.78047">
        <ele>539.44</ele>
        <time>2014-08-02T08:21:11Z</time>
      </trkpt>
      <trkpt lat="46.65321" lon="5.78027">
        <ele>538.48</ele>
        <time>2014-08-02T08:21:13Z</time>
      </trkpt>
      <trkpt lat="46.65327" lon="5.77997">
        <ele>537.03</ele>
        <time>2014-08-02T08:21:17Z</time>
      </trkpt>
      <trkpt lat="46.65314" lon="5.77979">
        <ele>535.59</ele>
        <time>2014-08-02T08:21:24Z</time>
      </trkpt>
      <trkpt lat="46.65311" lon="5.77988">
        <ele>535.59</ele>
        <time>2014-08-02T08:21:33Z</time>
      </trkpt>
      <trkpt lat="46.65311" lon="5.77988">
        <ele>535.59</ele>
        <time>2014-08-02T08:21:57Z</time>
      </trkpt>
      <trkpt lat="46.65311" lon="5.77988">
        <ele>535.11</ele>
        <time>2014-08-02T08:22:24Z</time>
      </trkpt>
      <trkpt lat="46.65307" lon="5.78015">
        <ele>534.15</ele>
        <time>2014-08-02T08:22:37Z</time>
      </trkpt>
      <trkpt lat="46.65294" lon="5.78095">
        <ele>530.79</ele>
        <time>2014-08-02T08:22:46Z</time>
      </trkpt>
      <trkpt lat="46.6528" lon="5.78233">
        <ele>527.42</ele>
        <time>2014-08-02T08:22:59Z</time>
      </trkpt>
      <trkpt lat="46.65294" lon="5.78413">
        <ele>525.5</ele>
        <time>2014-08-02T08:23:15Z</time>
      </trkpt>
      <trkpt lat="46.65295" lon="5.78424">
        <ele>525.5</ele>
        <time>2014-08-02T08:23:16Z</time>
      </trkpt>
      <trkpt lat="46.65316" lon="5.78579">
        <ele>525.02</ele>
        <time>2014-08-02T08:23:32Z</time>
      </trkpt>
      <trkpt lat="46.65339" lon="5.78728">
        <ele>525.02</ele>
        <time>2014-08-02T08:23:48Z</time>
      </trkpt>
      <trkpt lat="46.6535" lon="5.78782">
        <ele>526.94</ele>
        <time>2014-08-02T08:23:55Z</time>
      </trkpt>
      <trkpt lat="46.65361" lon="5.78828">
        <ele>528.38</ele>
        <time>2014-08-02T08:24:02Z</time>
      </trkpt>
      <trkpt lat="46.65364" lon="5.7884">
        <ele>528.86</ele>
        <time>2014-08-02T08:24:04Z</time>
      </trkpt>
      <trkpt lat="46.65359" lon="5.78939">
        <ele>528.38</ele>
        <time>2014-08-02T08:24:17Z</time>
      </trkpt>
      <trkpt lat="46.65355" lon="5.78956">
        <ele>528.38</ele>
        <time>2014-08-02T08:24:19Z</time>
      </trkpt>
      <trkpt lat="46.6534" lon="5.78992">
        <ele>527.9</ele>
        <time>2014-08-02T08:24:24Z</time>
      </trkpt>
      <trkpt lat="46.65282" lon="5.79118">
        <ele>524.54</ele>
        <time>2014-08-02T08:24:39Z</time>
      </trkpt>
      <trkpt lat="46.65223" lon="5.79276">
        <ele>522.61</ele>
        <time>2014-08-02T08:24:55Z</time>
      </trkpt>
      <trkpt lat="46.65169" lon="5.79422">
        <ele>520.69</ele>
        <time>2014-08-02T08:25:10Z</time>
      </trkpt>
      <trkpt lat="46.65111" lon="5.79572">
        <ele>519.73</ele>
        <time>2014-08-02T08:25:26Z</time>
      </trkpt>
      <trkpt lat="46.65085" lon="5.79664">
        <ele>519.73</ele>
        <time>2014-08-02T08:25:36Z</time>
      </trkpt>
      <trkpt lat="46.65044" lon="5.79767">
        <ele>519.73</ele>
        <time>2014-08-02T08:25:49Z</time>
      </trkpt>
      <trkpt lat="46.64992" lon="5.79866">
        <ele>519.73</ele>
        <time>2014-08-02T08:26:03Z</time>
      </trkpt>
      <trkpt lat="46.64965" lon="5.79938">
        <ele>519.73</ele>
        <time>2014-08-02T08:26:12Z</time>
      </trkpt>
      <trkpt lat="46.64962" lon="5.79961">
        <ele>519.25</ele>
        <time>2014-08-02T08:26:15Z</time>
      </trkpt>
      <trkpt lat="46.64914" lon="5.80084">
        <ele>519.25</ele>
        <time>2014-08-02T08:26:30Z</time>
      </trkpt>
      <trkpt lat="46.64896" lon="5.80153">
        <ele>519.73</ele>
        <time>2014-08-02T08:26:39Z</time>
      </trkpt>
      <trkpt lat="46.64864" lon="5.8026">
        <ele>520.69</ele>
        <time>2014-08-02T08:26:53Z</time>
      </trkpt>
      <trkpt lat="46.64849" lon="5.80369">
        <ele>522.61</ele>
        <time>2014-08-02T08:27:08Z</time>
      </trkpt>
      <trkpt lat="46.64844" lon="5.804">
        <ele>523.58</ele>
        <time>2014-08-02T08:27:13Z</time>
      </trkpt>
      <trkpt lat="46.64843" lon="5.80412">
        <ele>524.06</ele>
        <time>2014-08-02T08:27:15Z</time>
      </trkpt>
      <trkpt lat="46.64844" lon="5.80425">
        <ele>524.06</ele>
        <time>2014-08-02T08:27:17Z</time>
      </trkpt>
      <trkpt lat="46.64845" lon="5.80438">
        <ele>524.54</ele>
        <time>2014-08-02T08:27:19Z</time>
      </trkpt>
      <trkpt lat="46.64847" lon="5.80458">
        <ele>525.02</ele>
        <time>2014-08-02T08:27:22Z</time>
      </trkpt>
      <trkpt lat="46.64843" lon="5.80517">
        <ele>525.02</ele>
        <time>2014-08-02T08:27:31Z</time>
      </trkpt>
      <trkpt lat="46.64839" lon="5.80539">
        <ele>525.02</ele>
        <time>2014-08-02T08:27:33Z</time>
      </trkpt>
      <trkpt lat="46.64813" lon="5.80597">
        <ele>525.5</ele>
        <time>2014-08-02T08:27:44Z</time>
      </trkpt>
      <trkpt lat="46.64782" lon="5.80647">
        <ele>525.98</ele>
        <time>2014-08-02T08:27:56Z</time>
      </trkpt>
      <trkpt lat="46.64778" lon="5.80652">
        <ele>525.98</ele>
        <time>2014-08-02T08:27:57Z</time>
      </trkpt>
      <trkpt lat="46.64772" lon="5.80657">
        <ele>526.46</ele>
        <time>2014-08-02T08:27:59Z</time>
      </trkpt>
      <trkpt lat="46.64762" lon="5.80663">
        <ele>525.98</ele>
        <time>2014-08-02T08:28:01Z</time>
      </trkpt>
      <trkpt lat="46.64704" lon="5.80715">
        <ele>524.06</ele>
        <time>2014-08-02T08:28:14Z</time>
      </trkpt>
      <trkpt lat="46.64686" lon="5.80735">
        <ele>523.09</ele>
        <time>2014-08-02T08:28:18Z</time>
      </trkpt>
      <trkpt lat="46.64681" lon="5.80739">
        <ele>522.61</ele>
        <time>2014-08-02T08:28:19Z</time>
      </trkpt>
      <trkpt lat="46.64652" lon="5.80757">
        <ele>522.13</ele>
        <time>2014-08-02T08:28:23Z</time>
      </trkpt>
      <trkpt lat="46.64598" lon="5.80763">
        <ele>521.17</ele>
        <time>2014-08-02T08:28:29Z</time>
      </trkpt>
      <trkpt lat="46.64548" lon="5.80747">
        <ele>520.21</ele>
        <time>2014-08-02T08:28:35Z</time>
      </trkpt>
      <trkpt lat="46.64485" lon="5.80742">
        <ele>519.73</ele>
        <time>2014-08-02T08:28:41Z</time>
      </trkpt>
      <trkpt lat="46.64442" lon="5.80748">
        <ele>519.73</ele>
        <time>2014-08-02T08:28:47Z</time>
      </trkpt>
      <trkpt lat="46.64373" lon="5.80792">
        <ele>520.21</ele>
        <time>2014-08-02T08:29:00Z</time>
      </trkpt>
      <trkpt lat="46.64368" lon="5.80794">
        <ele>520.69</ele>
        <time>2014-08-02T08:29:01Z</time>
      </trkpt>
      <trkpt lat="46.64316" lon="5.80825">
        <ele>521.17</ele>
        <time>2014-08-02T08:29:12Z</time>
      </trkpt>
      <trkpt lat="46.64254" lon="5.80847">
        <ele>521.65</ele>
        <time>2014-08-02T08:29:26Z</time>
      </trkpt>
      <trkpt lat="46.64215" lon="5.80866">
        <ele>521.17</ele>
        <time>2014-08-02T08:29:40Z</time>
      </trkpt>
      <trkpt lat="46.64198" lon="5.80878">
        <ele>521.17</ele>
        <time>2014-08-02T08:29:47Z</time>
      </trkpt>
      <trkpt lat="46.64188" lon="5.80888">
        <ele>521.65</ele>
        <time>2014-08-02T08:29:52Z</time>
      </trkpt>
      <trkpt lat="46.64182" lon="5.80888">
        <ele>521.17</ele>
        <time>2014-08-02T08:30:05Z</time>
      </trkpt>
      <trkpt lat="46.64181" lon="5.8089">
        <ele>521.17</ele>
        <time>2014-08-02T08:30:07Z</time>
      </trkpt>
      <trkpt lat="46.64156" lon="5.8091">
        <ele>520.69</ele>
        <time>2014-08-02T08:30:21Z</time>
      </trkpt>
      <trkpt lat="46.64119" lon="5.80938">
        <ele>520.69</ele>
        <time>2014-08-02T08:30:32Z</time>
      </trkpt>
      <trkpt lat="46.64115" lon="5.80941">
        <ele>520.69</ele>
        <time>2014-08-02T08:30:33Z</time>
      </trkpt>
      <trkpt lat="46.64095" lon="5.80953">
        <ele>520.69</ele>
        <time>2014-08-02T08:30:38Z</time>
      </trkpt>
      <trkpt lat="46.64078" lon="5.80961">
        <ele>520.21</ele>
        <time>2014-08-02T08:30:42Z</time>
      </trkpt>
      <trkpt lat="46.64067" lon="5.80967">
        <ele>520.21</ele>
        <time>2014-08-02T08:30:44Z</time>
      </trkpt>
      <trkpt lat="46.63977" lon="5.81026">
        <ele>519.25</ele>
        <time>2014-08-02T08:31:02Z</time>
      </trkpt>
      <trkpt lat="46.6395" lon="5.81047">
        <ele>519.25</ele>
        <time>2014-08-02T08:31:08Z</time>
      </trkpt>
      <trkpt lat="46.6394" lon="5.81057">
        <ele>519.25</ele>
        <time>2014-08-02T08:31:10Z</time>
      </trkpt>
      <trkpt lat="46.6392" lon="5.81069">
        <ele>519.73</ele>
        <time>2014-08-02T08:31:14Z</time>
      </trkpt>
      <trkpt lat="46.63887" lon="5.81088">
        <ele>521.65</ele>
        <time>2014-08-02T08:31:22Z</time>
      </trkpt>
      <trkpt lat="46.63871" lon="5.81098">
        <ele>522.13</ele>
        <time>2014-08-02T08:31:26Z</time>
      </trkpt>
      <trkpt lat="46.63848" lon="5.81118">
        <ele>522.61</ele>
        <time>2014-08-02T08:31:32Z</time>
      </trkpt>
      <trkpt lat="46.63787" lon="5.8118">
        <ele>523.09</ele>
        <time>2014-08-02T08:31:49Z</time>
      </trkpt>
      <trkpt lat="46.63734" lon="5.81256">
        <ele>522.61</ele>
        <time>2014-08-02T08:32:04Z</time>
      </trkpt>
      <trkpt lat="46.63731" lon="5.81262">
        <ele>522.61</ele>
        <time>2014-08-02T08:32:05Z</time>
      </trkpt>
      <trkpt lat="46.63683" lon="5.81336">
        <ele>523.58</ele>
        <time>2014-08-02T08:32:19Z</time>
      </trkpt>
      <trkpt lat="46.63644" lon="5.8142">
        <ele>523.58</ele>
        <time>2014-08-02T08:32:33Z</time>
      </trkpt>
      <trkpt lat="46.6364" lon="5.81433">
        <ele>523.58</ele>
        <time>2014-08-02T08:32:35Z</time>
      </trkpt>
      <trkpt lat="46.63636" lon="5.81445">
        <ele>524.06</ele>
        <time>2014-08-02T08:32:37Z</time>
      </trkpt>
      <trkpt lat="46.63615" lon="5.81475">
        <ele>524.06</ele>
        <time>2014-08-02T08:32:43Z</time>
      </trkpt>
      <trkpt lat="46.63588" lon="5.81495">
        <ele>524.06</ele>
        <time>2014-08-02T08:32:49Z</time>
      </trkpt>
      <trkpt lat="46.63568" lon="5.81502">
        <ele>524.06</ele>
        <time>2014-08-02T08:32:53Z</time>
      </trkpt>
      <trkpt lat="46.63519" lon="5.81525">
        <ele>524.54</ele>
        <time>2014-08-02T08:33:07Z</time>
      </trkpt>
      <trkpt lat="46.63488" lon="5.81539">
        <ele>524.54</ele>
        <time>2014-08-02T08:33:16Z</time>
      </trkpt>
      <trkpt lat="46.63414" lon="5.81574">
        <ele>523.58</ele>
        <time>2014-08-02T08:33:31Z</time>
      </trkpt>
      <trkpt lat="46.63299" lon="5.8163">
        <ele>522.13</ele>
        <time>2014-08-02T08:33:51Z</time>
      </trkpt>
      <trkpt lat="46.63241" lon="5.81653">
        <ele>518.77</ele>
        <time>2014-08-02T08:33:59Z</time>
      </trkpt>
      <trkpt lat="46.63173" lon="5.81632">
        <ele>517.81</ele>
        <time>2014-08-02T08:34:09Z</time>
      </trkpt>
      <trkpt lat="46.63076" lon="5.81595">
        <ele>517.33</ele>
        <time>2014-08-02T08:34:24Z</time>
      </trkpt>
      <trkpt lat="46.63004" lon="5.81572">
        <ele>517.81</ele>
        <time>2014-08-02T08:34:35Z</time>
      </trkpt>
      <trkpt lat="46.62934" lon="5.81565">
        <ele>517.33</ele>
        <time>2014-08-02T08:34:48Z</time>
      </trkpt>
      <trkpt lat="46.6293" lon="5.81565">
        <ele>517.33</ele>
        <time>2014-08-02T08:34:49Z</time>
      </trkpt>
      <trkpt lat="46.62912" lon="5.81565">
        <ele>517.33</ele>
        <time>2014-08-02T08:34:54Z</time>
      </trkpt>
      <trkpt lat="46.62878" lon="5.8158">
        <ele>517.33</ele>
        <time>2014-08-02T08:35:05Z</time>
      </trkpt>
      <trkpt lat="46.62839" lon="5.81597">
        <ele>517.33</ele>
        <time>2014-08-02T08:35:16Z</time>
      </trkpt>
      <trkpt lat="46.62794" lon="5.81619">
        <ele>516.85</ele>
        <time>2014-08-02T08:35:28Z</time>
      </trkpt>
      <trkpt lat="46.62791" lon="5.81622">
        <ele>517.33</ele>
        <time>2014-08-02T08:35:29Z</time>
      </trkpt>
      <trkpt lat="46.62761" lon="5.81639">
        <ele>517.33</ele>
        <time>2014-08-02T08:35:36Z</time>
      </trkpt>
      <trkpt lat="46.6273" lon="5.81657">
        <ele>516.85</ele>
        <time>2014-08-02T08:35:44Z</time>
      </trkpt>
      <trkpt lat="46.6267" lon="5.81688">
        <ele>516.85</ele>
        <time>2014-08-02T08:35:58Z</time>
      </trkpt>
      <trkpt lat="46.62662" lon="5.81697">
        <ele>516.85</ele>
        <time>2014-08-02T08:36:00Z</time>
      </trkpt>
      <trkpt lat="46.62626" lon="5.81749">
        <ele>516.85</ele>
        <time>2014-08-02T08:36:12Z</time>
      </trkpt>
      <trkpt lat="46.6262" lon="5.81755">
        <ele>516.37</ele>
        <time>2014-08-02T08:36:14Z</time>
      </trkpt>
      <trkpt lat="46.62591" lon="5.81782">
        <ele>516.37</ele>
        <time>2014-08-02T08:36:21Z</time>
      </trkpt>
      <trkpt lat="46.62563" lon="5.81817">
        <ele>515.88</ele>
        <time>2014-08-02T08:36:30Z</time>
      </trkpt>
      <trkpt lat="46.62523" lon="5.81866">
        <ele>516.37</ele>
        <time>2014-08-02T08:36:40Z</time>
      </trkpt>
      <trkpt lat="46.62495" lon="5.81895">
        <ele>515.88</ele>
        <time>2014-08-02T08:36:46Z</time>
      </trkpt>
      <trkpt lat="46.62474" lon="5.81919">
        <ele>516.37</ele>
        <time>2014-08-02T08:36:51Z</time>
      </trkpt>
      <trkpt lat="46.62457" lon="5.81944">
        <ele>516.37</ele>
        <time>2014-08-02T08:36:56Z</time>
      </trkpt>
      <trkpt lat="46.6244" lon="5.81963">
        <ele>516.37</ele>
        <time>2014-08-02T08:37:01Z</time>
      </trkpt>
      <trkpt lat="46.6241" lon="5.8199">
        <ele>516.85</ele>
        <time>2014-08-02T08:37:09Z</time>
      </trkpt>
      <trkpt lat="46.62383" lon="5.82017">
        <ele>516.37</ele>
        <time>2014-08-02T08:37:15Z</time>
      </trkpt>
      <trkpt lat="46.62365" lon="5.82031">
        <ele>516.37</ele>
        <time>2014-08-02T08:37:19Z</time>
      </trkpt>
      <trkpt lat="46.62317" lon="5.82057">
        <ele>516.37</ele>
        <time>2014-08-02T08:37:29Z</time>
      </trkpt>
      <trkpt lat="46.62282" lon="5.82083">
        <ele>515.88</ele>
        <time>2014-08-02T08:37:37Z</time>
      </trkpt>
      <trkpt lat="46.62249" lon="5.821">
        <ele>515.88</ele>
        <time>2014-08-02T08:37:44Z</time>
      </trkpt>
      <trkpt lat="46.6224" lon="5.82105">
        <ele>516.37</ele>
        <time>2014-08-02T08:37:46Z</time>
      </trkpt>
      <trkpt lat="46.62193" lon="5.82155">
        <ele>515.88</ele>
        <time>2014-08-02T08:38:01Z</time>
      </trkpt>
      <trkpt lat="46.62165" lon="5.82184">
        <ele>516.37</ele>
        <time>2014-08-02T08:38:10Z</time>
      </trkpt>
      <trkpt lat="46.62141" lon="5.82197">
        <ele>515.88</ele>
        <time>2014-08-02T08:38:16Z</time>
      </trkpt>
      <trkpt lat="46.62118" lon="5.82192">
        <ele>515.88</ele>
        <time>2014-08-02T08:38:21Z</time>
      </trkpt>
      <trkpt lat="46.62109" lon="5.82188">
        <ele>516.37</ele>
        <time>2014-08-02T08:38:23Z</time>
      </trkpt>
      <trkpt lat="46.62079" lon="5.8218">
        <ele>516.37</ele>
        <time>2014-08-02T08:38:29Z</time>
      </trkpt>
      <trkpt lat="46.62056" lon="5.82183">
        <ele>516.37</ele>
        <time>2014-08-02T08:38:34Z</time>
      </trkpt>
      <trkpt lat="46.62036" lon="5.82191">
        <ele>516.85</ele>
        <time>2014-08-02T08:38:39Z</time>
      </trkpt>
      <trkpt lat="46.62003" lon="5.82205">
        <ele>517.81</ele>
        <time>2014-08-02T08:38:47Z</time>
      </trkpt>
      <trkpt lat="46.61991" lon="5.82211">
        <ele>517.81</ele>
        <time>2014-08-02T08:38:50Z</time>
      </trkpt>
      <trkpt lat="46.61953" lon="5.82234">
        <ele>517.81</ele>
        <time>2014-08-02T08:39:00Z</time>
      </trkpt>
      <trkpt lat="46.61935" lon="5.82264">
        <ele>517.33</ele>
        <time>2014-08-02T08:39:06Z</time>
      </trkpt>
      <trkpt lat="46.61901" lon="5.82365">
        <ele>519.25</ele>
        <time>2014-08-02T08:39:23Z</time>
      </trkpt>
      <trkpt lat="46.61889" lon="5.82401">
        <ele>520.21</ele>
        <time>2014-08-02T08:39:30Z</time>
      </trkpt>
      <trkpt lat="46.61879" lon="5.82431">
        <ele>521.17</ele>
        <time>2014-08-02T08:39:36Z</time>
      </trkpt>
      <trkpt lat="46.61876" lon="5.82441">
        <ele>521.65</ele>
        <time>2014-08-02T08:39:38Z</time>
      </trkpt>
      <trkpt lat="46.61867" lon="5.82466">
        <ele>522.13</ele>
        <time>2014-08-02T08:39:43Z</time>
      </trkpt>
      <trkpt lat="46.61857" lon="5.82493">
        <ele>522.61</ele>
        <time>2014-08-02T08:39:48Z</time>
      </trkpt>
      <trkpt lat="46.61839" lon="5.8253">
        <ele>522.61</ele>
        <time>2014-08-02T08:39:55Z</time>
      </trkpt>
      <trkpt lat="46.61814" lon="5.82565">
        <ele>521.17</ele>
        <time>2014-08-02T08:40:01Z</time>
      </trkpt>
      <trkpt lat="46.61781" lon="5.82613">
        <ele>519.25</ele>
        <time>2014-08-02T08:40:08Z</time>
      </trkpt>
      <trkpt lat="46.61715" lon="5.82687">
        <ele>517.81</ele>
        <time>2014-08-02T08:40:20Z</time>
      </trkpt>
      <trkpt lat="46.61655" lon="5.82769">
        <ele>517.33</ele>
        <time>2014-08-02T08:40:33Z</time>
      </trkpt>
      <trkpt lat="46.61583" lon="5.8287">
        <ele>517.33</ele>
        <time>2014-08-02T08:40:49Z</time>
      </trkpt>
      <trkpt lat="46.61524" lon="5.82995">
        <ele>517.33</ele>
        <time>2014-08-02T08:41:06Z</time>
      </trkpt>
      <trkpt lat="46.61475" lon="5.83127">
        <ele>517.33</ele>
        <time>2014-08-02T08:41:22Z</time>
      </trkpt>
      <trkpt lat="46.6144" lon="5.83247">
        <ele>517.33</ele>
        <time>2014-08-02T08:41:36Z</time>
      </trkpt>
      <trkpt lat="46.61434" lon="5.83396">
        <ele>517.33</ele>
        <time>2014-08-02T08:41:52Z</time>
      </trkpt>
      <trkpt lat="46.61428" lon="5.8353">
        <ele>517.33</ele>
        <time>2014-08-02T08:42:07Z</time>
      </trkpt>
      <trkpt lat="46.61426" lon="5.83631">
        <ele>517.81</ele>
        <time>2014-08-02T08:42:19Z</time>
      </trkpt>
      <trkpt lat="46.61432" lon="5.83671">
        <ele>517.81</ele>
        <time>2014-08-02T08:42:24Z</time>
      </trkpt>
      <trkpt lat="46.61457" lon="5.83769">
        <ele>518.29</ele>
        <time>2014-08-02T08:42:38Z</time>
      </trkpt>
      <trkpt lat="46.61479" lon="5.83838">
        <ele>519.25</ele>
        <time>2014-08-02T08:42:49Z</time>
      </trkpt>
      <trkpt lat="46.61502" lon="5.83925">
        <ele>520.69</ele>
        <time>2014-08-02T08:43:04Z</time>
      </trkpt>
      <trkpt lat="46.6151" lon="5.83961">
        <ele>521.65</ele>
        <time>2014-08-02T08:43:10Z</time>
      </trkpt>
      <trkpt lat="46.61511" lon="5.83973">
        <ele>521.65</ele>
        <time>2014-08-02T08:43:12Z</time>
      </trkpt>
      <trkpt lat="46.61529" lon="5.84043">
        <ele>523.58</ele>
        <time>2014-08-02T08:43:25Z</time>
      </trkpt>
      <trkpt lat="46.61534" lon="5.84065">
        <ele>524.06</ele>
        <time>2014-08-02T08:43:29Z</time>
      </trkpt>
      <trkpt lat="46.61537" lon="5.84097">
        <ele>524.54</ele>
        <time>2014-08-02T08:43:35Z</time>
      </trkpt>
      <trkpt lat="46.61535" lon="5.84113">
        <ele>525.02</ele>
        <time>2014-08-02T08:43:38Z</time>
      </trkpt>
      <trkpt lat="46.61524" lon="5.84144">
        <ele>525.98</ele>
        <time>2014-08-02T08:43:44Z</time>
      </trkpt>
      <trkpt lat="46.6152" lon="5.84169">
        <ele>525.02</ele>
        <time>2014-08-02T08:43:48Z</time>
      </trkpt>
      <trkpt lat="46.61515" lon="5.84193">
        <ele>524.54</ele>
        <time>2014-08-02T08:43:51Z</time>
      </trkpt>
      <trkpt lat="46.61508" lon="5.84208">
        <ele>524.06</ele>
        <time>2014-08-02T08:43:53Z</time>
      </trkpt>
      <trkpt lat="46.61493" lon="5.8423">
        <ele>523.58</ele>
        <time>2014-08-02T08:43:56Z</time>
      </trkpt>
      <trkpt lat="46.61492" lon="5.84257">
        <ele>524.54</ele>
        <time>2014-08-02T08:44:00Z</time>
      </trkpt>
      <trkpt lat="46.61514" lon="5.84323">
        <ele>527.9</ele>
        <time>2014-08-02T08:44:12Z</time>
      </trkpt>
      <trkpt lat="46.61535" lon="5.84364">
        <ele>529.34</ele>
        <time>2014-08-02T08:44:20Z</time>
      </trkpt>
      <trkpt lat="46.61548" lon="5.84416">
        <ele>529.34</ele>
        <time>2014-08-02T08:44:30Z</time>
      </trkpt>
      <trkpt lat="46.61548" lon="5.84423">
        <ele>528.86</ele>
        <time>2014-08-02T08:44:31Z</time>
      </trkpt>
      <trkpt lat="46.61547" lon="5.84444">
        <ele>528.38</ele>
        <time>2014-08-02T08:44:34Z</time>
      </trkpt>
      <trkpt lat="46.61543" lon="5.84472">
        <ele>527.42</ele>
        <time>2014-08-02T08:44:38Z</time>
      </trkpt>
      <trkpt lat="46.61551" lon="5.84507">
        <ele>525.98</ele>
        <time>2014-08-02T08:44:47Z</time>
      </trkpt>
      <trkpt lat="46.61566" lon="5.84519">
        <ele>525.5</ele>
        <time>2014-08-02T08:45:06Z</time>
      </trkpt>
      <trkpt lat="46.61569" lon="5.84522">
        <ele>524.54</ele>
        <time>2014-08-02T08:45:30Z</time>
      </trkpt>
      <trkpt lat="46.61568" lon="5.84522">
        <ele>524.06</ele>
        <time>2014-08-02T08:45:41Z</time>
      </trkpt>
      <trkpt lat="46.61554" lon="5.8452">
        <ele>522.13</ele>
        <time>2014-08-02T08:45:51Z</time>
      </trkpt>
      <trkpt lat="46.61553" lon="5.8452">
        <ele>521.65</ele>
        <time>2014-08-02T08:46:02Z</time>
      </trkpt>
      <trkpt lat="46.61535" lon="5.8454">
        <ele>520.69</ele>
        <time>2014-08-02T08:46:09Z</time>
      </trkpt>
      <trkpt lat="46.61516" lon="5.84594">
        <ele>520.69</ele>
        <time>2014-08-02T08:46:21Z</time>
      </trkpt>
      <trkpt lat="46.61489" lon="5.84665">
        <ele>521.17</ele>
        <time>2014-08-02T08:46:38Z</time>
      </trkpt>
      <trkpt lat="46.61472" lon="5.84719">
        <ele>521.65</ele>
        <time>2014-08-02T08:46:51Z</time>
      </trkpt>
      <trkpt lat="46.61459" lon="5.84755">
        <ele>522.61</ele>
        <time>2014-08-02T08:47:03Z</time>
      </trkpt>
      <trkpt lat="46.61441" lon="5.84773">
        <ele>523.09</ele>
        <time>2014-08-02T08:47:15Z</time>
      </trkpt>
      <trkpt lat="46.61439" lon="5.84774">
        <ele>521.17</ele>
        <time>2014-08-02T08:47:22Z</time>
      </trkpt>
      <trkpt lat="46.61439" lon="5.84774">
        <ele>523.09</ele>
        <time>2014-08-02T08:47:23Z</time>
      </trkpt>
      <trkpt lat="46.61453" lon="5.84753">
        <ele>521.17</ele>
        <time>2014-08-02T09:18:06Z</time>
      </trkpt>
      <trkpt lat="46.61454" lon="5.84757">
        <ele>521.17</ele>
        <time>2014-08-02T09:18:07Z</time>
      </trkpt>
      <trkpt lat="46.61459" lon="5.84745">
        <ele>521.17</ele>
        <time>2014-08-02T09:18:12Z</time>
      </trkpt>
      <trkpt lat="46.61462" lon="5.84743">
        <ele>522.61</ele>
        <time>2014-08-02T09:18:23Z</time>
      </trkpt>
      <trkpt lat="46.61481" lon="5.8473">
        <ele>524.54</ele>
        <time>2014-08-02T09:18:31Z</time>
      </trkpt>
      <trkpt lat="46.61485" lon="5.84721">
        <ele>524.54</ele>
        <time>2014-08-02T09:18:33Z</time>
      </trkpt>
      <trkpt lat="46.61488" lon="5.8471">
        <ele>524.54</ele>
        <time>2014-08-02T09:18:35Z</time>
      </trkpt>
      <trkpt lat="46.61492" lon="5.84684">
        <ele>525.02</ele>
        <time>2014-08-02T09:18:39Z</time>
      </trkpt>
      <trkpt lat="46.61507" lon="5.84634">
        <ele>525.98</ele>
        <time>2014-08-02T09:18:49Z</time>
      </trkpt>
      <trkpt lat="46.61509" lon="5.84619">
        <ele>525.98</ele>
        <time>2014-08-02T09:18:52Z</time>
      </trkpt>
      <trkpt lat="46.61515" lon="5.84597">
        <ele>526.46</ele>
        <time>2014-08-02T09:18:56Z</time>
      </trkpt>
      <trkpt lat="46.61523" lon="5.8458">
        <ele>526.46</ele>
        <time>2014-08-02T09:18:59Z</time>
      </trkpt>
      <trkpt lat="46.61534" lon="5.84553">
        <ele>526.94</ele>
        <time>2014-08-02T09:19:03Z</time>
      </trkpt>
      <trkpt lat="46.61537" lon="5.84536">
        <ele>527.42</ele>
        <time>2014-08-02T09:19:06Z</time>
      </trkpt>
      <trkpt lat="46.61539" lon="5.84523">
        <ele>527.42</ele>
        <time>2014-08-02T09:19:08Z</time>
      </trkpt>
      <trkpt lat="46.6155" lon="5.84476">
        <ele>528.86</ele>
        <time>2014-08-02T09:19:15Z</time>
      </trkpt>
      <trkpt lat="46.61558" lon="5.84417">
        <ele>530.79</ele>
        <time>2014-08-02T09:19:26Z</time>
      </trkpt>
      <trkpt lat="46.61555" lon="5.84384">
        <ele>531.75</ele>
        <time>2014-08-02T09:19:32Z</time>
      </trkpt>
      <trkpt lat="46.61542" lon="5.84345">
        <ele>530.3</ele>
        <time>2014-08-02T09:19:38Z</time>
      </trkpt>
      <trkpt lat="46.61536" lon="5.84328">
        <ele>529.82</ele>
        <time>2014-08-02T09:19:40Z</time>
      </trkpt>
      <trkpt lat="46.61528" lon="5.84287">
        <ele>527.9</ele>
        <time>2014-08-02T09:19:44Z</time>
      </trkpt>
      <trkpt lat="46.61526" lon="5.84276">
        <ele>527.42</ele>
        <time>2014-08-02T09:19:45Z</time>
      </trkpt>
      <trkpt lat="46.61529" lon="5.8424">
        <ele>525.02</ele>
        <time>2014-08-02T09:19:48Z</time>
      </trkpt>
      <trkpt lat="46.61536" lon="5.84217">
        <ele>525.5</ele>
        <time>2014-08-02T09:19:50Z</time>
      </trkpt>
      <trkpt lat="46.61541" lon="5.84201">
        <ele>525.98</ele>
        <time>2014-08-02T09:19:52Z</time>
      </trkpt>
      <trkpt lat="46.61543" lon="5.84149">
        <ele>527.42</ele>
        <time>2014-08-02T09:20:00Z</time>
      </trkpt>
      <trkpt lat="46.61541" lon="5.84109">
        <ele>526.46</ele>
        <time>2014-08-02T09:20:07Z</time>
      </trkpt>
      <trkpt lat="46.61536" lon="5.84067">
        <ele>525.5</ele>
        <time>2014-08-02T09:20:12Z</time>
      </trkpt>
      <trkpt lat="46.61503" lon="5.83919">
        <ele>522.61</ele>
        <time>2014-08-02T09:20:25Z</time>
      </trkpt>
      <trkpt lat="46.61462" lon="5.83771">
        <ele>519.73</ele>
        <time>2014-08-02T09:20:40Z</time>
      </trkpt>
      <trkpt lat="46.61431" lon="5.83654">
        <ele>519.25</ele>
        <time>2014-08-02T09:20:53Z</time>
      </trkpt>
      <trkpt lat="46.61431" lon="5.83535">
        <ele>518.77</ele>
        <time>2014-08-02T09:21:07Z</time>
      </trkpt>
      <trkpt lat="46.61438" lon="5.83406">
        <ele>518.77</ele>
        <time>2014-08-02T09:21:23Z</time>
      </trkpt>
      <trkpt lat="46.61439" lon="5.83328">
        <ele>518.29</ele>
        <time>2014-08-02T09:21:33Z</time>
      </trkpt>
      <trkpt lat="46.61449" lon="5.83223">
        <ele>518.29</ele>
        <time>2014-08-02T09:21:47Z</time>
      </trkpt>
      <trkpt lat="46.61452" lon="5.83208">
        <ele>518.29</ele>
        <time>2014-08-02T09:21:49Z</time>
      </trkpt>
      <trkpt lat="46.61483" lon="5.83121">
        <ele>518.29</ele>
        <time>2014-08-02T09:22:02Z</time>
      </trkpt>
      <trkpt lat="46.61496" lon="5.83089">
        <ele>518.29</ele>
        <time>2014-08-02T09:22:07Z</time>
      </trkpt>
      <trkpt lat="46.61512" lon="5.83036">
        <ele>518.29</ele>
        <time>2014-08-02T09:22:15Z</time>
      </trkpt>
      <trkpt lat="46.61553" lon="5.8293">
        <ele>518.29</ele>
        <time>2014-08-02T09:22:32Z</time>
      </trkpt>
      <trkpt lat="46.61559" lon="5.82918">
        <ele>518.29</ele>
        <time>2014-08-02T09:22:34Z</time>
      </trkpt>
      <trkpt lat="46.6162" lon="5.82806">
        <ele>517.81</ele>
        <time>2014-08-02T09:22:53Z</time>
      </trkpt>
      <trkpt lat="46.61681" lon="5.82721">
        <ele>517.81</ele>
        <time>2014-08-02T09:23:09Z</time>
      </trkpt>
      <trkpt lat="46.61688" lon="5.82713">
        <ele>517.81</ele>
        <time>2014-08-02T09:23:11Z</time>
      </trkpt>
      <trkpt lat="46.61703" lon="5.82694">
        <ele>517.81</ele>
        <time>2014-08-02T09:23:15Z</time>
      </trkpt>
      <trkpt lat="46.6171" lon="5.82679">
        <ele>517.81</ele>
        <time>2014-08-02T09:23:18Z</time>
      </trkpt>
      <trkpt lat="46.61737" lon="5.82651">
        <ele>518.29</ele>
        <time>2014-08-02T09:23:26Z</time>
      </trkpt>
      <trkpt lat="46.61747" lon="5.82636">
        <ele>518.77</ele>
        <time>2014-08-02T09:23:29Z</time>
      </trkpt>
      <trkpt lat="46.61776" lon="5.82594">
        <ele>519.73</ele>
        <time>2014-08-02T09:23:39Z</time>
      </trkpt>
      <trkpt lat="46.61779" lon="5.82589">
        <ele>519.73</ele>
        <time>2014-08-02T09:23:40Z</time>
      </trkpt>
      <trkpt lat="46.61812" lon="5.82547">
        <ele>522.13</ele>
        <time>2014-08-02T09:23:50Z</time>
      </trkpt>
      <trkpt lat="46.6184" lon="5.82509">
        <ele>523.58</ele>
        <time>2014-08-02T09:23:58Z</time>
      </trkpt>
      <trkpt lat="46.61886" lon="5.82395">
        <ele>521.17</ele>
        <time>2014-08-02T09:24:14Z</time>
      </trkpt>
      <trkpt lat="46.61925" lon="5.82276">
        <ele>518.29</ele>
        <time>2014-08-02T09:24:26Z</time>
      </trkpt>
      <trkpt lat="46.61938" lon="5.8225">
        <ele>517.81</ele>
        <time>2014-08-02T09:24:29Z</time>
      </trkpt>
      <trkpt lat="46.61965" lon="5.82222">
        <ele>518.29</ele>
        <time>2014-08-02T09:24:34Z</time>
      </trkpt>
      <trkpt lat="46.61982" lon="5.82213">
        <ele>518.29</ele>
        <time>2014-08-02T09:24:37Z</time>
      </trkpt>
      <trkpt lat="46.62048" lon="5.82185">
        <ele>516.85</ele>
        <time>2014-08-02T09:24:49Z</time>
      </trkpt>
      <trkpt lat="46.62078" lon="5.82181">
        <ele>516.37</ele>
        <time>2014-08-02T09:24:54Z</time>
      </trkpt>
      <trkpt lat="46.62124" lon="5.82197">
        <ele>516.85</ele>
        <time>2014-08-02T09:25:03Z</time>
      </trkpt>
      <trkpt lat="46.62141" lon="5.82196">
        <ele>516.85</ele>
        <time>2014-08-02T09:25:06Z</time>
      </trkpt>
      <trkpt lat="46.62178" lon="5.82168">
        <ele>516.37</ele>
        <time>2014-08-02T09:25:14Z</time>
      </trkpt>
      <trkpt lat="46.62237" lon="5.82106">
        <ele>516.37</ele>
        <time>2014-08-02T09:25:27Z</time>
      </trkpt>
      <trkpt lat="46.62277" lon="5.82082">
        <ele>516.37</ele>
        <time>2014-08-02T09:25:35Z</time>
      </trkpt>
      <trkpt lat="46.6229" lon="5.82069">
        <ele>516.37</ele>
        <time>2014-08-02T09:25:38Z</time>
      </trkpt>
      <trkpt lat="46.6231" lon="5.82051">
        <ele>515.88</ele>
        <time>2014-08-02T09:25:48Z</time>
      </trkpt>
      <trkpt lat="46.6231" lon="5.82051">
        <ele>515.4</ele>
        <time>2014-08-02T09:26:11Z</time>
      </trkpt>
      <trkpt lat="46.6231" lon="5.82051">
        <ele>515.4</ele>
        <time>2014-08-02T09:26:33Z</time>
      </trkpt>
      <trkpt lat="46.6232" lon="5.8205">
        <ele>515.88</ele>
        <time>2014-08-02T09:26:52Z</time>
      </trkpt>
      <trkpt lat="46.62338" lon="5.82043">
        <ele>516.37</ele>
        <time>2014-08-02T09:26:58Z</time>
      </trkpt>
      <trkpt lat="46.62377" lon="5.82012">
        <ele>516.37</ele>
        <time>2014-08-02T09:27:07Z</time>
      </trkpt>
      <trkpt lat="46.62396" lon="5.81998">
        <ele>516.37</ele>
        <time>2014-08-02T09:27:11Z</time>
      </trkpt>
      <trkpt lat="46.62405" lon="5.81992">
        <ele>516.37</ele>
        <time>2014-08-02T09:27:13Z</time>
      </trkpt>
      <trkpt lat="46.62413" lon="5.81985">
        <ele>516.37</ele>
        <time>2014-08-02T09:27:15Z</time>
      </trkpt>
      <trkpt lat="46.62421" lon="5.81977">
        <ele>516.37</ele>
        <time>2014-08-02T09:27:17Z</time>
      </trkpt>
      <trkpt lat="46.62435" lon="5.81962">
        <ele>515.88</ele>
        <time>2014-08-02T09:27:20Z</time>
      </trkpt>
      <trkpt lat="46.62455" lon="5.81934">
        <ele>515.88</ele>
        <time>2014-08-02T09:27:25Z</time>
      </trkpt>
      <trkpt lat="46.62463" lon="5.81923">
        <ele>515.88</ele>
        <time>2014-08-02T09:27:27Z</time>
      </trkpt>
      <trkpt lat="46.62479" lon="5.81902">
        <ele>515.88</ele>
        <time>2014-08-02T09:27:31Z</time>
      </trkpt>
      <trkpt lat="46.62523" lon="5.8185">
        <ele>515.88</ele>
        <time>2014-08-02T09:27:41Z</time>
      </trkpt>
      <trkpt lat="46.62564" lon="5.81794">
        <ele>515.88</ele>
        <time>2014-08-02T09:27:52Z</time>
      </trkpt>
      <trkpt lat="46.62571" lon="5.81789">
        <ele>515.88</ele>
        <time>2014-08-02T09:27:53Z</time>
      </trkpt>
      <trkpt lat="46.62587" lon="5.8177">
        <ele>515.88</ele>
        <time>2014-08-02T09:27:57Z</time>
      </trkpt>
      <trkpt lat="46.62603" lon="5.81752">
        <ele>515.88</ele>
        <time>2014-08-02T09:28:01Z</time>
      </trkpt>
      <trkpt lat="46.62612" lon="5.81744">
        <ele>515.88</ele>
        <time>2014-08-02T09:28:03Z</time>
      </trkpt>
      <trkpt lat="46.62625" lon="5.81727">
        <ele>515.88</ele>
        <time>2014-08-02T09:28:07Z</time>
      </trkpt>
      <trkpt lat="46.62644" lon="5.81698">
        <ele>515.88</ele>
        <time>2014-08-02T09:28:12Z</time>
      </trkpt>
      <trkpt lat="46.62653" lon="5.81688">
        <ele>515.88</ele>
        <time>2014-08-02T09:28:14Z</time>
      </trkpt>
      <trkpt lat="46.62674" lon="5.81671">
        <ele>516.37</ele>
        <time>2014-08-02T09:28:19Z</time>
      </trkpt>
      <trkpt lat="46.62691" lon="5.81666">
        <ele>516.37</ele>
        <time>2014-08-02T09:28:22Z</time>
      </trkpt>
      <trkpt lat="46.62713" lon="5.81655">
        <ele>516.37</ele>
        <time>2014-08-02T09:28:26Z</time>
      </trkpt>
      <trkpt lat="46.62724" lon="5.81649">
        <ele>516.37</ele>
        <time>2014-08-02T09:28:28Z</time>
      </trkpt>
      <trkpt lat="46.62807" lon="5.81603">
        <ele>515.88</ele>
        <time>2014-08-02T09:28:43Z</time>
      </trkpt>
      <trkpt lat="46.62873" lon="5.81577">
        <ele>516.37</ele>
        <time>2014-08-02T09:28:55Z</time>
      </trkpt>
      <trkpt lat="46.62906" lon="5.81569">
        <ele>515.88</ele>
        <time>2014-08-02T09:29:06Z</time>
      </trkpt>
      <trkpt lat="46.62918" lon="5.81568">
        <ele>515.88</ele>
        <time>2014-08-02T09:29:12Z</time>
      </trkpt>
      <trkpt lat="46.6295" lon="5.81571">
        <ele>515.88</ele>
        <time>2014-08-02T09:29:23Z</time>
      </trkpt>
      <trkpt lat="46.6298" lon="5.81577">
        <ele>515.88</ele>
        <time>2014-08-02T09:29:32Z</time>
      </trkpt>
      <trkpt lat="46.63044" lon="5.81597">
        <ele>516.37</ele>
        <time>2014-08-02T09:29:46Z</time>
      </trkpt>
      <trkpt lat="46.63071" lon="5.81607">
        <ele>515.88</ele>
        <time>2014-08-02T09:29:51Z</time>
      </trkpt>
      <trkpt lat="46.63155" lon="5.81632">
        <ele>515.88</ele>
        <time>2014-08-02T09:30:06Z</time>
      </trkpt>
      <trkpt lat="46.6317" lon="5.81639">
        <ele>515.88</ele>
        <time>2014-08-02T09:30:09Z</time>
      </trkpt>
      <trkpt lat="46.63217" lon="5.81658">
        <ele>515.88</ele>
        <time>2014-08-02T09:30:18Z</time>
      </trkpt>
      <trkpt lat="46.63241" lon="5.81657">
        <ele>516.37</ele>
        <time>2014-08-02T09:30:23Z</time>
      </trkpt>
      <trkpt lat="46.63267" lon="5.81649">
        <ele>517.33</ele>
        <time>2014-08-02T09:30:29Z</time>
      </trkpt>
      <trkpt lat="46.63325" lon="5.81619">
        <ele>519.73</ele>
        <time>2014-08-02T09:30:43Z</time>
      </trkpt>
      <trkpt lat="46.63338" lon="5.81613">
        <ele>520.21</ele>
        <time>2014-08-02T09:30:46Z</time>
      </trkpt>
      <trkpt lat="46.63376" lon="5.81594">
        <ele>520.69</ele>
        <time>2014-08-02T09:30:55Z</time>
      </trkpt>
      <trkpt lat="46.63384" lon="5.8159">
        <ele>520.69</ele>
        <time>2014-08-02T09:30:57Z</time>
      </trkpt>
      <trkpt lat="46.63451" lon="5.81557">
        <ele>521.17</ele>
        <time>2014-08-02T09:31:13Z</time>
      </trkpt>
      <trkpt lat="46.63523" lon="5.81521">
        <ele>522.13</ele>
        <time>2014-08-02T09:31:29Z</time>
      </trkpt>
      <trkpt lat="46.636" lon="5.8148">
        <ele>521.17</ele>
        <time>2014-08-02T09:31:45Z</time>
      </trkpt>
      <trkpt lat="46.63609" lon="5.81472">
        <ele>521.17</ele>
        <time>2014-08-02T09:31:47Z</time>
      </trkpt>
      <trkpt lat="46.6363" lon="5.81441">
        <ele>521.17</ele>
        <time>2014-08-02T09:31:53Z</time>
      </trkpt>
      <trkpt lat="46.63672" lon="5.81353">
        <ele>520.21</ele>
        <time>2014-08-02T09:32:07Z</time>
      </trkpt>
      <trkpt lat="46.63718" lon="5.81278">
        <ele>520.21</ele>
        <time>2014-08-02T09:32:19Z</time>
      </trkpt>
      <trkpt lat="46.63776" lon="5.81188">
        <ele>520.21</ele>
        <time>2014-08-02T09:32:33Z</time>
      </trkpt>
      <trkpt lat="46.63852" lon="5.81109">
        <ele>519.25</ele>
        <time>2014-08-02T09:32:48Z</time>
      </trkpt>
      <trkpt lat="46.63923" lon="5.8106">
        <ele>516.37</ele>
        <time>2014-08-02T09:33:00Z</time>
      </trkpt>
      <trkpt lat="46.63992" lon="5.81008">
        <ele>515.88</ele>
        <time>2014-08-02T09:33:10Z</time>
      </trkpt>
      <trkpt lat="46.64036" lon="5.8098">
        <ele>515.88</ele>
        <time>2014-08-02T09:33:17Z</time>
      </trkpt>
      <trkpt lat="46.64087" lon="5.80953">
        <ele>516.85</ele>
        <time>2014-08-02T09:33:26Z</time>
      </trkpt>
      <trkpt lat="46.64155" lon="5.80907">
        <ele>516.85</ele>
        <time>2014-08-02T09:33:40Z</time>
      </trkpt>
      <trkpt lat="46.64168" lon="5.80898">
        <ele>517.33</ele>
        <time>2014-08-02T09:33:43Z</time>
      </trkpt>
      <trkpt lat="46.64176" lon="5.80892">
        <ele>517.33</ele>
        <time>2014-08-02T09:33:45Z</time>
      </trkpt>
      <trkpt lat="46.64194" lon="5.80881">
        <ele>517.33</ele>
        <time>2014-08-02T09:33:49Z</time>
      </trkpt>
      <trkpt lat="46.64212" lon="5.80869">
        <ele>517.33</ele>
        <time>2014-08-02T09:33:53Z</time>
      </trkpt>
      <trkpt lat="46.64248" lon="5.80848">
        <ele>517.33</ele>
        <time>2014-08-02T09:34:01Z</time>
      </trkpt>
      <trkpt lat="46.64302" lon="5.80821">
        <ele>517.33</ele>
        <time>2014-08-02T09:34:12Z</time>
      </trkpt>
      <trkpt lat="46.64338" lon="5.80804">
        <ele>516.85</ele>
        <time>2014-08-02T09:34:19Z</time>
      </trkpt>
      <trkpt lat="46.64348" lon="5.80799">
        <ele>516.85</ele>
        <time>2014-08-02T09:34:21Z</time>
      </trkpt>
      <trkpt lat="46.64367" lon="5.80794">
        <ele>516.37</ele>
        <time>2014-08-02T09:34:25Z</time>
      </trkpt>
      <trkpt lat="46.64429" lon="5.80751">
        <ele>515.4</ele>
        <time>2014-08-02T09:34:36Z</time>
      </trkpt>
      <trkpt lat="46.64435" lon="5.80749">
        <ele>515.88</ele>
        <time>2014-08-02T09:34:37Z</time>
      </trkpt>
      <trkpt lat="46.64466" lon="5.80743">
        <ele>515.88</ele>
        <time>2014-08-02T09:34:42Z</time>
      </trkpt>
      <trkpt lat="46.64487" lon="5.80739">
        <ele>515.4</ele>
        <time>2014-08-02T09:34:46Z</time>
      </trkpt>
      <trkpt lat="46.64503" lon="5.80743">
        <ele>515.88</ele>
        <time>2014-08-02T09:34:49Z</time>
      </trkpt>
      <trkpt lat="46.64538" lon="5.8076">
        <ele>516.37</ele>
        <time>2014-08-02T09:34:55Z</time>
      </trkpt>
      <trkpt lat="46.64558" lon="5.80762">
        <ele>516.37</ele>
        <time>2014-08-02T09:34:59Z</time>
      </trkpt>
      <trkpt lat="46.64577" lon="5.80758">
        <ele>517.33</ele>
        <time>2014-08-02T09:35:03Z</time>
      </trkpt>
      <trkpt lat="46.64617" lon="5.80743">
        <ele>517.81</ele>
        <time>2014-08-02T09:35:12Z</time>
      </trkpt>
      <trkpt lat="46.64654" lon="5.80713">
        <ele>519.25</ele>
        <time>2014-08-02T09:35:23Z</time>
      </trkpt>
      <trkpt lat="46.64681" lon="5.80688">
        <ele>520.69</ele>
        <time>2014-08-02T09:35:32Z</time>
      </trkpt>
      <trkpt lat="46.64734" lon="5.80657">
        <ele>521.65</ele>
        <time>2014-08-02T09:35:44Z</time>
      </trkpt>
      <trkpt lat="46.64739" lon="5.80655">
        <ele>521.65</ele>
        <time>2014-08-02T09:35:45Z</time>
      </trkpt>
      <trkpt lat="46.64756" lon="5.80639">
        <ele>521.65</ele>
        <time>2014-08-02T09:35:50Z</time>
      </trkpt>
      <trkpt lat="46.64768" lon="5.80626">
        <ele>521.65</ele>
        <time>2014-08-02T09:35:53Z</time>
      </trkpt>
      <trkpt lat="46.64788" lon="5.80605">
        <ele>521.65</ele>
        <time>2014-08-02T09:35:57Z</time>
      </trkpt>
      <trkpt lat="46.64811" lon="5.80577">
        <ele>520.69</ele>
        <time>2014-08-02T09:36:02Z</time>
      </trkpt>
      <trkpt lat="46.64823" lon="5.8056">
        <ele>520.69</ele>
        <time>2014-08-02T09:36:05Z</time>
      </trkpt>
      <trkpt lat="46.6483" lon="5.80545">
        <ele>520.69</ele>
        <time>2014-08-02T09:36:07Z</time>
      </trkpt>
      <trkpt lat="46.64839" lon="5.80516">
        <ele>520.69</ele>
        <time>2014-08-02T09:36:11Z</time>
      </trkpt>
      <trkpt lat="46.64843" lon="5.80487">
        <ele>521.17</ele>
        <time>2014-08-02T09:36:15Z</time>
      </trkpt>
      <trkpt lat="46.64843" lon="5.80434">
        <ele>520.69</ele>
        <time>2014-08-02T09:36:22Z</time>
      </trkpt>
      <trkpt lat="46.64854" lon="5.80329">
        <ele>517.81</ele>
        <time>2014-08-02T09:36:33Z</time>
      </trkpt>
      <trkpt lat="46.64861" lon="5.80256">
        <ele>516.85</ele>
        <time>2014-08-02T09:36:40Z</time>
      </trkpt>
      <trkpt lat="46.64896" lon="5.8014">
        <ele>514.92</ele>
        <time>2014-08-02T09:36:53Z</time>
      </trkpt>
      <trkpt lat="46.64908" lon="5.80106">
        <ele>514.92</ele>
        <time>2014-08-02T09:36:57Z</time>
      </trkpt>
      <trkpt lat="46.64923" lon="5.80065">
        <ele>514.92</ele>
        <time>2014-08-02T09:37:02Z</time>
      </trkpt>
      <trkpt lat="46.64932" lon="5.8004">
        <ele>514.44</ele>
        <time>2014-08-02T09:37:05Z</time>
      </trkpt>
      <trkpt lat="46.64952" lon="5.79993">
        <ele>514.44</ele>
        <time>2014-08-02T09:37:11Z</time>
      </trkpt>
      <trkpt lat="46.64989" lon="5.79902">
        <ele>514.44</ele>
        <time>2014-08-02T09:37:23Z</time>
      </trkpt>
      <trkpt lat="46.65008" lon="5.79859">
        <ele>514.44</ele>
        <time>2014-08-02T09:37:29Z</time>
      </trkpt>
      <trkpt lat="46.65035" lon="5.79817">
        <ele>514.92</ele>
        <time>2014-08-02T09:37:36Z</time>
      </trkpt>
      <trkpt lat="46.6508" lon="5.79722">
        <ele>514.44</ele>
        <time>2014-08-02T09:37:50Z</time>
      </trkpt>
      <trkpt lat="46.65096" lon="5.79667">
        <ele>514.44</ele>
        <time>2014-08-02T09:37:57Z</time>
      </trkpt>
      <trkpt lat="46.65107" lon="5.79619">
        <ele>513.96</ele>
        <time>2014-08-02T09:38:03Z</time>
      </trkpt>
      <trkpt lat="46.65139" lon="5.79512">
        <ele>513.96</ele>
        <time>2014-08-02T09:38:17Z</time>
      </trkpt>
      <trkpt lat="46.65144" lon="5.79498">
        <ele>513.96</ele>
        <time>2014-08-02T09:38:19Z</time>
      </trkpt>
      <trkpt lat="46.65182" lon="5.794">
        <ele>514.92</ele>
        <time>2014-08-02T09:38:34Z</time>
      </trkpt>
      <trkpt lat="46.65194" lon="5.79368">
        <ele>514.44</ele>
        <time>2014-08-02T09:38:39Z</time>
      </trkpt>
      <trkpt lat="46.65206" lon="5.79331">
        <ele>515.4</ele>
        <time>2014-08-02T09:38:45Z</time>
      </trkpt>
      <trkpt lat="46.6521" lon="5.79319">
        <ele>515.88</ele>
        <time>2014-08-02T09:38:47Z</time>
      </trkpt>
      <trkpt lat="46.65243" lon="5.79236">
        <ele>516.37</ele>
        <time>2014-08-02T09:39:02Z</time>
      </trkpt>
      <trkpt lat="46.65245" lon="5.7923">
        <ele>516.37</ele>
        <time>2014-08-02T09:39:03Z</time>
      </trkpt>
      <trkpt lat="46.65252" lon="5.79208">
        <ele>516.85</ele>
        <time>2014-08-02T09:39:07Z</time>
      </trkpt>
      <trkpt lat="46.65289" lon="5.79113">
        <ele>517.81</ele>
        <time>2014-08-02T09:39:24Z</time>
      </trkpt>
      <trkpt lat="46.65307" lon="5.79067">
        <ele>519.25</ele>
        <time>2014-08-02T09:39:33Z</time>
      </trkpt>
      <trkpt lat="46.65319" lon="5.79038">
        <ele>520.69</ele>
        <time>2014-08-02T09:39:39Z</time>
      </trkpt>
      <trkpt lat="46.65326" lon="5.79024">
        <ele>521.17</ele>
        <time>2014-08-02T09:39:42Z</time>
      </trkpt>
      <trkpt lat="46.65338" lon="5.78999">
        <ele>521.65</ele>
        <time>2014-08-02T09:39:47Z</time>
      </trkpt>
      <trkpt lat="46.6536" lon="5.78952">
        <ele>521.65</ele>
        <time>2014-08-02T09:39:56Z</time>
      </trkpt>
      <trkpt lat="46.6537" lon="5.78852">
        <ele>522.61</ele>
        <time>2014-08-02T09:40:12Z</time>
      </trkpt>
      <trkpt lat="46.6537" lon="5.78845">
        <ele>522.61</ele>
        <time>2014-08-02T09:40:13Z</time>
      </trkpt>
      <trkpt lat="46.65347" lon="5.78737">
        <ele>519.25</ele>
        <time>2014-08-02T09:40:26Z</time>
      </trkpt>
      <trkpt lat="46.65327" lon="5.78612">
        <ele>518.77</ele>
        <time>2014-08-02T09:40:40Z</time>
      </trkpt>
      <trkpt lat="46.65306" lon="5.78492">
        <ele>518.77</ele>
        <time>2014-08-02T09:40:56Z</time>
      </trkpt>
      <trkpt lat="46.65297" lon="5.78405">
        <ele>518.77</ele>
        <time>2014-08-02T09:41:07Z</time>
      </trkpt>
      <trkpt lat="46.65285" lon="5.78306">
        <ele>519.25</ele>
        <time>2014-08-02T09:41:21Z</time>
      </trkpt>
      <trkpt lat="46.65284" lon="5.78275">
        <ele>520.21</ele>
        <time>2014-08-02T09:41:26Z</time>
      </trkpt>
      <trkpt lat="46.65283" lon="5.78182">
        <ele>521.65</ele>
        <time>2014-08-02T09:41:42Z</time>
      </trkpt>
      <trkpt lat="46.65293" lon="5.78104">
        <ele>524.06</ele>
        <time>2014-08-02T09:41:58Z</time>
      </trkpt>
      <trkpt lat="46.65307" lon="5.78032">
        <ele>525.98</ele>
        <time>2014-08-02T09:42:13Z</time>
      </trkpt>
      <trkpt lat="46.65324" lon="5.7798">
        <ele>528.86</ele>
        <time>2014-08-02T09:42:27Z</time>
      </trkpt>
      <trkpt lat="46.65329" lon="5.77966">
        <ele>528.38</ele>
        <time>2014-08-02T09:42:37Z</time>
      </trkpt>
      <trkpt lat="46.6533" lon="5.77966">
        <ele>528.38</ele>
        <time>2014-08-02T09:42:52Z</time>
      </trkpt>
      <trkpt lat="46.6533" lon="5.77966">
        <ele>528.38</ele>
        <time>2014-08-02T09:43:12Z</time>
      </trkpt>
      <trkpt lat="46.6533" lon="5.77966">
        <ele>528.38</ele>
        <time>2014-08-02T09:43:35Z</time>
      </trkpt>
      <trkpt lat="46.6533" lon="5.77966">
        <ele>528.38</ele>
        <time>2014-08-02T09:43:58Z</time>
      </trkpt>
      <trkpt lat="46.65334" lon="5.77961">
        <ele>528.38</ele>
        <time>2014-08-02T09:44:20Z</time>
      </trkpt>
      <trkpt lat="46.65335" lon="5.7796">
        <ele>527.9</ele>
        <time>2014-08-02T09:44:21Z</time>
      </trkpt>
      <trkpt lat="46.65345" lon="5.77954">
        <ele>527.9</ele>
        <time>2014-08-02T09:44:25Z</time>
      </trkpt>
      <trkpt lat="46.6538" lon="5.77913">
        <ele>524.54</ele>
        <time>2014-08-02T09:44:34Z</time>
      </trkpt>
      <trkpt lat="46.65405" lon="5.77896">
        <ele>523.09</ele>
        <time>2014-08-02T09:44:38Z</time>
      </trkpt>
      <trkpt lat="46.65432" lon="5.77889">
        <ele>523.09</ele>
        <time>2014-08-02T09:44:42Z</time>
      </trkpt>
      <trkpt lat="46.65466" lon="5.77857">
        <ele>523.09</ele>
        <time>2014-08-02T09:44:51Z</time>
      </trkpt>
      <trkpt lat="46.65467" lon="5.77825">
        <ele>522.61</ele>
        <time>2014-08-02T09:44:58Z</time>
      </trkpt>
      <trkpt lat="46.65447" lon="5.77801">
        <ele>522.61</ele>
        <time>2014-08-02T09:45:03Z</time>
      </trkpt>
      <trkpt lat="46.65436" lon="5.77789">
        <ele>522.13</ele>
        <time>2014-08-02T09:45:06Z</time>
      </trkpt>
      <trkpt lat="46.65378" lon="5.77724">
        <ele>523.58</ele>
        <time>2014-08-02T09:45:24Z</time>
      </trkpt>
      <trkpt lat="46.65318" lon="5.77652">
        <ele>523.58</ele>
        <time>2014-08-02T09:45:42Z</time>
      </trkpt>
      <trkpt lat="46.65305" lon="5.77639">
        <ele>523.09</ele>
        <time>2014-08-02T09:45:45Z</time>
      </trkpt>
      <trkpt lat="46.65257" lon="5.77586">
        <ele>522.13</ele>
        <time>2014-08-02T09:45:56Z</time>
      </trkpt>
      <trkpt lat="46.6524" lon="5.77568">
        <ele>521.65</ele>
        <time>2014-08-02T09:46:00Z</time>
      </trkpt>
      <trkpt lat="46.65205" lon="5.77531">
        <ele>521.17</ele>
        <time>2014-08-02T09:46:08Z</time>
      </trkpt>
      <trkpt lat="46.65182" lon="5.77512">
        <ele>521.17</ele>
        <time>2014-08-02T09:46:13Z</time>
      </trkpt>
      <trkpt lat="46.65082" lon="5.7748">
        <ele>520.21</ele>
        <time>2014-08-02T09:46:32Z</time>
      </trkpt>
      <trkpt lat="46.6507" lon="5.77477">
        <ele>519.73</ele>
        <time>2014-08-02T09:46:34Z</time>
      </trkpt>
      <trkpt lat="46.64985" lon="5.77489">
        <ele>516.85</ele>
        <time>2014-08-02T09:46:46Z</time>
      </trkpt>
      <trkpt lat="46.64898" lon="5.77511">
        <ele>513.48</ele>
        <time>2014-08-02T09:46:57Z</time>
      </trkpt>
      <trkpt lat="46.64824" lon="5.77528">
        <ele>510.12</ele>
        <time>2014-08-02T09:47:06Z</time>
      </trkpt>
      <trkpt lat="46.648" lon="5.77535">
        <ele>510.12</ele>
        <time>2014-08-02T09:47:09Z</time>
      </trkpt>
      <trkpt lat="46.64758" lon="5.77502">
        <ele>510.6</ele>
        <time>2014-08-02T09:47:16Z</time>
      </trkpt>
      <trkpt lat="46.6476" lon="5.77455">
        <ele>512.52</ele>
        <time>2014-08-02T09:47:23Z</time>
      </trkpt>
      <trkpt lat="46.64763" lon="5.77446">
        <ele>513</ele>
        <time>2014-08-02T09:47:25Z</time>
      </trkpt>
      <trkpt lat="46.64782" lon="5.77386">
        <ele>515.88</ele>
        <time>2014-08-02T09:47:41Z</time>
      </trkpt>
      <trkpt lat="46.64803" lon="5.77329">
        <ele>517.81</ele>
        <time>2014-08-02T09:47:57Z</time>
      </trkpt>
      <trkpt lat="46.64823" lon="5.77278">
        <ele>519.73</ele>
        <time>2014-08-02T09:48:12Z</time>
      </trkpt>
      <trkpt lat="46.6484" lon="5.77234">
        <ele>521.17</ele>
        <time>2014-08-02T09:48:25Z</time>
      </trkpt>
      <trkpt lat="46.64855" lon="5.77192">
        <ele>522.61</ele>
        <time>2014-08-02T09:48:38Z</time>
      </trkpt>
      <trkpt lat="46.64872" lon="5.77154">
        <ele>524.06</ele>
        <time>2014-08-02T09:48:50Z</time>
      </trkpt>
      <trkpt lat="46.64889" lon="5.77113">
        <ele>525.5</ele>
        <time>2014-08-02T09:49:03Z</time>
      </trkpt>
      <trkpt lat="46.64895" lon="5.77059">
        <ele>527.42</ele>
        <time>2014-08-02T09:49:18Z</time>
      </trkpt>
      <trkpt lat="46.64874" lon="5.77017">
        <ele>528.86</ele>
        <time>2014-08-02T09:49:32Z</time>
      </trkpt>
      <trkpt lat="46.64848" lon="5.76986">
        <ele>529.82</ele>
        <time>2014-08-02T09:49:46Z</time>
      </trkpt>
      <trkpt lat="46.64827" lon="5.76961">
        <ele>533.67</ele>
        <time>2014-08-02T09:49:59Z</time>
      </trkpt>
      <trkpt lat="46.64805" lon="5.76917">
        <ele>533.19</ele>
        <time>2014-08-02T09:50:14Z</time>
      </trkpt>
      <trkpt lat="46.64799" lon="5.76867">
        <ele>534.63</ele>
        <time>2014-08-02T09:50:27Z</time>
      </trkpt>
      <trkpt lat="46.64796" lon="5.76804">
        <ele>536.07</ele>
        <time>2014-08-02T09:50:43Z</time>
      </trkpt>
      <trkpt lat="46.64784" lon="5.76746">
        <ele>536.55</ele>
        <time>2014-08-02T09:50:56Z</time>
      </trkpt>
      <trkpt lat="46.64759" lon="5.76677">
        <ele>536.07</ele>
        <time>2014-08-02T09:51:08Z</time>
      </trkpt>
      <trkpt lat="46.64726" lon="5.76536">
        <ele>534.63</ele>
        <time>2014-08-02T09:51:26Z</time>
      </trkpt>
      <trkpt lat="46.6473" lon="5.76399">
        <ele>531.75</ele>
        <time>2014-08-02T09:51:40Z</time>
      </trkpt>
      <trkpt lat="46.64767" lon="5.76209">
        <ele>529.34</ele>
        <time>2014-08-02T09:51:58Z</time>
      </trkpt>
      <trkpt lat="46.64776" lon="5.76083">
        <ele>527.9</ele>
        <time>2014-08-02T09:52:10Z</time>
      </trkpt>
      <trkpt lat="46.64737" lon="5.75972">
        <ele>526.94</ele>
        <time>2014-08-02T09:52:23Z</time>
      </trkpt>
      <trkpt lat="46.64695" lon="5.75898">
        <ele>526.94</ele>
        <time>2014-08-02T09:52:34Z</time>
      </trkpt>
      <trkpt lat="46.64682" lon="5.75883">
        <ele>526.94</ele>
        <time>2014-08-02T09:52:37Z</time>
      </trkpt>
      <trkpt lat="46.64621" lon="5.7579">
        <ele>525.5</ele>
        <time>2014-08-02T09:52:53Z</time>
      </trkpt>
      <trkpt lat="46.646" lon="5.7576">
        <ele>525.02</ele>
        <time>2014-08-02T09:52:58Z</time>
      </trkpt>
      <trkpt lat="46.64582" lon="5.75704">
        <ele>524.54</ele>
        <time>2014-08-02T09:53:05Z</time>
      </trkpt>
      <trkpt lat="46.6457" lon="5.75674">
        <ele>524.54</ele>
        <time>2014-08-02T09:53:09Z</time>
      </trkpt>
      <trkpt lat="46.64547" lon="5.75649">
        <ele>524.06</ele>
        <time>2014-08-02T09:53:14Z</time>
      </trkpt>
      <trkpt lat="46.64534" lon="5.75646">
        <ele>523.58</ele>
        <time>2014-08-02T09:53:16Z</time>
      </trkpt>
      <trkpt lat="46.64509" lon="5.75643">
        <ele>523.09</ele>
        <time>2014-08-02T09:53:20Z</time>
      </trkpt>
      <trkpt lat="46.64466" lon="5.75624">
        <ele>522.13</ele>
        <time>2014-08-02T09:53:27Z</time>
      </trkpt>
      <trkpt lat="46.6437" lon="5.75525">
        <ele>520.69</ele>
        <time>2014-08-02T09:53:46Z</time>
      </trkpt>
      <trkpt lat="46.64329" lon="5.75483">
        <ele>520.69</ele>
        <time>2014-08-02T09:53:54Z</time>
      </trkpt>
      <trkpt lat="46.64283" lon="5.75449">
        <ele>519.25</ele>
        <time>2014-08-02T09:54:02Z</time>
      </trkpt>
      <trkpt lat="46.64199" lon="5.75392">
        <ele>517.81</ele>
        <time>2014-08-02T09:54:16Z</time>
      </trkpt>
      <trkpt lat="46.6418" lon="5.75381">
        <ele>517.81</ele>
        <time>2014-08-02T09:54:19Z</time>
      </trkpt>
      <trkpt lat="46.64084" lon="5.75299">
        <ele>515.88</ele>
        <time>2014-08-02T09:54:35Z</time>
      </trkpt>
      <trkpt lat="46.6398" lon="5.75225">
        <ele>513.96</ele>
        <time>2014-08-02T09:54:52Z</time>
      </trkpt>
      <trkpt lat="46.63895" lon="5.75188">
        <ele>512.52</ele>
        <time>2014-08-02T09:55:05Z</time>
      </trkpt>
      <trkpt lat="46.63875" lon="5.7518">
        <ele>512.52</ele>
        <time>2014-08-02T09:55:08Z</time>
      </trkpt>
      <trkpt lat="46.63785" lon="5.7517">
        <ele>511.08</ele>
        <time>2014-08-02T09:55:22Z</time>
      </trkpt>
      <trkpt lat="46.63705" lon="5.75208">
        <ele>509.64</ele>
        <time>2014-08-02T09:55:36Z</time>
      </trkpt>
      <trkpt lat="46.63699" lon="5.75212">
        <ele>509.16</ele>
        <time>2014-08-02T09:55:37Z</time>
      </trkpt>
      <trkpt lat="46.63695" lon="5.75215">
        <ele>509.16</ele>
        <time>2014-08-02T09:55:38Z</time>
      </trkpt>
      <trkpt lat="46.63636" lon="5.75268">
        <ele>508.19</ele>
        <time>2014-08-02T09:55:54Z</time>
      </trkpt>
      <trkpt lat="46.63605" lon="5.75293">
        <ele>507.71</ele>
        <time>2014-08-02T09:56:02Z</time>
      </trkpt>
      <trkpt lat="46.63591" lon="5.75298">
        <ele>507.71</ele>
        <time>2014-08-02T09:56:05Z</time>
      </trkpt>
      <trkpt lat="46.63567" lon="5.75294">
        <ele>507.23</ele>
        <time>2014-08-02T09:56:10Z</time>
      </trkpt>
      <trkpt lat="46.6353" lon="5.75262">
        <ele>507.23</ele>
        <time>2014-08-02T09:56:20Z</time>
      </trkpt>
      <trkpt lat="46.63481" lon="5.75204">
        <ele>506.27</ele>
        <time>2014-08-02T09:56:35Z</time>
      </trkpt>
      <trkpt lat="46.63471" lon="5.75187">
        <ele>506.27</ele>
        <time>2014-08-02T09:56:38Z</time>
      </trkpt>
      <trkpt lat="46.63463" lon="5.75168">
        <ele>506.27</ele>
        <time>2014-08-02T09:56:41Z</time>
      </trkpt>
      <trkpt lat="46.63458" lon="5.75147">
        <ele>506.75</ele>
        <time>2014-08-02T09:56:44Z</time>
      </trkpt>
      <trkpt lat="46.63457" lon="5.75134">
        <ele>506.75</ele>
        <time>2014-08-02T09:56:46Z</time>
      </trkpt>
      <trkpt lat="46.63452" lon="5.75082">
        <ele>506.75</ele>
        <time>2014-08-02T09:56:54Z</time>
      </trkpt>
      <trkpt lat="46.63443" lon="5.75027">
        <ele>507.23</ele>
        <time>2014-08-02T09:57:02Z</time>
      </trkpt>
      <trkpt lat="46.63431" lon="5.74916">
        <ele>508.19</ele>
        <time>2014-08-02T09:57:18Z</time>
      </trkpt>
      <trkpt lat="46.63423" lon="5.7489">
        <ele>508.19</ele>
        <time>2014-08-02T09:57:22Z</time>
      </trkpt>
      <trkpt lat="46.63418" lon="5.74879">
        <ele>508.19</ele>
        <time>2014-08-02T09:57:24Z</time>
      </trkpt>
      <trkpt lat="46.63408" lon="5.74865">
        <ele>508.19</ele>
        <time>2014-08-02T09:57:27Z</time>
      </trkpt>
      <trkpt lat="46.63401" lon="5.74857">
        <ele>508.19</ele>
        <time>2014-08-02T09:57:29Z</time>
      </trkpt>
      <trkpt lat="46.63387" lon="5.74846">
        <ele>509.16</ele>
        <time>2014-08-02T09:57:33Z</time>
      </trkpt>
      <trkpt lat="46.63332" lon="5.74838">
        <ele>510.6</ele>
        <time>2014-08-02T09:57:47Z</time>
      </trkpt>
      <trkpt lat="46.63274" lon="5.74848">
        <ele>512.04</ele>
        <time>2014-08-02T09:58:03Z</time>
      </trkpt>
      <trkpt lat="46.63216" lon="5.74865">
        <ele>513.48</ele>
        <time>2014-08-02T09:58:20Z</time>
      </trkpt>
      <trkpt lat="46.63161" lon="5.74878">
        <ele>514.44</ele>
        <time>2014-08-02T09:58:37Z</time>
      </trkpt>
      <trkpt lat="46.63108" lon="5.74895">
        <ele>516.37</ele>
        <time>2014-08-02T09:58:54Z</time>
      </trkpt>
      <trkpt lat="46.63065" lon="5.74913">
        <ele>517.81</ele>
        <time>2014-08-02T09:59:08Z</time>
      </trkpt>
      <trkpt lat="46.6302" lon="5.74939">
        <ele>518.77</ele>
        <time>2014-08-02T09:59:23Z</time>
      </trkpt>
      <trkpt lat="46.62975" lon="5.74956">
        <ele>520.21</ele>
        <time>2014-08-02T09:59:37Z</time>
      </trkpt>
      <trkpt lat="46.62918" lon="5.74967">
        <ele>522.61</ele>
        <time>2014-08-02T09:59:55Z</time>
      </trkpt>
      <trkpt lat="46.62859" lon="5.74986">
        <ele>523.58</ele>
        <time>2014-08-02T10:00:12Z</time>
      </trkpt>
      <trkpt lat="46.62786" lon="5.75025">
        <ele>524.54</ele>
        <time>2014-08-02T10:00:31Z</time>
      </trkpt>
      <trkpt lat="46.62738" lon="5.75069">
        <ele>524.54</ele>
        <time>2014-08-02T10:00:44Z</time>
      </trkpt>
      <trkpt lat="46.6272" lon="5.75086">
        <ele>525.02</ele>
        <time>2014-08-02T10:00:49Z</time>
      </trkpt>
      <trkpt lat="46.62652" lon="5.75148">
        <ele>525.02</ele>
        <time>2014-08-02T10:01:06Z</time>
      </trkpt>
      <trkpt lat="46.62637" lon="5.75165">
        <ele>525.5</ele>
        <time>2014-08-02T10:01:10Z</time>
      </trkpt>
      <trkpt lat="46.62631" lon="5.75175">
        <ele>525.98</ele>
        <time>2014-08-02T10:01:12Z</time>
      </trkpt>
      <trkpt lat="46.62567" lon="5.75254">
        <ele>526.94</ele>
        <time>2014-08-02T10:01:31Z</time>
      </trkpt>
      <trkpt lat="46.62555" lon="5.75267">
        <ele>526.46</ele>
        <time>2014-08-02T10:01:34Z</time>
      </trkpt>
      <trkpt lat="46.62516" lon="5.75292">
        <ele>526.94</ele>
        <time>2014-08-02T10:01:43Z</time>
      </trkpt>
      <trkpt lat="46.62463" lon="5.75269">
        <ele>527.9</ele>
        <time>2014-08-02T10:01:55Z</time>
      </trkpt>
      <trkpt lat="46.62447" lon="5.75258">
        <ele>528.38</ele>
        <time>2014-08-02T10:01:59Z</time>
      </trkpt>
      <trkpt lat="46.62399" lon="5.75242">
        <ele>527.9</ele>
        <time>2014-08-02T10:02:09Z</time>
      </trkpt>
      <trkpt lat="46.62368" lon="5.75211">
        <ele>526.94</ele>
        <time>2014-08-02T10:02:16Z</time>
      </trkpt>
      <trkpt lat="46.62361" lon="5.75198">
        <ele>527.42</ele>
        <time>2014-08-02T10:02:18Z</time>
      </trkpt>
      <trkpt lat="46.62329" lon="5.75055">
        <ele>526.46</ele>
        <time>2014-08-02T10:02:36Z</time>
      </trkpt>
      <trkpt lat="46.62301" lon="5.74908">
        <ele>525.5</ele>
        <time>2014-08-02T10:02:52Z</time>
      </trkpt>
      <trkpt lat="46.62256" lon="5.74778">
        <ele>524.06</ele>
        <time>2014-08-02T10:03:07Z</time>
      </trkpt>
      <trkpt lat="46.62187" lon="5.7466">
        <ele>523.58</ele>
        <time>2014-08-02T10:03:24Z</time>
      </trkpt>
      <trkpt lat="46.62119" lon="5.74549">
        <ele>523.09</ele>
        <time>2014-08-02T10:03:41Z</time>
      </trkpt>
      <trkpt lat="46.6205" lon="5.74474">
        <ele>521.17</ele>
        <time>2014-08-02T10:03:55Z</time>
      </trkpt>
      <trkpt lat="46.61987" lon="5.74423">
        <ele>517.33</ele>
        <time>2014-08-02T10:04:05Z</time>
      </trkpt>
      <trkpt lat="46.6194" lon="5.74359">
        <ele>514.44</ele>
        <time>2014-08-02T10:04:13Z</time>
      </trkpt>
      <trkpt lat="46.61901" lon="5.74246">
        <ele>511.56</ele>
        <time>2014-08-02T10:04:23Z</time>
      </trkpt>
      <trkpt lat="46.61865" lon="5.74174">
        <ele>508.67</ele>
        <time>2014-08-02T10:04:30Z</time>
      </trkpt>
      <trkpt lat="46.61813" lon="5.74089">
        <ele>505.31</ele>
        <time>2014-08-02T10:04:39Z</time>
      </trkpt>
      <trkpt lat="46.61756" lon="5.73993">
        <ele>501.95</ele>
        <time>2014-08-02T10:04:49Z</time>
      </trkpt>
      <trkpt lat="46.61691" lon="5.73935">
        <ele>501.46</ele>
        <time>2014-08-02T10:04:59Z</time>
      </trkpt>
      <trkpt lat="46.61608" lon="5.73857">
        <ele>499.06</ele>
        <time>2014-08-02T10:05:12Z</time>
      </trkpt>
      <trkpt lat="46.61538" lon="5.73762">
        <ele>496.18</ele>
        <time>2014-08-02T10:05:24Z</time>
      </trkpt>
      <trkpt lat="46.61475" lon="5.73651">
        <ele>492.81</ele>
        <time>2014-08-02T10:05:36Z</time>
      </trkpt>
      <trkpt lat="46.61426" lon="5.73542">
        <ele>489.93</ele>
        <time>2014-08-02T10:05:47Z</time>
      </trkpt>
      <trkpt lat="46.61399" lon="5.73499">
        <ele>488.49</ele>
        <time>2014-08-02T10:05:52Z</time>
      </trkpt>
      <trkpt lat="46.6133" lon="5.73437">
        <ele>484.64</ele>
        <time>2014-08-02T10:06:03Z</time>
      </trkpt>
      <trkpt lat="46.61312" lon="5.73422">
        <ele>485.6</ele>
        <time>2014-08-02T10:06:06Z</time>
      </trkpt>
      <trkpt lat="46.61231" lon="5.73305">
        <ele>482.24</ele>
        <time>2014-08-02T10:06:23Z</time>
      </trkpt>
      <trkpt lat="46.61222" lon="5.73291">
        <ele>482.24</ele>
        <time>2014-08-02T10:06:25Z</time>
      </trkpt>
      <trkpt lat="46.61177" lon="5.73169">
        <ele>479.84</ele>
        <time>2014-08-02T10:06:39Z</time>
      </trkpt>
      <trkpt lat="46.61124" lon="5.73082">
        <ele>477.43</ele>
        <time>2014-08-02T10:06:51Z</time>
      </trkpt>
      <trkpt lat="46.61026" lon="5.72983">
        <ele>474.55</ele>
        <time>2014-08-02T10:07:09Z</time>
      </trkpt>
      <trkpt lat="46.60973" lon="5.72933">
        <ele>471.18</ele>
        <time>2014-08-02T10:07:17Z</time>
      </trkpt>
      <trkpt lat="46.60965" lon="5.72928">
        <ele>470.7</ele>
        <time>2014-08-02T10:07:18Z</time>
      </trkpt>
      <trkpt lat="46.60912" lon="5.72925">
        <ele>466.86</ele>
        <time>2014-08-02T10:07:24Z</time>
      </trkpt>
      <trkpt lat="46.60904" lon="5.72928">
        <ele>466.86</ele>
        <time>2014-08-02T10:07:25Z</time>
      </trkpt>
      <trkpt lat="46.60808" lon="5.72984">
        <ele>464.45</ele>
        <time>2014-08-02T10:07:37Z</time>
      </trkpt>
      <trkpt lat="46.60745" lon="5.72987">
        <ele>464.93</ele>
        <time>2014-08-02T10:07:46Z</time>
      </trkpt>
      <trkpt lat="46.60671" lon="5.72939">
        <ele>465.9</ele>
        <time>2014-08-02T10:08:01Z</time>
      </trkpt>
      <trkpt lat="46.60598" lon="5.7289">
        <ele>467.82</ele>
        <time>2014-08-02T10:08:19Z</time>
      </trkpt>
      <trkpt lat="46.60563" lon="5.72851">
        <ele>468.78</ele>
        <time>2014-08-02T10:08:33Z</time>
      </trkpt>
      <trkpt lat="46.6054" lon="5.72794">
        <ele>471.66</ele>
        <time>2014-08-02T10:08:50Z</time>
      </trkpt>
      <trkpt lat="46.6052" lon="5.72746">
        <ele>473.59</ele>
        <time>2014-08-02T10:09:05Z</time>
      </trkpt>
      <trkpt lat="46.60491" lon="5.72708">
        <ele>475.51</ele>
        <time>2014-08-02T10:09:21Z</time>
      </trkpt>
      <trkpt lat="46.60449" lon="5.72679">
        <ele>477.91</ele>
        <time>2014-08-02T10:09:39Z</time>
      </trkpt>
      <trkpt lat="46.60404" lon="5.72651">
        <ele>479.84</ele>
        <time>2014-08-02T10:09:58Z</time>
      </trkpt>
      <trkpt lat="46.60354" lon="5.72617">
        <ele>482.24</ele>
        <time>2014-08-02T10:10:19Z</time>
      </trkpt>
      <trkpt lat="46.60301" lon="5.72584">
        <ele>484.16</ele>
        <time>2014-08-02T10:10:40Z</time>
      </trkpt>
      <trkpt lat="46.60266" lon="5.72557">
        <ele>485.12</ele>
        <time>2014-08-02T10:10:54Z</time>
      </trkpt>
      <trkpt lat="46.60206" lon="5.72502">
        <ele>486.08</ele>
        <time>2014-08-02T10:11:14Z</time>
      </trkpt>
      <trkpt lat="46.60158" lon="5.72455">
        <ele>486.56</ele>
        <time>2014-08-02T10:11:29Z</time>
      </trkpt>
      <trkpt lat="46.60108" lon="5.72404">
        <ele>487.05</ele>
        <time>2014-08-02T10:11:44Z</time>
      </trkpt>
      <trkpt lat="46.60047" lon="5.72345">
        <ele>487.05</ele>
        <time>2014-08-02T10:12:02Z</time>
      </trkpt>
      <trkpt lat="46.59982" lon="5.72279">
        <ele>487.05</ele>
        <time>2014-08-02T10:12:20Z</time>
      </trkpt>
      <trkpt lat="46.59899" lon="5.72199">
        <ele>486.08</ele>
        <time>2014-08-02T10:12:42Z</time>
      </trkpt>
      <trkpt lat="46.59886" lon="5.72188">
        <ele>486.08</ele>
        <time>2014-08-02T10:12:45Z</time>
      </trkpt>
      <trkpt lat="46.59868" lon="5.72178">
        <ele>485.12</ele>
        <time>2014-08-02T10:12:49Z</time>
      </trkpt>
      <trkpt lat="46.59851" lon="5.72174">
        <ele>485.12</ele>
        <time>2014-08-02T10:12:53Z</time>
      </trkpt>
      <trkpt lat="46.59834" lon="5.72174">
        <ele>485.12</ele>
        <time>2014-08-02T10:12:57Z</time>
      </trkpt>
      <trkpt lat="46.59816" lon="5.72178">
        <ele>484.64</ele>
        <time>2014-08-02T10:13:01Z</time>
      </trkpt>
      <trkpt lat="46.59802" lon="5.72186">
        <ele>484.16</ele>
        <time>2014-08-02T10:13:04Z</time>
      </trkpt>
      <trkpt lat="46.59783" lon="5.72204">
        <ele>483.68</ele>
        <time>2014-08-02T10:13:08Z</time>
      </trkpt>
      <trkpt lat="46.59734" lon="5.72316">
        <ele>480.8</ele>
        <time>2014-08-02T10:13:22Z</time>
      </trkpt>
      <trkpt lat="46.59722" lon="5.72365">
        <ele>479.35</ele>
        <time>2014-08-02T10:13:27Z</time>
      </trkpt>
      <trkpt lat="46.59707" lon="5.72494">
        <ele>475.99</ele>
        <time>2014-08-02T10:13:39Z</time>
      </trkpt>
      <trkpt lat="46.59688" lon="5.726">
        <ele>472.63</ele>
        <time>2014-08-02T10:13:48Z</time>
      </trkpt>
      <trkpt lat="46.59654" lon="5.72681">
        <ele>469.26</ele>
        <time>2014-08-02T10:13:56Z</time>
      </trkpt>
      <trkpt lat="46.59611" lon="5.72754">
        <ele>466.38</ele>
        <time>2014-08-02T10:14:04Z</time>
      </trkpt>
      <trkpt lat="46.59595" lon="5.72782">
        <ele>465.42</ele>
        <time>2014-08-02T10:14:07Z</time>
      </trkpt>
      <trkpt lat="46.59554" lon="5.72788">
        <ele>462.53</ele>
        <time>2014-08-02T10:14:12Z</time>
      </trkpt>
      <trkpt lat="46.59547" lon="5.72778">
        <ele>462.53</ele>
        <time>2014-08-02T10:14:13Z</time>
      </trkpt>
      <trkpt lat="46.59497" lon="5.72689">
        <ele>462.53</ele>
        <time>2014-08-02T10:14:25Z</time>
      </trkpt>
      <trkpt lat="46.59459" lon="5.72617">
        <ele>463.97</ele>
        <time>2014-08-02T10:14:40Z</time>
      </trkpt>
      <trkpt lat="46.59424" lon="5.7255">
        <ele>466.38</ele>
        <time>2014-08-02T10:14:58Z</time>
      </trkpt>
      <trkpt lat="46.59394" lon="5.72493">
        <ele>469.26</ele>
        <time>2014-08-02T10:15:17Z</time>
      </trkpt>
      <trkpt lat="46.59368" lon="5.72444">
        <ele>471.66</ele>
        <time>2014-08-02T10:15:34Z</time>
      </trkpt>
      <trkpt lat="46.59338" lon="5.72404">
        <ele>474.07</ele>
        <time>2014-08-02T10:15:51Z</time>
      </trkpt>
      <trkpt lat="46.59308" lon="5.72363">
        <ele>475.99</ele>
        <time>2014-08-02T10:16:08Z</time>
      </trkpt>
      <trkpt lat="46.59275" lon="5.72321">
        <ele>478.39</ele>
        <time>2014-08-02T10:16:25Z</time>
      </trkpt>
      <trkpt lat="46.59238" lon="5.72274">
        <ele>480.32</ele>
        <time>2014-08-02T10:16:44Z</time>
      </trkpt>
      <trkpt lat="46.59201" lon="5.72224">
        <ele>481.28</ele>
        <time>2014-08-02T10:17:03Z</time>
      </trkpt>
      <trkpt lat="46.59164" lon="5.72174">
        <ele>482.24</ele>
        <time>2014-08-02T10:17:20Z</time>
      </trkpt>
      <trkpt lat="46.59117" lon="5.72113">
        <ele>482.24</ele>
        <time>2014-08-02T10:17:38Z</time>
      </trkpt>
      <trkpt lat="46.59061" lon="5.72041">
        <ele>482.24</ele>
        <time>2014-08-02T10:17:57Z</time>
      </trkpt>
      <trkpt lat="46.59003" lon="5.71965">
        <ele>482.24</ele>
        <time>2014-08-02T10:18:16Z</time>
      </trkpt>
      <trkpt lat="46.58954" lon="5.71947">
        <ele>482.24</ele>
        <time>2014-08-02T10:18:30Z</time>
      </trkpt>
      <trkpt lat="46.5895" lon="5.71952">
        <ele>482.72</ele>
        <time>2014-08-02T10:18:38Z</time>
      </trkpt>
      <trkpt lat="46.5895" lon="5.71952">
        <ele>482.24</ele>
        <time>2014-08-02T10:19:05Z</time>
      </trkpt>
      <trkpt lat="46.5895" lon="5.71952">
        <ele>482.24</ele>
        <time>2014-08-02T10:19:10Z</time>
      </trkpt>
      <trkpt lat="46.58938" lon="5.71982">
        <ele>482.24</ele>
        <time>2014-08-02T10:19:18Z</time>
      </trkpt>
      <trkpt lat="46.58939" lon="5.72107">
        <ele>483.2</ele>
        <time>2014-08-02T10:19:38Z</time>
      </trkpt>
      <trkpt lat="46.58941" lon="5.72235">
        <ele>483.2</ele>
        <time>2014-08-02T10:19:57Z</time>
      </trkpt>
      <trkpt lat="46.5894" lon="5.72364">
        <ele>483.68</ele>
        <time>2014-08-02T10:20:16Z</time>
      </trkpt>
      <trkpt lat="46.5894" lon="5.72502">
        <ele>484.64</ele>
        <time>2014-08-02T10:20:37Z</time>
      </trkpt>
      <trkpt lat="46.5894" lon="5.72639">
        <ele>485.6</ele>
        <time>2014-08-02T10:20:58Z</time>
      </trkpt>
      <trkpt lat="46.5894" lon="5.72761">
        <ele>486.56</ele>
        <time>2014-08-02T10:21:17Z</time>
      </trkpt>
      <trkpt lat="46.5894" lon="5.72896">
        <ele>487.05</ele>
        <time>2014-08-02T10:21:38Z</time>
      </trkpt>
      <trkpt lat="46.58939" lon="5.73011">
        <ele>488.49</ele>
        <time>2014-08-02T10:21:56Z</time>
      </trkpt>
      <trkpt lat="46.58938" lon="5.731">
        <ele>490.41</ele>
        <time>2014-08-02T10:22:14Z</time>
      </trkpt>
      <trkpt lat="46.5893" lon="5.73177">
        <ele>492.81</ele>
        <time>2014-08-02T10:22:32Z</time>
      </trkpt>
      <trkpt lat="46.5891" lon="5.73243">
        <ele>495.22</ele>
        <time>2014-08-02T10:22:50Z</time>
      </trkpt>
      <trkpt lat="46.58887" lon="5.73304">
        <ele>497.62</ele>
        <time>2014-08-02T10:23:09Z</time>
      </trkpt>
      <trkpt lat="46.58868" lon="5.73354">
        <ele>499.54</ele>
        <time>2014-08-02T10:23:25Z</time>
      </trkpt>
      <trkpt lat="46.58848" lon="5.73406">
        <ele>502.43</ele>
        <time>2014-08-02T10:23:42Z</time>
      </trkpt>
      <trkpt lat="46.58829" lon="5.73465">
        <ele>505.31</ele>
        <time>2014-08-02T10:24:01Z</time>
      </trkpt>
      <trkpt lat="46.58814" lon="5.73521">
        <ele>507.23</ele>
        <time>2014-08-02T10:24:19Z</time>
      </trkpt>
      <trkpt lat="46.58797" lon="5.73578">
        <ele>509.64</ele>
        <time>2014-08-02T10:24:37Z</time>
      </trkpt>
      <trkpt lat="46.58781" lon="5.73635">
        <ele>512.52</ele>
        <time>2014-08-02T10:24:55Z</time>
      </trkpt>
      <trkpt lat="46.58765" lon="5.73693">
        <ele>514.92</ele>
        <time>2014-08-02T10:25:13Z</time>
      </trkpt>
      <trkpt lat="46.58749" lon="5.73745">
        <ele>517.81</ele>
        <time>2014-08-02T10:25:29Z</time>
      </trkpt>
      <trkpt lat="46.58728" lon="5.73802">
        <ele>520.21</ele>
        <time>2014-08-02T10:25:47Z</time>
      </trkpt>
      <trkpt lat="46.58705" lon="5.73855">
        <ele>522.13</ele>
        <time>2014-08-02T10:26:04Z</time>
      </trkpt>
      <trkpt lat="46.58678" lon="5.73916">
        <ele>524.06</ele>
        <time>2014-08-02T10:26:23Z</time>
      </trkpt>
      <trkpt lat="46.58646" lon="5.73972">
        <ele>525.5</ele>
        <time>2014-08-02T10:26:40Z</time>
      </trkpt>
      <trkpt lat="46.58605" lon="5.74044">
        <ele>526.46</ele>
        <time>2014-08-02T10:27:00Z</time>
      </trkpt>
      <trkpt lat="46.58569" lon="5.74111">
        <ele>527.42</ele>
        <time>2014-08-02T10:27:17Z</time>
      </trkpt>
      <trkpt lat="46.58534" lon="5.74172">
        <ele>528.86</ele>
        <time>2014-08-02T10:27:33Z</time>
      </trkpt>
      <trkpt lat="46.5849" lon="5.74247">
        <ele>530.3</ele>
        <time>2014-08-02T10:27:53Z</time>
      </trkpt>
      <trkpt lat="46.58448" lon="5.74321">
        <ele>531.75</ele>
        <time>2014-08-02T10:28:12Z</time>
      </trkpt>
      <trkpt lat="46.58399" lon="5.74407">
        <ele>533.67</ele>
        <time>2014-08-02T10:28:33Z</time>
      </trkpt>
      <trkpt lat="46.58357" lon="5.74478">
        <ele>535.59</ele>
        <time>2014-08-02T10:28:51Z</time>
      </trkpt>
      <trkpt lat="46.58312" lon="5.74553">
        <ele>536.55</ele>
        <time>2014-08-02T10:29:09Z</time>
      </trkpt>
      <trkpt lat="46.58263" lon="5.74636">
        <ele>537.03</ele>
        <time>2014-08-02T10:29:27Z</time>
      </trkpt>
      <trkpt lat="46.58198" lon="5.74698">
        <ele>537.51</ele>
        <time>2014-08-02T10:29:44Z</time>
      </trkpt>
      <trkpt lat="46.58157" lon="5.74703">
        <ele>537.51</ele>
        <time>2014-08-02T10:29:54Z</time>
      </trkpt>
      <trkpt lat="46.58144" lon="5.74705">
        <ele>537.51</ele>
        <time>2014-08-02T10:29:57Z</time>
      </trkpt>
      <trkpt lat="46.58061" lon="5.74713">
        <ele>537.51</ele>
        <time>2014-08-02T10:30:15Z</time>
      </trkpt>
      <trkpt lat="46.57981" lon="5.74722">
        <ele>537.99</ele>
        <time>2014-08-02T10:30:33Z</time>
      </trkpt>
      <trkpt lat="46.57917" lon="5.74729">
        <ele>538.48</ele>
        <time>2014-08-02T10:30:47Z</time>
      </trkpt>
      <trkpt lat="46.5788" lon="5.74733">
        <ele>538.48</ele>
        <time>2014-08-02T10:30:55Z</time>
      </trkpt>
      <trkpt lat="46.57794" lon="5.74726">
        <ele>538.96</ele>
        <time>2014-08-02T10:31:13Z</time>
      </trkpt>
      <trkpt lat="46.57725" lon="5.74718">
        <ele>539.44</ele>
        <time>2014-08-02T10:31:28Z</time>
      </trkpt>
      <trkpt lat="46.57642" lon="5.74709">
        <ele>539.92</ele>
        <time>2014-08-02T10:31:46Z</time>
      </trkpt>
      <trkpt lat="46.57588" lon="5.74718">
        <ele>539.92</ele>
        <time>2014-08-02T10:32:00Z</time>
      </trkpt>
      <trkpt lat="46.57521" lon="5.74733">
        <ele>537.51</ele>
        <time>2014-08-02T10:32:17Z</time>
      </trkpt>
      <trkpt lat="46.57462" lon="5.7474">
        <ele>536.07</ele>
        <time>2014-08-02T10:32:28Z</time>
      </trkpt>
      <trkpt lat="46.57427" lon="5.74735">
        <ele>534.63</ele>
        <time>2014-08-02T10:32:36Z</time>
      </trkpt>
      <trkpt lat="46.57417" lon="5.7473">
        <ele>534.63</ele>
        <time>2014-08-02T10:32:39Z</time>
      </trkpt>
      <trkpt lat="46.57408" lon="5.74767">
        <ele>533.19</ele>
        <time>2014-08-02T10:32:47Z</time>
      </trkpt>
      <trkpt lat="46.57417" lon="5.74813">
        <ele>533.19</ele>
        <time>2014-08-02T10:32:59Z</time>
      </trkpt>
      <trkpt lat="46.57418" lon="5.74813">
        <ele>533.19</ele>
        <time>2014-08-02T10:33:13Z</time>
      </trkpt>
      <trkpt lat="46.57418" lon="5.74816">
        <ele>533.19</ele>
        <time>2014-08-02T10:33:25Z</time>
      </trkpt>
      <trkpt lat="46.5741" lon="5.74815">
        <ele>532.23</ele>
        <time>2014-08-02T10:33:30Z</time>
      </trkpt>
      <trkpt lat="46.57393" lon="5.7482">
        <ele>531.75</ele>
        <time>2014-08-02T10:33:35Z</time>
      </trkpt>
      <trkpt lat="46.57388" lon="5.7481">
        <ele>531.75</ele>
        <time>2014-08-02T10:33:44Z</time>
      </trkpt>
      <trkpt lat="46.57387" lon="5.7481">
        <ele>531.27</ele>
        <time>2014-08-02T10:33:50Z</time>
      </trkpt>
      <trkpt lat="46.57407" lon="5.74787">
        <ele>533.67</ele>
        <time>2014-08-02T11:15:25Z</time>
      </trkpt>
      <trkpt lat="46.57408" lon="5.74787">
        <ele>533.67</ele>
        <time>2014-08-02T11:15:26Z</time>
      </trkpt>
      <trkpt lat="46.57387" lon="5.74807">
        <ele>532.71</ele>
        <time>2014-08-02T11:15:42Z</time>
      </trkpt>
      <trkpt lat="46.57384" lon="5.74791">
        <ele>531.75</ele>
        <time>2014-08-02T11:15:48Z</time>
      </trkpt>
      <trkpt lat="46.57373" lon="5.74723">
        <ele>533.19</ele>
        <time>2014-08-02T11:16:04Z</time>
      </trkpt>
      <trkpt lat="46.57378" lon="5.74705">
        <ele>533.19</ele>
        <time>2014-08-02T11:16:15Z</time>
      </trkpt>
      <trkpt lat="46.57378" lon="5.74702">
        <ele>533.19</ele>
        <time>2014-08-02T11:16:29Z</time>
      </trkpt>
      <trkpt lat="46.57377" lon="5.747">
        <ele>533.19</ele>
        <time>2014-08-02T11:16:37Z</time>
      </trkpt>
      <trkpt lat="46.57364" lon="5.74679">
        <ele>533.19</ele>
        <time>2014-08-02T11:16:46Z</time>
      </trkpt>
      <trkpt lat="46.57362" lon="5.74677">
        <ele>533.19</ele>
        <time>2014-08-02T11:16:47Z</time>
      </trkpt>
      <trkpt lat="46.57315" lon="5.74638">
        <ele>533.67</ele>
        <time>2014-08-02T11:17:03Z</time>
      </trkpt>
      <trkpt lat="46.57264" lon="5.7461">
        <ele>534.15</ele>
        <time>2014-08-02T11:17:18Z</time>
      </trkpt>
      <trkpt lat="46.57238" lon="5.74599">
        <ele>534.15</ele>
        <time>2014-08-02T11:17:25Z</time>
      </trkpt>
      <trkpt lat="46.57221" lon="5.74593">
        <ele>533.67</ele>
        <time>2014-08-02T11:17:29Z</time>
      </trkpt>
      <trkpt lat="46.57147" lon="5.74569">
        <ele>533.67</ele>
        <time>2014-08-02T11:17:45Z</time>
      </trkpt>
      <trkpt lat="46.57112" lon="5.74557">
        <ele>533.67</ele>
        <time>2014-08-02T11:17:52Z</time>
      </trkpt>
      <trkpt lat="46.57031" lon="5.74528">
        <ele>534.63</ele>
        <time>2014-08-02T11:18:10Z</time>
      </trkpt>
      <trkpt lat="46.56994" lon="5.74517">
        <ele>534.63</ele>
        <time>2014-08-02T11:18:18Z</time>
      </trkpt>
      <trkpt lat="46.56919" lon="5.74491">
        <ele>535.59</ele>
        <time>2014-08-02T11:18:35Z</time>
      </trkpt>
      <trkpt lat="46.5691" lon="5.74488">
        <ele>535.59</ele>
        <time>2014-08-02T11:18:37Z</time>
      </trkpt>
      <trkpt lat="46.56837" lon="5.74466">
        <ele>536.55</ele>
        <time>2014-08-02T11:18:54Z</time>
      </trkpt>
      <trkpt lat="46.56806" lon="5.74455">
        <ele>536.55</ele>
        <time>2014-08-02T11:19:01Z</time>
      </trkpt>
      <trkpt lat="46.5674" lon="5.74438">
        <ele>536.55</ele>
        <time>2014-08-02T11:19:15Z</time>
      </trkpt>
      <trkpt lat="46.56713" lon="5.74434">
        <ele>536.55</ele>
        <time>2014-08-02T11:19:21Z</time>
      </trkpt>
      <trkpt lat="46.56708" lon="5.74433">
        <ele>536.55</ele>
        <time>2014-08-02T11:19:22Z</time>
      </trkpt>
      <trkpt lat="46.56638" lon="5.74423">
        <ele>537.03</ele>
        <time>2014-08-02T11:19:37Z</time>
      </trkpt>
      <trkpt lat="46.5659" lon="5.74412">
        <ele>537.51</ele>
        <time>2014-08-02T11:19:48Z</time>
      </trkpt>
      <trkpt lat="46.56527" lon="5.74398">
        <ele>537.51</ele>
        <time>2014-08-02T11:20:02Z</time>
      </trkpt>
      <trkpt lat="46.56454" lon="5.7439">
        <ele>537.99</ele>
        <time>2014-08-02T11:20:17Z</time>
      </trkpt>
      <trkpt lat="46.56383" lon="5.74382">
        <ele>538.96</ele>
        <time>2014-08-02T11:20:33Z</time>
      </trkpt>
      <trkpt lat="46.56317" lon="5.74377">
        <ele>540.4</ele>
        <time>2014-08-02T11:20:49Z</time>
      </trkpt>
      <trkpt lat="46.56255" lon="5.7438">
        <ele>542.32</ele>
        <time>2014-08-02T11:21:06Z</time>
      </trkpt>
      <trkpt lat="46.56205" lon="5.74393">
        <ele>542.8</ele>
        <time>2014-08-02T11:21:20Z</time>
      </trkpt>
      <trkpt lat="46.5616" lon="5.74407">
        <ele>544.24</ele>
        <time>2014-08-02T11:21:33Z</time>
      </trkpt>
      <trkpt lat="46.56109" lon="5.74424">
        <ele>545.2</ele>
        <time>2014-08-02T11:21:48Z</time>
      </trkpt>
      <trkpt lat="46.56048" lon="5.74442">
        <ele>547.13</ele>
        <time>2014-08-02T11:22:06Z</time>
      </trkpt>
      <trkpt lat="46.56004" lon="5.74462">
        <ele>548.57</ele>
        <time>2014-08-02T11:22:21Z</time>
      </trkpt>
      <trkpt lat="46.56002" lon="5.74464">
        <ele>548.57</ele>
        <time>2014-08-02T11:22:22Z</time>
      </trkpt>
      <trkpt lat="46.55987" lon="5.74469">
        <ele>549.05</ele>
        <time>2014-08-02T11:22:35Z</time>
      </trkpt>
      <trkpt lat="46.55987" lon="5.74469">
        <ele>548.57</ele>
        <time>2014-08-02T11:22:58Z</time>
      </trkpt>
      <trkpt lat="46.55987" lon="5.74469">
        <ele>549.05</ele>
        <time>2014-08-02T11:23:27Z</time>
      </trkpt>
      <trkpt lat="46.55987" lon="5.74469">
        <ele>549.05</ele>
        <time>2014-08-02T11:23:52Z</time>
      </trkpt>
      <trkpt lat="46.55986" lon="5.74468">
        <ele>549.05</ele>
        <time>2014-08-02T11:23:53Z</time>
      </trkpt>
      <trkpt lat="46.56001" lon="5.74461">
        <ele>549.05</ele>
        <time>2014-08-02T11:24:01Z</time>
      </trkpt>
      <trkpt lat="46.56083" lon="5.74437">
        <ele>546.65</ele>
        <time>2014-08-02T11:24:18Z</time>
      </trkpt>
      <trkpt lat="46.56185" lon="5.74407">
        <ele>544.24</ele>
        <time>2014-08-02T11:24:34Z</time>
      </trkpt>
      <trkpt lat="46.56311" lon="5.74384">
        <ele>541.36</ele>
        <time>2014-08-02T11:24:52Z</time>
      </trkpt>
      <trkpt lat="46.56441" lon="5.74403">
        <ele>538.48</ele>
        <time>2014-08-02T11:25:10Z</time>
      </trkpt>
      <trkpt lat="46.5653" lon="5.74415">
        <ele>537.99</ele>
        <time>2014-08-02T11:25:23Z</time>
      </trkpt>
      <trkpt lat="46.56622" lon="5.74428">
        <ele>537.03</ele>
        <time>2014-08-02T11:25:37Z</time>
      </trkpt>
      <trkpt lat="46.56718" lon="5.74442">
        <ele>536.55</ele>
        <time>2014-08-02T11:25:52Z</time>
      </trkpt>
      <trkpt lat="46.56805" lon="5.74463">
        <ele>536.55</ele>
        <time>2014-08-02T11:26:06Z</time>
      </trkpt>
      <trkpt lat="46.56905" lon="5.74493">
        <ele>535.59</ele>
        <time>2014-08-02T11:26:22Z</time>
      </trkpt>
      <trkpt lat="46.57028" lon="5.74534">
        <ele>534.63</ele>
        <time>2014-08-02T11:26:41Z</time>
      </trkpt>
      <trkpt lat="46.57123" lon="5.74565">
        <ele>533.67</ele>
        <time>2014-08-02T11:26:56Z</time>
      </trkpt>
      <trkpt lat="46.57209" lon="5.74595">
        <ele>534.15</ele>
        <time>2014-08-02T11:27:11Z</time>
      </trkpt>
      <trkpt lat="46.57247" lon="5.74608">
        <ele>534.15</ele>
        <time>2014-08-02T11:27:18Z</time>
      </trkpt>
      <trkpt lat="46.57315" lon="5.74647">
        <ele>534.15</ele>
        <time>2014-08-02T11:27:31Z</time>
      </trkpt>
      <trkpt lat="46.57389" lon="5.74712">
        <ele>533.19</ele>
        <time>2014-08-02T11:27:46Z</time>
      </trkpt>
      <trkpt lat="46.57399" lon="5.74724">
        <ele>533.67</ele>
        <time>2014-08-02T11:27:49Z</time>
      </trkpt>
      <trkpt lat="46.57406" lon="5.74742">
        <ele>533.67</ele>
        <time>2014-08-02T11:27:52Z</time>
      </trkpt>
      <trkpt lat="46.57429" lon="5.74749">
        <ele>534.15</ele>
        <time>2014-08-02T11:27:59Z</time>
      </trkpt>
      <trkpt lat="46.57417" lon="5.74725">
        <ele>534.15</ele>
        <time>2014-08-02T11:28:06Z</time>
      </trkpt>
      <trkpt lat="46.57409" lon="5.74721">
        <ele>534.15</ele>
        <time>2014-08-02T11:28:08Z</time>
      </trkpt>
      <trkpt lat="46.57395" lon="5.74703">
        <ele>533.67</ele>
        <time>2014-08-02T11:28:13Z</time>
      </trkpt>
      <trkpt lat="46.57393" lon="5.74693">
        <ele>534.15</ele>
        <time>2014-08-02T11:28:16Z</time>
      </trkpt>
      <trkpt lat="46.57389" lon="5.74687">
        <ele>534.15</ele>
        <time>2014-08-02T11:28:19Z</time>
      </trkpt>
      <trkpt lat="46.57385" lon="5.74664">
        <ele>535.59</ele>
        <time>2014-08-02T11:28:29Z</time>
      </trkpt>
      <trkpt lat="46.57383" lon="5.74664">
        <ele>535.11</ele>
        <time>2014-08-02T11:28:47Z</time>
      </trkpt>
      <trkpt lat="46.57383" lon="5.74664">
        <ele>535.59</ele>
        <time>2014-08-02T11:28:48Z</time>
      </trkpt>
      <trkpt lat="46.57379" lon="5.74656">
        <ele>536.07</ele>
        <time>2014-08-02T11:28:53Z</time>
      </trkpt>
      <trkpt lat="46.57378" lon="5.74652">
        <ele>536.07</ele>
        <time>2014-08-02T11:28:55Z</time>
      </trkpt>
      <trkpt lat="46.57371" lon="5.74619">
        <ele>538.48</ele>
        <time>2014-08-02T11:29:10Z</time>
      </trkpt>
      <trkpt lat="46.57365" lon="5.74584">
        <ele>541.36</ele>
        <time>2014-08-02T11:29:26Z</time>
      </trkpt>
      <trkpt lat="46.57367" lon="5.74557">
        <ele>543.28</ele>
        <time>2014-08-02T11:29:37Z</time>
      </trkpt>
      <trkpt lat="46.57372" lon="5.74537">
        <ele>545.2</ele>
        <time>2014-08-02T11:29:45Z</time>
      </trkpt>
      <trkpt lat="46.57379" lon="5.74509">
        <ele>547.13</ele>
        <time>2014-08-02T11:29:57Z</time>
      </trkpt>
      <trkpt lat="46.57387" lon="5.74466">
        <ele>549.53</ele>
        <time>2014-08-02T11:30:14Z</time>
      </trkpt>
      <trkpt lat="46.57389" lon="5.7445">
        <ele>550.01</ele>
        <time>2014-08-02T11:30:26Z</time>
      </trkpt>
      <trkpt lat="46.57389" lon="5.7445">
        <ele>550.01</ele>
        <time>2014-08-02T11:30:42Z</time>
      </trkpt>
      <trkpt lat="46.5739" lon="5.74449">
        <ele>550.01</ele>
        <time>2014-08-02T11:30:56Z</time>
      </trkpt>
      <trkpt lat="46.57388" lon="5.74433">
        <ele>550.97</ele>
        <time>2014-08-02T11:31:09Z</time>
      </trkpt>
      <trkpt lat="46.57388" lon="5.74395">
        <ele>551.93</ele>
        <time>2014-08-02T11:31:23Z</time>
      </trkpt>
      <trkpt lat="46.57385" lon="5.74342">
        <ele>552.9</ele>
        <time>2014-08-02T11:31:37Z</time>
      </trkpt>
      <trkpt lat="46.57385" lon="5.74337">
        <ele>552.9</ele>
        <time>2014-08-02T11:31:39Z</time>
      </trkpt>
      <trkpt lat="46.57387" lon="5.74317">
        <ele>553.38</ele>
        <time>2014-08-02T11:31:44Z</time>
      </trkpt>
      <trkpt lat="46.5739" lon="5.7428">
        <ele>555.3</ele>
        <time>2014-08-02T11:31:56Z</time>
      </trkpt>
      <trkpt lat="46.57392" lon="5.74267">
        <ele>555.78</ele>
        <time>2014-08-02T11:32:00Z</time>
      </trkpt>
      <trkpt lat="46.57405" lon="5.74205">
        <ele>558.18</ele>
        <time>2014-08-02T11:32:19Z</time>
      </trkpt>
      <trkpt lat="46.57426" lon="5.74134">
        <ele>560.59</ele>
        <time>2014-08-02T11:32:41Z</time>
      </trkpt>
      <trkpt lat="46.57454" lon="5.7409">
        <ele>562.51</ele>
        <time>2014-08-02T11:32:58Z</time>
      </trkpt>
      <trkpt lat="46.57495" lon="5.7404">
        <ele>564.91</ele>
        <time>2014-08-02T11:33:19Z</time>
      </trkpt>
      <trkpt lat="46.57531" lon="5.73997">
        <ele>566.35</ele>
        <time>2014-08-02T11:33:36Z</time>
      </trkpt>
      <trkpt lat="46.57564" lon="5.73956">
        <ele>565.39</ele>
        <time>2014-08-02T11:33:46Z</time>
      </trkpt>
      <trkpt lat="46.57608" lon="5.73898">
        <ele>562.03</ele>
        <time>2014-08-02T11:33:54Z</time>
      </trkpt>
      <trkpt lat="46.57646" lon="5.73848">
        <ele>559.62</ele>
        <time>2014-08-02T11:34:00Z</time>
      </trkpt>
      <trkpt lat="46.57691" lon="5.73803">
        <ele>555.78</ele>
        <time>2014-08-02T11:34:06Z</time>
      </trkpt>
      <trkpt lat="46.57739" lon="5.73755">
        <ele>552.41</ele>
        <time>2014-08-02T11:34:12Z</time>
      </trkpt>
      <trkpt lat="46.57746" lon="5.73745">
        <ele>551.93</ele>
        <time>2014-08-02T11:34:13Z</time>
      </trkpt>
      <trkpt lat="46.57776" lon="5.7367">
        <ele>548.09</ele>
        <time>2014-08-02T11:34:19Z</time>
      </trkpt>
      <trkpt lat="46.57795" lon="5.73617">
        <ele>544.72</ele>
        <time>2014-08-02T11:34:23Z</time>
      </trkpt>
      <trkpt lat="46.5781" lon="5.73575">
        <ele>542.32</ele>
        <time>2014-08-02T11:34:26Z</time>
      </trkpt>
      <trkpt lat="46.57844" lon="5.73511">
        <ele>536.07</ele>
        <time>2014-08-02T11:34:31Z</time>
      </trkpt>
      <trkpt lat="46.57875" lon="5.7346">
        <ele>532.23</ele>
        <time>2014-08-02T11:34:35Z</time>
      </trkpt>
      <trkpt lat="46.57906" lon="5.73406">
        <ele>528.38</ele>
        <time>2014-08-02T11:34:39Z</time>
      </trkpt>
      <trkpt lat="46.57935" lon="5.73354">
        <ele>525.02</ele>
        <time>2014-08-02T11:34:43Z</time>
      </trkpt>
      <trkpt lat="46.57948" lon="5.73329">
        <ele>524.06</ele>
        <time>2014-08-02T11:34:45Z</time>
      </trkpt>
      <trkpt lat="46.57988" lon="5.73246">
        <ele>520.69</ele>
        <time>2014-08-02T11:34:52Z</time>
      </trkpt>
      <trkpt lat="46.58018" lon="5.73171">
        <ele>516.85</ele>
        <time>2014-08-02T11:34:58Z</time>
      </trkpt>
      <trkpt lat="46.58037" lon="5.73115">
        <ele>513.48</ele>
        <time>2014-08-02T11:35:02Z</time>
      </trkpt>
      <trkpt lat="46.58058" lon="5.73042">
        <ele>510.12</ele>
        <time>2014-08-02T11:35:07Z</time>
      </trkpt>
      <trkpt lat="46.58078" lon="5.72953">
        <ele>506.75</ele>
        <time>2014-08-02T11:35:13Z</time>
      </trkpt>
      <trkpt lat="46.58094" lon="5.7288">
        <ele>503.87</ele>
        <time>2014-08-02T11:35:18Z</time>
      </trkpt>
      <trkpt lat="46.58115" lon="5.72783">
        <ele>500.5</ele>
        <time>2014-08-02T11:35:25Z</time>
      </trkpt>
      <trkpt lat="46.58134" lon="5.72704">
        <ele>497.14</ele>
        <time>2014-08-02T11:35:31Z</time>
      </trkpt>
      <trkpt lat="46.58169" lon="5.72564">
        <ele>494.26</ele>
        <time>2014-08-02T11:35:44Z</time>
      </trkpt>
      <trkpt lat="46.58201" lon="5.72434">
        <ele>494.74</ele>
        <time>2014-08-02T11:36:00Z</time>
      </trkpt>
      <trkpt lat="46.58211" lon="5.72377">
        <ele>495.22</ele>
        <time>2014-08-02T11:36:12Z</time>
      </trkpt>
      <trkpt lat="46.58208" lon="5.72372">
        <ele>495.7</ele>
        <time>2014-08-02T11:36:15Z</time>
      </trkpt>
      <trkpt lat="46.58202" lon="5.72375">
        <ele>495.7</ele>
        <time>2014-08-02T11:36:25Z</time>
      </trkpt>
      <trkpt lat="46.58202" lon="5.72375">
        <ele>495.7</ele>
        <time>2014-08-02T11:36:53Z</time>
      </trkpt>
      <trkpt lat="46.58202" lon="5.72375">
        <ele>495.7</ele>
        <time>2014-08-02T11:37:30Z</time>
      </trkpt>
      <trkpt lat="46.58202" lon="5.72378">
        <ele>496.18</ele>
        <time>2014-08-02T11:37:42Z</time>
      </trkpt>
      <trkpt lat="46.58215" lon="5.72368">
        <ele>495.22</ele>
        <time>2014-08-02T11:37:49Z</time>
      </trkpt>
      <trkpt lat="46.58241" lon="5.72259">
        <ele>492.81</ele>
        <time>2014-08-02T11:38:03Z</time>
      </trkpt>
      <trkpt lat="46.58257" lon="5.72187">
        <ele>489.45</ele>
        <time>2014-08-02T11:38:09Z</time>
      </trkpt>
      <trkpt lat="46.5827" lon="5.72134">
        <ele>486.08</ele>
        <time>2014-08-02T11:38:13Z</time>
      </trkpt>
      <trkpt lat="46.58302" lon="5.71996">
        <ele>483.2</ele>
        <time>2014-08-02T11:38:24Z</time>
      </trkpt>
      <trkpt lat="46.58338" lon="5.71848">
        <ele>481.76</ele>
        <time>2014-08-02T11:38:39Z</time>
      </trkpt>
      <trkpt lat="46.5838" lon="5.71677">
        <ele>479.84</ele>
        <time>2014-08-02T11:38:59Z</time>
      </trkpt>
      <trkpt lat="46.58407" lon="5.71555">
        <ele>479.35</ele>
        <time>2014-08-02T11:39:12Z</time>
      </trkpt>
      <trkpt lat="46.58442" lon="5.71404">
        <ele>478.87</ele>
        <time>2014-08-02T11:39:30Z</time>
      </trkpt>
      <trkpt lat="46.58482" lon="5.7124">
        <ele>477.43</ele>
        <time>2014-08-02T11:39:49Z</time>
      </trkpt>
      <trkpt lat="46.58501" lon="5.71156">
        <ele>474.55</ele>
        <time>2014-08-02T11:39:57Z</time>
      </trkpt>
      <trkpt lat="46.58532" lon="5.71013">
        <ele>474.07</ele>
        <time>2014-08-02T11:40:11Z</time>
      </trkpt>
      <trkpt lat="46.58539" lon="5.70988">
        <ele>475.03</ele>
        <time>2014-08-02T11:40:14Z</time>
      </trkpt>
      <trkpt lat="46.58566" lon="5.70862">
        <ele>473.59</ele>
        <time>2014-08-02T11:40:29Z</time>
      </trkpt>
      <trkpt lat="46.58598" lon="5.70705">
        <ele>470.7</ele>
        <time>2014-08-02T11:40:46Z</time>
      </trkpt>
      <trkpt lat="46.5861" lon="5.70643">
        <ele>469.74</ele>
        <time>2014-08-02T11:40:53Z</time>
      </trkpt>
      <trkpt lat="46.58623" lon="5.7058">
        <ele>468.3</ele>
        <time>2014-08-02T11:41:00Z</time>
      </trkpt>
      <trkpt lat="46.58626" lon="5.70536">
        <ele>466.86</ele>
        <time>2014-08-02T11:41:04Z</time>
      </trkpt>
      <trkpt lat="46.5862" lon="5.70481">
        <ele>464.93</ele>
        <time>2014-08-02T11:41:09Z</time>
      </trkpt>
      <trkpt lat="46.58599" lon="5.70414">
        <ele>462.05</ele>
        <time>2014-08-02T11:41:17Z</time>
      </trkpt>
      <trkpt lat="46.5859" lon="5.70396">
        <ele>461.09</ele>
        <time>2014-08-02T11:41:19Z</time>
      </trkpt>
      <trkpt lat="46.58576" lon="5.70367">
        <ele>460.13</ele>
        <time>2014-08-02T11:41:22Z</time>
      </trkpt>
      <trkpt lat="46.58553" lon="5.70301">
        <ele>456.76</ele>
        <time>2014-08-02T11:41:28Z</time>
      </trkpt>
      <trkpt lat="46.58548" lon="5.7028">
        <ele>455.8</ele>
        <time>2014-08-02T11:41:30Z</time>
      </trkpt>
      <trkpt lat="46.58539" lon="5.7024">
        <ele>451.48</ele>
        <time>2014-08-02T11:41:35Z</time>
      </trkpt>
      <trkpt lat="46.58527" lon="5.70194">
        <ele>449.55</ele>
        <time>2014-08-02T11:41:40Z</time>
      </trkpt>
      <trkpt lat="46.58521" lon="5.70166">
        <ele>447.63</ele>
        <time>2014-08-02T11:41:45Z</time>
      </trkpt>
      <trkpt lat="46.58517" lon="5.70148">
        <ele>447.15</ele>
        <time>2014-08-02T11:41:48Z</time>
      </trkpt>
      <trkpt lat="46.58513" lon="5.70113">
        <ele>446.19</ele>
        <time>2014-08-02T11:41:53Z</time>
      </trkpt>
      <trkpt lat="46.5851" lon="5.70079">
        <ele>446.67</ele>
        <time>2014-08-02T11:42:02Z</time>
      </trkpt>
      <trkpt lat="46.5851" lon="5.70076">
        <ele>446.67</ele>
        <time>2014-08-02T11:42:18Z</time>
      </trkpt>
      <trkpt lat="46.5851" lon="5.70076">
        <ele>446.67</ele>
        <time>2014-08-02T11:42:43Z</time>
      </trkpt>
      <trkpt lat="46.5851" lon="5.70076">
        <ele>446.19</ele>
        <time>2014-08-02T11:43:15Z</time>
      </trkpt>
      <trkpt lat="46.5851" lon="5.70076">
        <ele>446.67</ele>
        <time>2014-08-02T11:43:40Z</time>
      </trkpt>
      <trkpt lat="46.5851" lon="5.70076">
        <ele>446.19</ele>
        <time>2014-08-02T11:44:01Z</time>
      </trkpt>
      <trkpt lat="46.5851" lon="5.70076">
        <ele>446.19</ele>
        <time>2014-08-02T11:44:22Z</time>
      </trkpt>
      <trkpt lat="46.5851" lon="5.70076">
        <ele>446.67</ele>
        <time>2014-08-02T11:44:47Z</time>
      </trkpt>
      <trkpt lat="46.58509" lon="5.70068">
        <ele>446.19</ele>
        <time>2014-08-02T11:45:01Z</time>
      </trkpt>
      <trkpt lat="46.58508" lon="5.70057">
        <ele>446.67</ele>
        <time>2014-08-02T11:45:14Z</time>
      </trkpt>
      <trkpt lat="46.58507" lon="5.70047">
        <ele>446.67</ele>
        <time>2014-08-02T11:45:23Z</time>
      </trkpt>
      <trkpt lat="46.58504" lon="5.70003">
        <ele>445.23</ele>
        <time>2014-08-02T11:45:37Z</time>
      </trkpt>
      <trkpt lat="46.58502" lon="5.69963">
        <ele>443.79</ele>
        <time>2014-08-02T11:45:48Z</time>
      </trkpt>
      <trkpt lat="46.58516" lon="5.69897">
        <ele>443.79</ele>
        <time>2014-08-02T11:46:01Z</time>
      </trkpt>
      <trkpt lat="46.58537" lon="5.69843">
        <ele>443.79</ele>
        <time>2014-08-02T11:46:15Z</time>
      </trkpt>
      <trkpt lat="46.58541" lon="5.69839">
        <ele>444.27</ele>
        <time>2014-08-02T11:46:26Z</time>
      </trkpt>
      <trkpt lat="46.5854" lon="5.69838">
        <ele>444.27</ele>
        <time>2014-08-02T11:46:51Z</time>
      </trkpt>
      <trkpt lat="46.58539" lon="5.69835">
        <ele>444.27</ele>
        <time>2014-08-02T11:47:19Z</time>
      </trkpt>
      <trkpt lat="46.58539" lon="5.69835">
        <ele>444.27</ele>
        <time>2014-08-02T11:47:48Z</time>
      </trkpt>
      <trkpt lat="46.58542" lon="5.69834">
        <ele>444.27</ele>
        <time>2014-08-02T11:48:11Z</time>
      </trkpt>
      <trkpt lat="46.58544" lon="5.69836">
        <ele>444.27</ele>
        <time>2014-08-02T11:48:29Z</time>
      </trkpt>
      <trkpt lat="46.58544" lon="5.69836">
        <ele>444.27</ele>
        <time>2014-08-02T11:48:44Z</time>
      </trkpt>
      <trkpt lat="46.58523" lon="5.69833">
        <ele>445.71</ele>
        <time>2014-08-02T12:03:55Z</time>
      </trkpt>
      <trkpt lat="46.58524" lon="5.69832">
        <ele>445.71</ele>
        <time>2014-08-02T12:03:56Z</time>
      </trkpt>
      <trkpt lat="46.58531" lon="5.69837">
        <ele>447.15</ele>
        <time>2014-08-02T12:04:19Z</time>
      </trkpt>
      <trkpt lat="46.58534" lon="5.69838">
        <ele>450.52</ele>
        <time>2014-08-02T12:04:25Z</time>
      </trkpt>
      <trkpt lat="46.58537" lon="5.69837">
        <ele>453.88</ele>
        <time>2014-08-02T12:04:34Z</time>
      </trkpt>
      <trkpt lat="46.58538" lon="5.69835">
        <ele>454.84</ele>
        <time>2014-08-02T12:04:38Z</time>
      </trkpt>
      <trkpt lat="46.58537" lon="5.69811">
        <ele>456.28</ele>
        <time>2014-08-02T12:04:47Z</time>
      </trkpt>
      <trkpt lat="46.58539" lon="5.69802">
        <ele>456.28</ele>
        <time>2014-08-02T12:04:49Z</time>
      </trkpt>
      <trkpt lat="46.58565" lon="5.69744">
        <ele>456.76</ele>
        <time>2014-08-02T12:05:04Z</time>
      </trkpt>
      <trkpt lat="46.58584" lon="5.69678">
        <ele>456.76</ele>
        <time>2014-08-02T12:05:19Z</time>
      </trkpt>
      <trkpt lat="46.58602" lon="5.69602">
        <ele>457.24</ele>
        <time>2014-08-02T12:05:35Z</time>
      </trkpt>
      <trkpt lat="46.58622" lon="5.69532">
        <ele>457.72</ele>
        <time>2014-08-02T12:05:50Z</time>
      </trkpt>
      <trkpt lat="46.5864" lon="5.6947">
        <ele>458.21</ele>
        <time>2014-08-02T12:06:03Z</time>
      </trkpt>
      <trkpt lat="46.58662" lon="5.69408">
        <ele>459.17</ele>
        <time>2014-08-02T12:06:17Z</time>
      </trkpt>
      <trkpt lat="46.58683" lon="5.69345">
        <ele>459.65</ele>
        <time>2014-08-02T12:06:30Z</time>
      </trkpt>
      <trkpt lat="46.58686" lon="5.69335">
        <ele>459.65</ele>
        <time>2014-08-02T12:06:32Z</time>
      </trkpt>
      <trkpt lat="46.58715" lon="5.69239">
        <ele>459.17</ele>
        <time>2014-08-02T12:06:50Z</time>
      </trkpt>
      <trkpt lat="46.58725" lon="5.69201">
        <ele>459.17</ele>
        <time>2014-08-02T12:07:03Z</time>
      </trkpt>
      <trkpt lat="46.58725" lon="5.69201">
        <ele>459.17</ele>
        <time>2014-08-02T12:07:20Z</time>
      </trkpt>
      <trkpt lat="46.58725" lon="5.69201">
        <ele>459.17</ele>
        <time>2014-08-02T12:07:35Z</time>
      </trkpt>
      <trkpt lat="46.58729" lon="5.69198">
        <ele>458.69</ele>
        <time>2014-08-02T12:07:39Z</time>
      </trkpt>
      <trkpt lat="46.58753" lon="5.69213">
        <ele>458.21</ele>
        <time>2014-08-02T12:07:48Z</time>
      </trkpt>
      <trkpt lat="46.58823" lon="5.69233">
        <ele>455.32</ele>
        <time>2014-08-02T12:08:01Z</time>
      </trkpt>
      <trkpt lat="46.58835" lon="5.69236">
        <ele>454.84</ele>
        <time>2014-08-02T12:08:03Z</time>
      </trkpt>
      <trkpt lat="46.58858" lon="5.6923">
        <ele>454.84</ele>
        <time>2014-08-02T12:08:07Z</time>
      </trkpt>
      <trkpt lat="46.58934" lon="5.6915">
        <ele>454.84</ele>
        <time>2014-08-02T12:08:24Z</time>
      </trkpt>
      <trkpt lat="46.5896" lon="5.69126">
        <ele>454.36</ele>
        <time>2014-08-02T12:08:30Z</time>
      </trkpt>
      <trkpt lat="46.58979" lon="5.69115">
        <ele>454.36</ele>
        <time>2014-08-02T12:08:34Z</time>
      </trkpt>
      <trkpt lat="46.59069" lon="5.69092">
        <ele>454.84</ele>
        <time>2014-08-02T12:08:52Z</time>
      </trkpt>
      <trkpt lat="46.59152" lon="5.69061">
        <ele>454.84</ele>
        <time>2014-08-02T12:09:09Z</time>
      </trkpt>
      <trkpt lat="46.59171" lon="5.69054">
        <ele>454.84</ele>
        <time>2014-08-02T12:09:18Z</time>
      </trkpt>
      <trkpt lat="46.59171" lon="5.69054">
        <ele>454.84</ele>
        <time>2014-08-02T12:09:40Z</time>
      </trkpt>
      <trkpt lat="46.59171" lon="5.69054">
        <ele>454.36</ele>
        <time>2014-08-02T12:10:13Z</time>
      </trkpt>
      <trkpt lat="46.59171" lon="5.69054">
        <ele>454.36</ele>
        <time>2014-08-02T12:10:36Z</time>
      </trkpt>
      <trkpt lat="46.59171" lon="5.69054">
        <ele>453.88</ele>
        <time>2014-08-02T12:11:05Z</time>
      </trkpt>
      <trkpt lat="46.59171" lon="5.69053">
        <ele>453.88</ele>
        <time>2014-08-02T12:11:41Z</time>
      </trkpt>
      <trkpt lat="46.59171" lon="5.69053">
        <ele>453.4</ele>
        <time>2014-08-02T12:12:19Z</time>
      </trkpt>
      <trkpt lat="46.59171" lon="5.69053">
        <ele>453.4</ele>
        <time>2014-08-02T12:12:37Z</time>
      </trkpt>
      <trkpt lat="46.59176" lon="5.6905">
        <ele>453.88</ele>
        <time>2014-08-02T12:12:41Z</time>
      </trkpt>
      <trkpt lat="46.59179" lon="5.69048">
        <ele>453.4</ele>
        <time>2014-08-02T12:12:54Z</time>
      </trkpt>
      <trkpt lat="46.59179" lon="5.69048">
        <ele>453.4</ele>
        <time>2014-08-02T12:13:02Z</time>
      </trkpt>
      <trkpt lat="46.59199" lon="5.69031">
        <ele>453.4</ele>
        <time>2014-08-02T12:13:15Z</time>
      </trkpt>
      <trkpt lat="46.59228" lon="5.69006">
        <ele>453.88</ele>
        <time>2014-08-02T12:13:28Z</time>
      </trkpt>
      <trkpt lat="46.59272" lon="5.6899">
        <ele>453.4</ele>
        <time>2014-08-02T12:13:42Z</time>
      </trkpt>
      <trkpt lat="46.59322" lon="5.68992">
        <ele>454.84</ele>
        <time>2014-08-02T12:13:55Z</time>
      </trkpt>
      <trkpt lat="46.59374" lon="5.68989">
        <ele>455.32</ele>
        <time>2014-08-02T12:14:10Z</time>
      </trkpt>
      <trkpt lat="46.59427" lon="5.68983">
        <ele>455.8</ele>
        <time>2014-08-02T12:14:26Z</time>
      </trkpt>
      <trkpt lat="46.59462" lon="5.68954">
        <ele>457.24</ele>
        <time>2014-08-02T12:14:38Z</time>
      </trkpt>
      <trkpt lat="46.59493" lon="5.6894">
        <ele>458.69</ele>
        <time>2014-08-02T12:14:49Z</time>
      </trkpt>
      <trkpt lat="46.59534" lon="5.68937">
        <ele>459.65</ele>
        <time>2014-08-02T12:15:02Z</time>
      </trkpt>
      <trkpt lat="46.59569" lon="5.68933">
        <ele>460.61</ele>
        <time>2014-08-02T12:15:14Z</time>
      </trkpt>
      <trkpt lat="46.59614" lon="5.68916">
        <ele>461.57</ele>
        <time>2014-08-02T12:15:29Z</time>
      </trkpt>
      <trkpt lat="46.59662" lon="5.68898">
        <ele>461.09</ele>
        <time>2014-08-02T12:15:43Z</time>
      </trkpt>
      <trkpt lat="46.59719" lon="5.68874">
        <ele>461.09</ele>
        <time>2014-08-02T12:15:56Z</time>
      </trkpt>
      <trkpt lat="46.59788" lon="5.68852">
        <ele>463.01</ele>
        <time>2014-08-02T12:16:13Z</time>
      </trkpt>
      <trkpt lat="46.59832" lon="5.68841">
        <ele>464.45</ele>
        <time>2014-08-02T12:16:26Z</time>
      </trkpt>
      <trkpt lat="46.59876" lon="5.68838">
        <ele>467.34</ele>
        <time>2014-08-02T12:16:41Z</time>
      </trkpt>
      <trkpt lat="46.59905" lon="5.68832">
        <ele>469.74</ele>
        <time>2014-08-02T12:16:54Z</time>
      </trkpt>
      <trkpt lat="46.59935" lon="5.68826">
        <ele>472.63</ele>
        <time>2014-08-02T12:17:08Z</time>
      </trkpt>
      <trkpt lat="46.59961" lon="5.68828">
        <ele>475.03</ele>
        <time>2014-08-02T12:17:20Z</time>
      </trkpt>
      <trkpt lat="46.5997" lon="5.68835">
        <ele>475.99</ele>
        <time>2014-08-02T12:17:25Z</time>
      </trkpt>
      <trkpt lat="46.60006" lon="5.6886">
        <ele>478.39</ele>
        <time>2014-08-02T12:17:42Z</time>
      </trkpt>
      <trkpt lat="46.60036" lon="5.68871">
        <ele>480.8</ele>
        <time>2014-08-02T12:17:56Z</time>
      </trkpt>
      <trkpt lat="46.60071" lon="5.6888">
        <ele>482.72</ele>
        <time>2014-08-02T12:18:11Z</time>
      </trkpt>
      <trkpt lat="46.60117" lon="5.689">
        <ele>483.68</ele>
        <time>2014-08-02T12:18:28Z</time>
      </trkpt>
      <trkpt lat="46.60151" lon="5.68913">
        <ele>484.16</ele>
        <time>2014-08-02T12:18:40Z</time>
      </trkpt>
      <trkpt lat="46.60194" lon="5.68925">
        <ele>484.16</ele>
        <time>2014-08-02T12:18:53Z</time>
      </trkpt>
      <trkpt lat="46.60244" lon="5.6894">
        <ele>485.6</ele>
        <time>2014-08-02T12:19:07Z</time>
      </trkpt>
      <trkpt lat="46.60284" lon="5.68955">
        <ele>486.56</ele>
        <time>2014-08-02T12:19:20Z</time>
      </trkpt>
      <trkpt lat="46.60333" lon="5.68958">
        <ele>486.56</ele>
        <time>2014-08-02T12:19:35Z</time>
      </trkpt>
      <trkpt lat="46.60385" lon="5.68903">
        <ele>485.6</ele>
        <time>2014-08-02T12:19:47Z</time>
      </trkpt>
      <trkpt lat="46.60416" lon="5.68896">
        <ele>485.6</ele>
        <time>2014-08-02T12:19:53Z</time>
      </trkpt>
      <trkpt lat="46.60443" lon="5.68912">
        <ele>486.56</ele>
        <time>2014-08-02T12:19:59Z</time>
      </trkpt>
      <trkpt lat="46.60515" lon="5.68977">
        <ele>486.56</ele>
        <time>2014-08-02T12:20:15Z</time>
      </trkpt>
      <trkpt lat="46.60583" lon="5.6906">
        <ele>487.53</ele>
        <time>2014-08-02T12:20:30Z</time>
      </trkpt>
      <trkpt lat="46.60619" lon="5.69109">
        <ele>488.49</ele>
        <time>2014-08-02T12:20:43Z</time>
      </trkpt>
      <trkpt lat="46.60621" lon="5.6911">
        <ele>488.49</ele>
        <time>2014-08-02T12:20:53Z</time>
      </trkpt>
      <trkpt lat="46.60621" lon="5.6911">
        <ele>488.49</ele>
        <time>2014-08-02T12:21:22Z</time>
      </trkpt>
      <trkpt lat="46.60627" lon="5.69126">
        <ele>488.49</ele>
        <time>2014-08-02T12:21:28Z</time>
      </trkpt>
      <trkpt lat="46.60642" lon="5.69142">
        <ele>487.53</ele>
        <time>2014-08-02T12:21:32Z</time>
      </trkpt>
      <trkpt lat="46.60722" lon="5.69223">
        <ele>484.64</ele>
        <time>2014-08-02T12:21:46Z</time>
      </trkpt>
      <trkpt lat="46.60822" lon="5.6933">
        <ele>481.76</ele>
        <time>2014-08-02T12:22:03Z</time>
      </trkpt>
      <trkpt lat="46.60843" lon="5.69354">
        <ele>480.32</ele>
        <time>2014-08-02T12:22:06Z</time>
      </trkpt>
      <trkpt lat="46.60911" lon="5.69429">
        <ele>477.43</ele>
        <time>2014-08-02T12:22:15Z</time>
      </trkpt>
      <trkpt lat="46.60955" lon="5.69472">
        <ele>473.59</ele>
        <time>2014-08-02T12:22:20Z</time>
      </trkpt>
      <trkpt lat="46.60991" lon="5.69508">
        <ele>471.66</ele>
        <time>2014-08-02T12:22:24Z</time>
      </trkpt>
      <trkpt lat="46.61066" lon="5.69577">
        <ele>472.14</ele>
        <time>2014-08-02T12:22:35Z</time>
      </trkpt>
      <trkpt lat="46.6108" lon="5.69587">
        <ele>473.11</ele>
        <time>2014-08-02T12:22:38Z</time>
      </trkpt>
      <trkpt lat="46.61122" lon="5.69618">
        <ele>476.47</ele>
        <time>2014-08-02T12:22:51Z</time>
      </trkpt>
      <trkpt lat="46.61153" lon="5.69668">
        <ele>478.87</ele>
        <time>2014-08-02T12:23:07Z</time>
      </trkpt>
      <trkpt lat="46.61183" lon="5.6973">
        <ele>480.8</ele>
        <time>2014-08-02T12:23:24Z</time>
      </trkpt>
      <trkpt lat="46.61209" lon="5.69802">
        <ele>481.28</ele>
        <time>2014-08-02T12:23:40Z</time>
      </trkpt>
      <trkpt lat="46.61238" lon="5.69885">
        <ele>480.8</ele>
        <time>2014-08-02T12:23:55Z</time>
      </trkpt>
      <trkpt lat="46.61276" lon="5.69965">
        <ele>480.32</ele>
        <time>2014-08-02T12:24:08Z</time>
      </trkpt>
      <trkpt lat="46.61358" lon="5.70039">
        <ele>480.8</ele>
        <time>2014-08-02T12:24:26Z</time>
      </trkpt>
      <trkpt lat="46.61438" lon="5.70087">
        <ele>480.8</ele>
        <time>2014-08-02T12:24:41Z</time>
      </trkpt>
      <trkpt lat="46.61538" lon="5.70133">
        <ele>480.8</ele>
        <time>2014-08-02T12:24:59Z</time>
      </trkpt>
      <trkpt lat="46.61637" lon="5.70151">
        <ele>481.28</ele>
        <time>2014-08-02T12:25:16Z</time>
      </trkpt>
      <trkpt lat="46.61722" lon="5.70137">
        <ele>482.24</ele>
        <time>2014-08-02T12:25:31Z</time>
      </trkpt>
      <trkpt lat="46.618" lon="5.70156">
        <ele>483.68</ele>
        <time>2014-08-02T12:25:48Z</time>
      </trkpt>
      <trkpt lat="46.61829" lon="5.70165">
        <ele>483.68</ele>
        <time>2014-08-02T12:25:57Z</time>
      </trkpt>
      <trkpt lat="46.61864" lon="5.70177">
        <ele>483.68</ele>
        <time>2014-08-02T12:26:06Z</time>
      </trkpt>
      <trkpt lat="46.61912" lon="5.70199">
        <ele>483.68</ele>
        <time>2014-08-02T12:26:19Z</time>
      </trkpt>
      <trkpt lat="46.61945" lon="5.70211">
        <ele>483.68</ele>
        <time>2014-08-02T12:26:27Z</time>
      </trkpt>
      <trkpt lat="46.61953" lon="5.70215">
        <ele>484.16</ele>
        <time>2014-08-02T12:26:29Z</time>
      </trkpt>
      <trkpt lat="46.62011" lon="5.7024">
        <ele>484.16</ele>
        <time>2014-08-02T12:26:42Z</time>
      </trkpt>
      <trkpt lat="46.6209" lon="5.70267">
        <ele>484.16</ele>
        <time>2014-08-02T12:26:58Z</time>
      </trkpt>
      <trkpt lat="46.62139" lon="5.70288">
        <ele>483.2</ele>
        <time>2014-08-02T12:27:07Z</time>
      </trkpt>
      <trkpt lat="46.62175" lon="5.70317">
        <ele>482.72</ele>
        <time>2014-08-02T12:27:14Z</time>
      </trkpt>
      <trkpt lat="46.62185" lon="5.70322">
        <ele>482.72</ele>
        <time>2014-08-02T12:27:17Z</time>
      </trkpt>
      <trkpt lat="46.6218" lon="5.70327">
        <ele>482.72</ele>
        <time>2014-08-02T12:27:24Z</time>
      </trkpt>
      <trkpt lat="46.62178" lon="5.70334">
        <ele>482.72</ele>
        <time>2014-08-02T12:27:34Z</time>
      </trkpt>
      <trkpt lat="46.62177" lon="5.70333">
        <ele>482.72</ele>
        <time>2014-08-02T12:28:04Z</time>
      </trkpt>
      <trkpt lat="46.62178" lon="5.7033">
        <ele>483.2</ele>
        <time>2014-08-02T12:28:22Z</time>
      </trkpt>
      <trkpt lat="46.62178" lon="5.7033">
        <ele>483.2</ele>
        <time>2014-08-02T12:28:46Z</time>
      </trkpt>
      <trkpt lat="46.62178" lon="5.7033">
        <ele>483.2</ele>
        <time>2014-08-02T12:29:05Z</time>
      </trkpt>
      <trkpt lat="46.62178" lon="5.7033">
        <ele>483.2</ele>
        <time>2014-08-02T12:29:31Z</time>
      </trkpt>
      <trkpt lat="46.62181" lon="5.70326">
        <ele>483.2</ele>
        <time>2014-08-02T12:29:34Z</time>
      </trkpt>
      <trkpt lat="46.62195" lon="5.7033">
        <ele>483.68</ele>
        <time>2014-08-02T12:29:42Z</time>
      </trkpt>
      <trkpt lat="46.62213" lon="5.70331">
        <ele>484.16</ele>
        <time>2014-08-02T12:29:52Z</time>
      </trkpt>
      <trkpt lat="46.6222" lon="5.70333">
        <ele>484.16</ele>
        <time>2014-08-02T12:29:55Z</time>
      </trkpt>
      <trkpt lat="46.62255" lon="5.70347">
        <ele>484.64</ele>
        <time>2014-08-02T12:30:10Z</time>
      </trkpt>
      <trkpt lat="46.62278" lon="5.70375">
        <ele>485.12</ele>
        <time>2014-08-02T12:30:20Z</time>
      </trkpt>
      <trkpt lat="46.6228" lon="5.70418">
        <ele>484.64</ele>
        <time>2014-08-02T12:30:29Z</time>
      </trkpt>
      <trkpt lat="46.62311" lon="5.70433">
        <ele>484.64</ele>
        <time>2014-08-02T12:30:38Z</time>
      </trkpt>
      <trkpt lat="46.6237" lon="5.70442">
        <ele>484.16</ele>
        <time>2014-08-02T12:30:53Z</time>
      </trkpt>
      <trkpt lat="46.62383" lon="5.70444">
        <ele>483.68</ele>
        <time>2014-08-02T12:30:56Z</time>
      </trkpt>
      <trkpt lat="46.62408" lon="5.70463">
        <ele>483.68</ele>
        <time>2014-08-02T12:31:02Z</time>
      </trkpt>
      <trkpt lat="46.6245" lon="5.70506">
        <ele>485.6</ele>
        <time>2014-08-02T12:31:14Z</time>
      </trkpt>
      <trkpt lat="46.62486" lon="5.70513">
        <ele>486.56</ele>
        <time>2014-08-02T12:31:24Z</time>
      </trkpt>
      <trkpt lat="46.62538" lon="5.70482">
        <ele>487.53</ele>
        <time>2014-08-02T12:31:39Z</time>
      </trkpt>
      <trkpt lat="46.62549" lon="5.70465">
        <ele>487.05</ele>
        <time>2014-08-02T12:31:43Z</time>
      </trkpt>
      <trkpt lat="46.62578" lon="5.70375">
        <ele>488.49</ele>
        <time>2014-08-02T12:32:01Z</time>
      </trkpt>
      <trkpt lat="46.62606" lon="5.70289">
        <ele>489.45</ele>
        <time>2014-08-02T12:32:18Z</time>
      </trkpt>
      <trkpt lat="46.62629" lon="5.70213">
        <ele>488.97</ele>
        <time>2014-08-02T12:32:32Z</time>
      </trkpt>
      <trkpt lat="46.62661" lon="5.70134">
        <ele>485.6</ele>
        <time>2014-08-02T12:32:44Z</time>
      </trkpt>
      <trkpt lat="46.62666" lon="5.70126">
        <ele>485.6</ele>
        <time>2014-08-02T12:32:45Z</time>
      </trkpt>
      <trkpt lat="46.62703" lon="5.70063">
        <ele>482.24</ele>
        <time>2014-08-02T12:32:52Z</time>
      </trkpt>
      <trkpt lat="46.62787" lon="5.69934">
        <ele>478.87</ele>
        <time>2014-08-02T12:33:07Z</time>
      </trkpt>
      <trkpt lat="46.62894" lon="5.69781">
        <ele>476.47</ele>
        <time>2014-08-02T12:33:26Z</time>
      </trkpt>
      <trkpt lat="46.62973" lon="5.69667">
        <ele>475.03</ele>
        <time>2014-08-02T12:33:41Z</time>
      </trkpt>
      <trkpt lat="46.63038" lon="5.69548">
        <ele>475.03</ele>
        <time>2014-08-02T12:33:56Z</time>
      </trkpt>
      <trkpt lat="46.63047" lon="5.69522">
        <ele>475.51</ele>
        <time>2014-08-02T12:33:59Z</time>
      </trkpt>
      <trkpt lat="46.63065" lon="5.69443">
        <ele>475.51</ele>
        <time>2014-08-02T12:34:09Z</time>
      </trkpt>
      <trkpt lat="46.63096" lon="5.6932">
        <ele>474.55</ele>
        <time>2014-08-02T12:34:26Z</time>
      </trkpt>
      <trkpt lat="46.63104" lon="5.69299">
        <ele>474.55</ele>
        <time>2014-08-02T12:34:29Z</time>
      </trkpt>
      <trkpt lat="46.63157" lon="5.69202">
        <ele>475.03</ele>
        <time>2014-08-02T12:34:45Z</time>
      </trkpt>
      <trkpt lat="46.63207" lon="5.69122">
        <ele>475.99</ele>
        <time>2014-08-02T12:35:00Z</time>
      </trkpt>
      <trkpt lat="46.63242" lon="5.69045">
        <ele>477.91</ele>
        <time>2014-08-02T12:35:15Z</time>
      </trkpt>
      <trkpt lat="46.63272" lon="5.68961">
        <ele>479.84</ele>
        <time>2014-08-02T12:35:33Z</time>
      </trkpt>
      <trkpt lat="46.63313" lon="5.68895">
        <ele>481.76</ele>
        <time>2014-08-02T12:35:50Z</time>
      </trkpt>
      <trkpt lat="46.63357" lon="5.68836">
        <ele>483.2</ele>
        <time>2014-08-02T12:36:07Z</time>
      </trkpt>
      <trkpt lat="46.63381" lon="5.68773">
        <ele>484.16</ele>
        <time>2014-08-02T12:36:21Z</time>
      </trkpt>
      <trkpt lat="46.63396" lon="5.6874">
        <ele>484.16</ele>
        <time>2014-08-02T12:36:28Z</time>
      </trkpt>
      <trkpt lat="46.63446" lon="5.68693">
        <ele>485.12</ele>
        <time>2014-08-02T12:36:43Z</time>
      </trkpt>
      <trkpt lat="46.63507" lon="5.68652">
        <ele>486.08</ele>
        <time>2014-08-02T12:37:00Z</time>
      </trkpt>
      <trkpt lat="46.63557" lon="5.68626">
        <ele>486.08</ele>
        <time>2014-08-02T12:37:12Z</time>
      </trkpt>
      <trkpt lat="46.63573" lon="5.68618">
        <ele>486.56</ele>
        <time>2014-08-02T12:37:16Z</time>
      </trkpt>
      <trkpt lat="46.63589" lon="5.68611">
        <ele>486.56</ele>
        <time>2014-08-02T12:37:20Z</time>
      </trkpt>
      <trkpt lat="46.63607" lon="5.68603">
        <ele>487.53</ele>
        <time>2014-08-02T12:37:25Z</time>
      </trkpt>
      <trkpt lat="46.6365" lon="5.68582">
        <ele>490.41</ele>
        <time>2014-08-02T12:37:38Z</time>
      </trkpt>
      <trkpt lat="46.63684" lon="5.68549">
        <ele>491.85</ele>
        <time>2014-08-02T12:37:49Z</time>
      </trkpt>
      <trkpt lat="46.63715" lon="5.68494">
        <ele>492.81</ele>
        <time>2014-08-02T12:38:02Z</time>
      </trkpt>
      <trkpt lat="46.63755" lon="5.68426">
        <ele>493.77</ele>
        <time>2014-08-02T12:38:17Z</time>
      </trkpt>
      <trkpt lat="46.63772" lon="5.6836">
        <ele>495.22</ele>
        <time>2014-08-02T12:38:30Z</time>
      </trkpt>
      <trkpt lat="46.63772" lon="5.68327">
        <ele>495.7</ele>
        <time>2014-08-02T12:38:36Z</time>
      </trkpt>
      <trkpt lat="46.6377" lon="5.68223">
        <ele>495.22</ele>
        <time>2014-08-02T12:38:52Z</time>
      </trkpt>
      <trkpt lat="46.6377" lon="5.68216">
        <ele>495.22</ele>
        <time>2014-08-02T12:38:53Z</time>
      </trkpt>
      <trkpt lat="46.63745" lon="5.68147">
        <ele>496.18</ele>
        <time>2014-08-02T12:39:06Z</time>
      </trkpt>
      <trkpt lat="46.63719" lon="5.681">
        <ele>498.58</ele>
        <time>2014-08-02T12:39:19Z</time>
      </trkpt>
      <trkpt lat="46.63698" lon="5.68063">
        <ele>499.54</ele>
        <time>2014-08-02T12:39:30Z</time>
      </trkpt>
      <trkpt lat="46.63672" lon="5.68021">
        <ele>500.02</ele>
        <time>2014-08-02T12:39:42Z</time>
      </trkpt>
      <trkpt lat="46.63644" lon="5.67948">
        <ele>500.98</ele>
        <time>2014-08-02T12:39:58Z</time>
      </trkpt>
      <trkpt lat="46.63614" lon="5.67904">
        <ele>502.43</ele>
        <time>2014-08-02T12:40:11Z</time>
      </trkpt>
      <trkpt lat="46.63582" lon="5.67859">
        <ele>503.39</ele>
        <time>2014-08-02T12:40:25Z</time>
      </trkpt>
      <trkpt lat="46.63588" lon="5.6782">
        <ele>505.79</ele>
        <time>2014-08-02T12:40:36Z</time>
      </trkpt>
      <trkpt lat="46.63608" lon="5.67814">
        <ele>507.23</ele>
        <time>2014-08-02T12:40:45Z</time>
      </trkpt>
      <trkpt lat="46.63613" lon="5.67813">
        <ele>507.71</ele>
        <time>2014-08-02T12:40:48Z</time>
      </trkpt>
      <trkpt lat="46.63631" lon="5.67827">
        <ele>508.67</ele>
        <time>2014-08-02T12:41:00Z</time>
      </trkpt>
      <trkpt lat="46.63656" lon="5.67839">
        <ele>510.12</ele>
        <time>2014-08-02T12:41:13Z</time>
      </trkpt>
      <trkpt lat="46.63665" lon="5.67844">
        <ele>510.6</ele>
        <time>2014-08-02T12:41:18Z</time>
      </trkpt>
      <trkpt lat="46.63667" lon="5.67847">
        <ele>510.6</ele>
        <time>2014-08-02T12:41:19Z</time>
      </trkpt>
      <trkpt lat="46.63677" lon="5.67864">
        <ele>512.04</ele>
        <time>2014-08-02T12:41:27Z</time>
      </trkpt>
      <trkpt lat="46.63697" lon="5.67897">
        <ele>513.48</ele>
        <time>2014-08-02T12:41:40Z</time>
      </trkpt>
      <trkpt lat="46.63716" lon="5.67929">
        <ele>515.4</ele>
        <time>2014-08-02T12:41:54Z</time>
      </trkpt>
      <trkpt lat="46.63721" lon="5.67934">
        <ele>515.88</ele>
        <time>2014-08-02T12:41:57Z</time>
      </trkpt>
      <trkpt lat="46.63745" lon="5.67968">
        <ele>518.29</ele>
        <time>2014-08-02T12:42:14Z</time>
      </trkpt>
      <trkpt lat="46.63763" lon="5.67978">
        <ele>519.73</ele>
        <time>2014-08-02T12:42:26Z</time>
      </trkpt>
      <trkpt lat="46.63785" lon="5.6798">
        <ele>521.17</ele>
        <time>2014-08-02T12:42:36Z</time>
      </trkpt>
      <trkpt lat="46.63797" lon="5.67978">
        <ele>521.65</ele>
        <time>2014-08-02T12:42:42Z</time>
      </trkpt>
      <trkpt lat="46.63821" lon="5.67968">
        <ele>522.13</ele>
        <time>2014-08-02T12:42:53Z</time>
      </trkpt>
      <trkpt lat="46.63863" lon="5.67957">
        <ele>522.13</ele>
        <time>2014-08-02T12:43:03Z</time>
      </trkpt>
      <trkpt lat="46.639" lon="5.67956">
        <ele>522.61</ele>
        <time>2014-08-02T12:43:13Z</time>
      </trkpt>
      <trkpt lat="46.63934" lon="5.67973">
        <ele>524.06</ele>
        <time>2014-08-02T12:43:24Z</time>
      </trkpt>
      <trkpt lat="46.63947" lon="5.67975">
        <ele>525.02</ele>
        <time>2014-08-02T12:43:28Z</time>
      </trkpt>
      <trkpt lat="46.63986" lon="5.67984">
        <ele>526.94</ele>
        <time>2014-08-02T12:43:40Z</time>
      </trkpt>
      <trkpt lat="46.64016" lon="5.67974">
        <ele>525.98</ele>
        <time>2014-08-02T12:43:48Z</time>
      </trkpt>
      <trkpt lat="46.64035" lon="5.6796">
        <ele>525.5</ele>
        <time>2014-08-02T12:43:52Z</time>
      </trkpt>
      <trkpt lat="46.64054" lon="5.67944">
        <ele>524.06</ele>
        <time>2014-08-02T12:43:56Z</time>
      </trkpt>
      <trkpt lat="46.64071" lon="5.67889">
        <ele>523.09</ele>
        <time>2014-08-02T12:44:03Z</time>
      </trkpt>
      <trkpt lat="46.64073" lon="5.67881">
        <ele>523.09</ele>
        <time>2014-08-02T12:44:04Z</time>
      </trkpt>
      <trkpt lat="46.64075" lon="5.67866">
        <ele>523.09</ele>
        <time>2014-08-02T12:44:06Z</time>
      </trkpt>
      <trkpt lat="46.6408" lon="5.67847">
        <ele>522.61</ele>
        <time>2014-08-02T12:44:09Z</time>
      </trkpt>
      <trkpt lat="46.6411" lon="5.67781">
        <ele>522.13</ele>
        <time>2014-08-02T12:44:22Z</time>
      </trkpt>
      <trkpt lat="46.64138" lon="5.67742">
        <ele>521.65</ele>
        <time>2014-08-02T12:44:32Z</time>
      </trkpt>
      <trkpt lat="46.64158" lon="5.67706">
        <ele>521.17</ele>
        <time>2014-08-02T12:44:40Z</time>
      </trkpt>
      <trkpt lat="46.64168" lon="5.67687">
        <ele>521.65</ele>
        <time>2014-08-02T12:44:44Z</time>
      </trkpt>
      <trkpt lat="46.64179" lon="5.67667">
        <ele>521.17</ele>
        <time>2014-08-02T12:44:48Z</time>
      </trkpt>
      <trkpt lat="46.64213" lon="5.67604">
        <ele>521.65</ele>
        <time>2014-08-02T12:45:00Z</time>
      </trkpt>
      <trkpt lat="46.64221" lon="5.67588">
        <ele>521.65</ele>
        <time>2014-08-02T12:45:03Z</time>
      </trkpt>
      <trkpt lat="46.64251" lon="5.67529">
        <ele>521.17</ele>
        <time>2014-08-02T12:45:16Z</time>
      </trkpt>
      <trkpt lat="46.64255" lon="5.67518">
        <ele>521.65</ele>
        <time>2014-08-02T12:45:18Z</time>
      </trkpt>
      <trkpt lat="46.64269" lon="5.67433">
        <ele>519.73</ele>
        <time>2014-08-02T12:45:30Z</time>
      </trkpt>
      <trkpt lat="46.64281" lon="5.67383">
        <ele>518.29</ele>
        <time>2014-08-02T12:45:36Z</time>
      </trkpt>
      <trkpt lat="46.64297" lon="5.67325">
        <ele>517.33</ele>
        <time>2014-08-02T12:45:43Z</time>
      </trkpt>
      <trkpt lat="46.64314" lon="5.67257">
        <ele>516.85</ele>
        <time>2014-08-02T12:45:52Z</time>
      </trkpt>
      <trkpt lat="46.64319" lon="5.6724">
        <ele>516.37</ele>
        <time>2014-08-02T12:45:55Z</time>
      </trkpt>
      <trkpt lat="46.64321" lon="5.672">
        <ele>516.85</ele>
        <time>2014-08-02T12:46:05Z</time>
      </trkpt>
      <trkpt lat="46.64326" lon="5.67153">
        <ele>517.33</ele>
        <time>2014-08-02T12:46:16Z</time>
      </trkpt>
      <trkpt lat="46.64329" lon="5.67102">
        <ele>519.25</ele>
        <time>2014-08-02T12:46:27Z</time>
      </trkpt>
      <trkpt lat="46.64336" lon="5.67058">
        <ele>519.73</ele>
        <time>2014-08-02T12:46:38Z</time>
      </trkpt>
      <trkpt lat="46.64339" lon="5.66994">
        <ele>520.21</ele>
        <time>2014-08-02T12:46:49Z</time>
      </trkpt>
      <trkpt lat="46.6434" lon="5.66916">
        <ele>520.69</ele>
        <time>2014-08-02T12:47:00Z</time>
      </trkpt>
      <trkpt lat="46.64338" lon="5.66897">
        <ele>520.69</ele>
        <time>2014-08-02T12:47:03Z</time>
      </trkpt>
      <trkpt lat="46.64333" lon="5.66856">
        <ele>521.17</ele>
        <time>2014-08-02T12:47:10Z</time>
      </trkpt>
      <trkpt lat="46.64326" lon="5.66827">
        <ele>521.65</ele>
        <time>2014-08-02T12:47:15Z</time>
      </trkpt>
      <trkpt lat="46.64317" lon="5.66803">
        <ele>522.13</ele>
        <time>2014-08-02T12:47:20Z</time>
      </trkpt>
      <trkpt lat="46.64311" lon="5.66779">
        <ele>522.13</ele>
        <time>2014-08-02T12:47:24Z</time>
      </trkpt>
      <trkpt lat="46.64299" lon="5.6674">
        <ele>522.61</ele>
        <time>2014-08-02T12:47:31Z</time>
      </trkpt>
      <trkpt lat="46.64292" lon="5.66716">
        <ele>522.13</ele>
        <time>2014-08-02T12:47:35Z</time>
      </trkpt>
      <trkpt lat="46.64279" lon="5.66674">
        <ele>522.13</ele>
        <time>2014-08-02T12:47:42Z</time>
      </trkpt>
      <trkpt lat="46.64254" lon="5.666">
        <ele>522.61</ele>
        <time>2014-08-02T12:47:55Z</time>
      </trkpt>
      <trkpt lat="46.64239" lon="5.66538">
        <ele>522.13</ele>
        <time>2014-08-02T12:48:06Z</time>
      </trkpt>
      <trkpt lat="46.64231" lon="5.66473">
        <ele>522.13</ele>
        <time>2014-08-02T12:48:15Z</time>
      </trkpt>
      <trkpt lat="46.6423" lon="5.66441">
        <ele>522.13</ele>
        <time>2014-08-02T12:48:20Z</time>
      </trkpt>
      <trkpt lat="46.64229" lon="5.66404">
        <ele>522.13</ele>
        <time>2014-08-02T12:48:26Z</time>
      </trkpt>
      <trkpt lat="46.64227" lon="5.66376">
        <ele>521.65</ele>
        <time>2014-08-02T12:48:30Z</time>
      </trkpt>
      <trkpt lat="46.64231" lon="5.66312">
        <ele>522.13</ele>
        <time>2014-08-02T12:48:41Z</time>
      </trkpt>
      <trkpt lat="46.6424" lon="5.66262">
        <ele>521.65</ele>
        <time>2014-08-02T12:48:50Z</time>
      </trkpt>
      <trkpt lat="46.64262" lon="5.66205">
        <ele>522.13</ele>
        <time>2014-08-02T12:49:01Z</time>
      </trkpt>
      <trkpt lat="46.64264" lon="5.662">
        <ele>522.13</ele>
        <time>2014-08-02T12:49:15Z</time>
      </trkpt>
      <trkpt lat="46.64273" lon="5.66177">
        <ele>522.13</ele>
        <time>2014-08-02T12:49:33Z</time>
      </trkpt>
      <trkpt lat="46.64295" lon="5.66131">
        <ele>522.61</ele>
        <time>2014-08-02T12:49:44Z</time>
      </trkpt>
      <trkpt lat="46.6433" lon="5.66079">
        <ele>523.09</ele>
        <time>2014-08-02T12:49:57Z</time>
      </trkpt>
      <trkpt lat="46.64353" lon="5.66051">
        <ele>523.09</ele>
        <time>2014-08-02T12:50:04Z</time>
      </trkpt>
      <trkpt lat="46.64393" lon="5.66011">
        <ele>523.58</ele>
        <time>2014-08-02T12:50:17Z</time>
      </trkpt>
      <trkpt lat="46.64428" lon="5.65977">
        <ele>524.06</ele>
        <time>2014-08-02T12:50:29Z</time>
      </trkpt>
      <trkpt lat="46.64458" lon="5.65946">
        <ele>524.06</ele>
        <time>2014-08-02T12:50:40Z</time>
      </trkpt>
      <trkpt lat="46.64487" lon="5.65918">
        <ele>524.06</ele>
        <time>2014-08-02T12:50:50Z</time>
      </trkpt>
      <trkpt lat="46.64528" lon="5.6587">
        <ele>525.02</ele>
        <time>2014-08-02T12:51:04Z</time>
      </trkpt>
      <trkpt lat="46.6456" lon="5.65826">
        <ele>525.5</ele>
        <time>2014-08-02T12:51:15Z</time>
      </trkpt>
      <trkpt lat="46.64589" lon="5.6578">
        <ele>525.98</ele>
        <time>2014-08-02T12:51:26Z</time>
      </trkpt>
      <trkpt lat="46.64623" lon="5.65708">
        <ele>526.46</ele>
        <time>2014-08-02T12:51:41Z</time>
      </trkpt>
      <trkpt lat="46.64629" lon="5.65692">
        <ele>526.46</ele>
        <time>2014-08-02T12:51:44Z</time>
      </trkpt>
      <trkpt lat="46.64656" lon="5.65623">
        <ele>526.46</ele>
        <time>2014-08-02T12:51:57Z</time>
      </trkpt>
      <trkpt lat="46.64667" lon="5.65595">
        <ele>526.46</ele>
        <time>2014-08-02T12:52:02Z</time>
      </trkpt>
      <trkpt lat="46.64676" lon="5.65568">
        <ele>526.46</ele>
        <time>2014-08-02T12:52:07Z</time>
      </trkpt>
      <trkpt lat="46.64681" lon="5.65557">
        <ele>526.46</ele>
        <time>2014-08-02T12:52:09Z</time>
      </trkpt>
      <trkpt lat="46.6469" lon="5.65528">
        <ele>526.46</ele>
        <time>2014-08-02T12:52:14Z</time>
      </trkpt>
      <trkpt lat="46.64703" lon="5.65493">
        <ele>526.46</ele>
        <time>2014-08-02T12:52:20Z</time>
      </trkpt>
      <trkpt lat="46.64724" lon="5.65435">
        <ele>526.46</ele>
        <time>2014-08-02T12:52:30Z</time>
      </trkpt>
      <trkpt lat="46.64733" lon="5.65413">
        <ele>526.46</ele>
        <time>2014-08-02T12:52:34Z</time>
      </trkpt>
      <trkpt lat="46.64742" lon="5.65384">
        <ele>526.46</ele>
        <time>2014-08-02T12:52:39Z</time>
      </trkpt>
      <trkpt lat="46.64748" lon="5.65366">
        <ele>525.98</ele>
        <time>2014-08-02T12:52:42Z</time>
      </trkpt>
      <trkpt lat="46.64761" lon="5.65331">
        <ele>525.98</ele>
        <time>2014-08-02T12:52:48Z</time>
      </trkpt>
      <trkpt lat="46.64765" lon="5.65319">
        <ele>525.98</ele>
        <time>2014-08-02T12:52:50Z</time>
      </trkpt>
      <trkpt lat="46.64777" lon="5.65286">
        <ele>525.98</ele>
        <time>2014-08-02T12:52:55Z</time>
      </trkpt>
      <trkpt lat="46.64799" lon="5.65225">
        <ele>525.5</ele>
        <time>2014-08-02T12:53:04Z</time>
      </trkpt>
      <trkpt lat="46.64809" lon="5.65198">
        <ele>525.5</ele>
        <time>2014-08-02T12:53:08Z</time>
      </trkpt>
      <trkpt lat="46.64822" lon="5.65165">
        <ele>525.5</ele>
        <time>2014-08-02T12:53:13Z</time>
      </trkpt>
      <trkpt lat="46.64832" lon="5.65137">
        <ele>525.02</ele>
        <time>2014-08-02T12:53:17Z</time>
      </trkpt>
      <trkpt lat="46.64851" lon="5.65084">
        <ele>525.02</ele>
        <time>2014-08-02T12:53:25Z</time>
      </trkpt>
      <trkpt lat="46.64873" lon="5.65026">
        <ele>524.54</ele>
        <time>2014-08-02T12:53:34Z</time>
      </trkpt>
      <trkpt lat="46.64883" lon="5.64999">
        <ele>524.54</ele>
        <time>2014-08-02T12:53:38Z</time>
      </trkpt>
      <trkpt lat="46.64896" lon="5.64945">
        <ele>523.58</ele>
        <time>2014-08-02T12:53:46Z</time>
      </trkpt>
      <trkpt lat="46.64899" lon="5.64931">
        <ele>523.09</ele>
        <time>2014-08-02T12:53:48Z</time>
      </trkpt>
      <trkpt lat="46.64903" lon="5.64903">
        <ele>523.09</ele>
        <time>2014-08-02T12:53:52Z</time>
      </trkpt>
      <trkpt lat="46.64907" lon="5.64878">
        <ele>522.61</ele>
        <time>2014-08-02T12:53:56Z</time>
      </trkpt>
      <trkpt lat="46.64909" lon="5.64865">
        <ele>522.61</ele>
        <time>2014-08-02T12:53:58Z</time>
      </trkpt>
      <trkpt lat="46.64917" lon="5.64798">
        <ele>521.65</ele>
        <time>2014-08-02T12:54:09Z</time>
      </trkpt>
      <trkpt lat="46.64916" lon="5.6477">
        <ele>521.17</ele>
        <time>2014-08-02T12:54:14Z</time>
      </trkpt>
      <trkpt lat="46.64917" lon="5.64707">
        <ele>520.21</ele>
        <time>2014-08-02T12:54:24Z</time>
      </trkpt>
      <trkpt lat="46.64912" lon="5.64626">
        <ele>519.73</ele>
        <time>2014-08-02T12:54:36Z</time>
      </trkpt>
      <trkpt lat="46.64897" lon="5.6455">
        <ele>518.29</ele>
        <time>2014-08-02T12:54:48Z</time>
      </trkpt>
      <trkpt lat="46.64895" lon="5.64538">
        <ele>518.29</ele>
        <time>2014-08-02T12:54:50Z</time>
      </trkpt>
      <trkpt lat="46.64889" lon="5.64466">
        <ele>517.33</ele>
        <time>2014-08-02T12:54:58Z</time>
      </trkpt>
      <trkpt lat="46.64884" lon="5.64441">
        <ele>517.33</ele>
        <time>2014-08-02T12:55:01Z</time>
      </trkpt>
      <trkpt lat="46.64872" lon="5.64338">
        <ele>516.37</ele>
        <time>2014-08-02T12:55:16Z</time>
      </trkpt>
      <trkpt lat="46.64872" lon="5.64337">
        <ele>516.37</ele>
        <time>2014-08-02T12:55:17Z</time>
      </trkpt>
      <trkpt lat="46.64897" lon="5.64328">
        <ele>515.88</ele>
        <time>2014-08-02T12:55:27Z</time>
      </trkpt>
      <trkpt lat="46.649" lon="5.64309">
        <ele>515.88</ele>
        <time>2014-08-02T12:55:31Z</time>
      </trkpt>
      <trkpt lat="46.64897" lon="5.64294">
        <ele>515.88</ele>
        <time>2014-08-02T12:55:35Z</time>
      </trkpt>
      <trkpt lat="46.64895" lon="5.64285">
        <ele>515.88</ele>
        <time>2014-08-02T12:55:39Z</time>
      </trkpt>
      <trkpt lat="46.64891" lon="5.6426">
        <ele>515.88</ele>
        <time>2014-08-02T12:55:51Z</time>
      </trkpt>
      <trkpt lat="46.6489" lon="5.64246">
        <ele>515.4</ele>
        <time>2014-08-02T12:55:58Z</time>
      </trkpt>
      <trkpt lat="46.64887" lon="5.64238">
        <ele>515.4</ele>
        <time>2014-08-02T12:56:05Z</time>
      </trkpt>
      <trkpt lat="46.64889" lon="5.64249">
        <ele>515.88</ele>
        <time>2014-08-02T12:56:09Z</time>
      </trkpt>
      <trkpt lat="46.64891" lon="5.6425">
        <ele>515.88</ele>
        <time>2014-08-02T12:56:18Z</time>
      </trkpt>
      <trkpt lat="46.64891" lon="5.6425">
        <ele>515.4</ele>
        <time>2014-08-02T12:56:42Z</time>
      </trkpt>
      <trkpt lat="46.64891" lon="5.6425">
        <ele>515.4</ele>
        <time>2014-08-02T12:57:00Z</time>
      </trkpt>
      <trkpt lat="46.64883" lon="5.64198">
        <ele>515.88</ele>
        <time>2014-08-02T12:57:13Z</time>
      </trkpt>
      <trkpt lat="46.64872" lon="5.64104">
        <ele>515.88</ele>
        <time>2014-08-02T12:57:28Z</time>
      </trkpt>
      <trkpt lat="46.64864" lon="5.64083">
        <ele>515.88</ele>
        <time>2014-08-02T12:57:32Z</time>
      </trkpt>
      <trkpt lat="46.64838" lon="5.64052">
        <ele>515.88</ele>
        <time>2014-08-02T12:57:40Z</time>
      </trkpt>
      <trkpt lat="46.64822" lon="5.64007">
        <ele>516.37</ele>
        <time>2014-08-02T12:57:48Z</time>
      </trkpt>
      <trkpt lat="46.64813" lon="5.63969">
        <ele>516.37</ele>
        <time>2014-08-02T12:57:54Z</time>
      </trkpt>
      <trkpt lat="46.64801" lon="5.63896">
        <ele>515.88</ele>
        <time>2014-08-02T12:58:05Z</time>
      </trkpt>
      <trkpt lat="46.64798" lon="5.63861">
        <ele>516.37</ele>
        <time>2014-08-02T12:58:11Z</time>
      </trkpt>
      <trkpt lat="46.64777" lon="5.63755">
        <ele>517.81</ele>
        <time>2014-08-02T12:58:29Z</time>
      </trkpt>
      <trkpt lat="46.64771" lon="5.63727">
        <ele>518.29</ele>
        <time>2014-08-02T12:58:35Z</time>
      </trkpt>
      <trkpt lat="46.64761" lon="5.63657">
        <ele>518.77</ele>
        <time>2014-08-02T12:58:48Z</time>
      </trkpt>
      <trkpt lat="46.64755" lon="5.63603">
        <ele>519.73</ele>
        <time>2014-08-02T12:58:59Z</time>
      </trkpt>
      <trkpt lat="46.64747" lon="5.63551">
        <ele>520.21</ele>
        <time>2014-08-02T12:59:09Z</time>
      </trkpt>
      <trkpt lat="46.64739" lon="5.63482">
        <ele>521.17</ele>
        <time>2014-08-02T12:59:22Z</time>
      </trkpt>
      <trkpt lat="46.64731" lon="5.63431">
        <ele>522.13</ele>
        <time>2014-08-02T12:59:32Z</time>
      </trkpt>
      <trkpt lat="46.64716" lon="5.63394">
        <ele>522.13</ele>
        <time>2014-08-02T12:59:41Z</time>
      </trkpt>
      <trkpt lat="46.64707" lon="5.63337">
        <ele>523.09</ele>
        <time>2014-08-02T12:59:53Z</time>
      </trkpt>
      <trkpt lat="46.64695" lon="5.63248">
        <ele>524.06</ele>
        <time>2014-08-02T13:00:10Z</time>
      </trkpt>
      <trkpt lat="46.64686" lon="5.63183">
        <ele>525.5</ele>
        <time>2014-08-02T13:00:23Z</time>
      </trkpt>
      <trkpt lat="46.64675" lon="5.63115">
        <ele>525.98</ele>
        <time>2014-08-02T13:00:37Z</time>
      </trkpt>
      <trkpt lat="46.64653" lon="5.63055">
        <ele>526.94</ele>
        <time>2014-08-02T13:00:51Z</time>
      </trkpt>
      <trkpt lat="46.64625" lon="5.62974">
        <ele>528.38</ele>
        <time>2014-08-02T13:01:10Z</time>
      </trkpt>
      <trkpt lat="46.64609" lon="5.62925">
        <ele>528.86</ele>
        <time>2014-08-02T13:01:22Z</time>
      </trkpt>
      <trkpt lat="46.64604" lon="5.6291">
        <ele>528.86</ele>
        <time>2014-08-02T13:01:26Z</time>
      </trkpt>
      <trkpt lat="46.64581" lon="5.62842">
        <ele>530.3</ele>
        <time>2014-08-02T13:01:43Z</time>
      </trkpt>
      <trkpt lat="46.64558" lon="5.62777">
        <ele>531.27</ele>
        <time>2014-08-02T13:01:59Z</time>
      </trkpt>
      <trkpt lat="46.64537" lon="5.62712">
        <ele>532.23</ele>
        <time>2014-08-02T13:02:15Z</time>
      </trkpt>
      <trkpt lat="46.64513" lon="5.62644">
        <ele>533.19</ele>
        <time>2014-08-02T13:02:31Z</time>
      </trkpt>
      <trkpt lat="46.64489" lon="5.62576">
        <ele>534.15</ele>
        <time>2014-08-02T13:02:47Z</time>
      </trkpt>
      <trkpt lat="46.64468" lon="5.62512">
        <ele>535.11</ele>
        <time>2014-08-02T13:03:02Z</time>
      </trkpt>
      <trkpt lat="46.64438" lon="5.62431">
        <ele>536.07</ele>
        <time>2014-08-02T13:03:20Z</time>
      </trkpt>
      <trkpt lat="46.64415" lon="5.62405">
        <ele>536.07</ele>
        <time>2014-08-02T13:03:30Z</time>
      </trkpt>
      <trkpt lat="46.64408" lon="5.62406">
        <ele>536.07</ele>
        <time>2014-08-02T13:03:32Z</time>
      </trkpt>
      <trkpt lat="46.64395" lon="5.62405">
        <ele>535.59</ele>
        <time>2014-08-02T13:03:35Z</time>
      </trkpt>
      <trkpt lat="46.6432" lon="5.62383">
        <ele>533.67</ele>
        <time>2014-08-02T13:03:50Z</time>
      </trkpt>
      <trkpt lat="46.64274" lon="5.62369">
        <ele>534.63</ele>
        <time>2014-08-02T13:04:02Z</time>
      </trkpt>
      <trkpt lat="46.64269" lon="5.62369">
        <ele>534.63</ele>
        <time>2014-08-02T13:04:07Z</time>
      </trkpt>
      <trkpt lat="46.64277" lon="5.62371">
        <ele>534.63</ele>
        <time>2014-08-02T13:04:11Z</time>
      </trkpt>
      <trkpt lat="46.64331" lon="5.62385">
        <ele>533.67</ele>
        <time>2014-08-02T13:04:24Z</time>
      </trkpt>
      <trkpt lat="46.64354" lon="5.62393">
        <ele>533.67</ele>
        <time>2014-08-02T13:04:34Z</time>
      </trkpt>
      <trkpt lat="46.64354" lon="5.62393">
        <ele>533.67</ele>
        <time>2014-08-02T13:04:58Z</time>
      </trkpt>
      <trkpt lat="46.64354" lon="5.62393">
        <ele>533.67</ele>
        <time>2014-08-02T13:05:05Z</time>
      </trkpt>
      <trkpt lat="46.64356" lon="5.62394">
        <ele>533.67</ele>
        <time>2014-08-02T13:05:09Z</time>
      </trkpt>
      <trkpt lat="46.64348" lon="5.62393">
        <ele>533.67</ele>
        <time>2014-08-02T13:05:15Z</time>
      </trkpt>
      <trkpt lat="46.64305" lon="5.62379">
        <ele>534.15</ele>
        <time>2014-08-02T13:05:29Z</time>
      </trkpt>
      <trkpt lat="46.64259" lon="5.62365">
        <ele>535.11</ele>
        <time>2014-08-02T13:05:43Z</time>
      </trkpt>
      <trkpt lat="46.64218" lon="5.62349">
        <ele>536.55</ele>
        <time>2014-08-02T13:05:55Z</time>
      </trkpt>
      <trkpt lat="46.6417" lon="5.6233">
        <ele>536.55</ele>
        <time>2014-08-02T13:06:08Z</time>
      </trkpt>
      <trkpt lat="46.64105" lon="5.62293">
        <ele>537.03</ele>
        <time>2014-08-02T13:06:27Z</time>
      </trkpt>
      <trkpt lat="46.64055" lon="5.62267">
        <ele>538.48</ele>
        <time>2014-08-02T13:06:42Z</time>
      </trkpt>
      <trkpt lat="46.64008" lon="5.6222">
        <ele>537.99</ele>
        <time>2014-08-02T13:06:59Z</time>
      </trkpt>
      <trkpt lat="46.63978" lon="5.62191">
        <ele>537.51</ele>
        <time>2014-08-02T13:07:10Z</time>
      </trkpt>
      <trkpt lat="46.63978" lon="5.62171">
        <ele>537.51</ele>
        <time>2014-08-02T13:07:15Z</time>
      </trkpt>
      <trkpt lat="46.64001" lon="5.62119">
        <ele>538.96</ele>
        <time>2014-08-02T13:07:29Z</time>
      </trkpt>
      <trkpt lat="46.64031" lon="5.6207">
        <ele>539.44</ele>
        <time>2014-08-02T13:07:42Z</time>
      </trkpt>
      <trkpt lat="46.64058" lon="5.62031">
        <ele>541.36</ele>
        <time>2014-08-02T13:07:53Z</time>
      </trkpt>
      <trkpt lat="46.64102" lon="5.61959">
        <ele>541.84</ele>
        <time>2014-08-02T13:08:09Z</time>
      </trkpt>
      <trkpt lat="46.64113" lon="5.6194">
        <ele>541.36</ele>
        <time>2014-08-02T13:08:12Z</time>
      </trkpt>
      <trkpt lat="46.64174" lon="5.61843">
        <ele>539.92</ele>
        <time>2014-08-02T13:08:28Z</time>
      </trkpt>
      <trkpt lat="46.64177" lon="5.61838">
        <ele>540.4</ele>
        <time>2014-08-02T13:08:29Z</time>
      </trkpt>
      <trkpt lat="46.64187" lon="5.61823">
        <ele>540.4</ele>
        <time>2014-08-02T13:08:32Z</time>
      </trkpt>
      <trkpt lat="46.64222" lon="5.61737">
        <ele>538.96</ele>
        <time>2014-08-02T13:08:45Z</time>
      </trkpt>
      <trkpt lat="46.64284" lon="5.61592">
        <ele>536.55</ele>
        <time>2014-08-02T13:09:04Z</time>
      </trkpt>
      <trkpt lat="46.64314" lon="5.61493">
        <ele>537.03</ele>
        <time>2014-08-02T13:09:17Z</time>
      </trkpt>
      <trkpt lat="46.64318" lon="5.6148">
        <ele>536.55</ele>
        <time>2014-08-02T13:09:19Z</time>
      </trkpt>
      <trkpt lat="46.64328" lon="5.61456">
        <ele>537.03</ele>
        <time>2014-08-02T13:09:23Z</time>
      </trkpt>
      <trkpt lat="46.6434" lon="5.61415">
        <ele>537.51</ele>
        <time>2014-08-02T13:09:31Z</time>
      </trkpt>
      <trkpt lat="46.64357" lon="5.61372">
        <ele>537.51</ele>
        <time>2014-08-02T13:09:41Z</time>
      </trkpt>
      <trkpt lat="46.64365" lon="5.61356">
        <ele>537.99</ele>
        <time>2014-08-02T13:09:45Z</time>
      </trkpt>
      <trkpt lat="46.64386" lon="5.61319">
        <ele>537.99</ele>
        <time>2014-08-02T13:09:52Z</time>
      </trkpt>
      <trkpt lat="46.64396" lon="5.61305">
        <ele>538.48</ele>
        <time>2014-08-02T13:09:55Z</time>
      </trkpt>
      <trkpt lat="46.64411" lon="5.61289">
        <ele>537.51</ele>
        <time>2014-08-02T13:09:59Z</time>
      </trkpt>
      <trkpt lat="46.64431" lon="5.61266">
        <ele>537.03</ele>
        <time>2014-08-02T13:10:04Z</time>
      </trkpt>
      <trkpt lat="46.64485" lon="5.61212">
        <ele>535.59</ele>
        <time>2014-08-02T13:10:14Z</time>
      </trkpt>
      <trkpt lat="46.64544" lon="5.61153">
        <ele>535.59</ele>
        <time>2014-08-02T13:10:25Z</time>
      </trkpt>
      <trkpt lat="46.64565" lon="5.61134">
        <ele>535.59</ele>
        <time>2014-08-02T13:10:29Z</time>
      </trkpt>
      <trkpt lat="46.64616" lon="5.61074">
        <ele>535.59</ele>
        <time>2014-08-02T13:10:40Z</time>
      </trkpt>
      <trkpt lat="46.64641" lon="5.61044">
        <ele>536.07</ele>
        <time>2014-08-02T13:10:46Z</time>
      </trkpt>
      <trkpt lat="46.64657" lon="5.61031">
        <ele>535.59</ele>
        <time>2014-08-02T13:10:50Z</time>
      </trkpt>
      <trkpt lat="46.64677" lon="5.61021">
        <ele>535.11</ele>
        <time>2014-08-02T13:10:54Z</time>
      </trkpt>
      <trkpt lat="46.64702" lon="5.61012">
        <ele>534.63</ele>
        <time>2014-08-02T13:10:59Z</time>
      </trkpt>
      <trkpt lat="46.64742" lon="5.60985">
        <ele>534.15</ele>
        <time>2014-08-02T13:11:05Z</time>
      </trkpt>
      <trkpt lat="46.64813" lon="5.60937">
        <ele>534.15</ele>
        <time>2014-08-02T13:11:18Z</time>
      </trkpt>
      <trkpt lat="46.64864" lon="5.60886">
        <ele>531.27</ele>
        <time>2014-08-02T13:11:28Z</time>
      </trkpt>
      <trkpt lat="46.6487" lon="5.60878">
        <ele>530.79</ele>
        <time>2014-08-02T13:11:29Z</time>
      </trkpt>
      <trkpt lat="46.64932" lon="5.60818">
        <ele>527.42</ele>
        <time>2014-08-02T13:11:38Z</time>
      </trkpt>
      <trkpt lat="46.64979" lon="5.60778">
        <ele>524.06</ele>
        <time>2014-08-02T13:11:44Z</time>
      </trkpt>
      <trkpt lat="46.65023" lon="5.60733">
        <ele>520.69</ele>
        <time>2014-08-02T13:11:49Z</time>
      </trkpt>
      <trkpt lat="46.6506" lon="5.60703">
        <ele>517.33</ele>
        <time>2014-08-02T13:11:53Z</time>
      </trkpt>
      <trkpt lat="46.65099" lon="5.60678">
        <ele>513.96</ele>
        <time>2014-08-02T13:11:57Z</time>
      </trkpt>
      <trkpt lat="46.65119" lon="5.60665">
        <ele>512.52</ele>
        <time>2014-08-02T13:11:59Z</time>
      </trkpt>
      <trkpt lat="46.65174" lon="5.60642">
        <ele>508.67</ele>
        <time>2014-08-02T13:12:04Z</time>
      </trkpt>
      <trkpt lat="46.65217" lon="5.60614">
        <ele>503.39</ele>
        <time>2014-08-02T13:12:08Z</time>
      </trkpt>
      <trkpt lat="46.65264" lon="5.60617">
        <ele>498.58</ele>
        <time>2014-08-02T13:12:13Z</time>
      </trkpt>
      <trkpt lat="46.65285" lon="5.60683">
        <ele>495.22</ele>
        <time>2014-08-02T13:12:18Z</time>
      </trkpt>
      <trkpt lat="46.65291" lon="5.60727">
        <ele>493.29</ele>
        <time>2014-08-02T13:12:21Z</time>
      </trkpt>
      <trkpt lat="46.65302" lon="5.60768">
        <ele>490.41</ele>
        <time>2014-08-02T13:12:24Z</time>
      </trkpt>
      <trkpt lat="46.65331" lon="5.60845">
        <ele>486.56</ele>
        <time>2014-08-02T13:12:29Z</time>
      </trkpt>
      <trkpt lat="46.65349" lon="5.60889">
        <ele>483.2</ele>
        <time>2014-08-02T13:12:32Z</time>
      </trkpt>
      <trkpt lat="46.65362" lon="5.60918">
        <ele>481.28</ele>
        <time>2014-08-02T13:12:34Z</time>
      </trkpt>
      <trkpt lat="46.65375" lon="5.60968">
        <ele>478.39</ele>
        <time>2014-08-02T13:12:37Z</time>
      </trkpt>
      <trkpt lat="46.65402" lon="5.61044">
        <ele>473.59</ele>
        <time>2014-08-02T13:12:42Z</time>
      </trkpt>
      <trkpt lat="46.65419" lon="5.61088">
        <ele>470.7</ele>
        <time>2014-08-02T13:12:45Z</time>
      </trkpt>
      <trkpt lat="46.65432" lon="5.61138">
        <ele>467.82</ele>
        <time>2014-08-02T13:12:48Z</time>
      </trkpt>
      <trkpt lat="46.6544" lon="5.61171">
        <ele>466.38</ele>
        <time>2014-08-02T13:12:50Z</time>
      </trkpt>
      <trkpt lat="46.65464" lon="5.61245">
        <ele>461.57</ele>
        <time>2014-08-02T13:12:55Z</time>
      </trkpt>
      <trkpt lat="46.6548" lon="5.61283">
        <ele>458.69</ele>
        <time>2014-08-02T13:12:58Z</time>
      </trkpt>
      <trkpt lat="46.65489" lon="5.61304">
        <ele>456.76</ele>
        <time>2014-08-02T13:13:00Z</time>
      </trkpt>
      <trkpt lat="46.65498" lon="5.61319">
        <ele>455.8</ele>
        <time>2014-08-02T13:13:02Z</time>
      </trkpt>
      <trkpt lat="46.6551" lon="5.61328">
        <ele>455.32</ele>
        <time>2014-08-02T13:13:06Z</time>
      </trkpt>
      <trkpt lat="46.65521" lon="5.61314">
        <ele>454.84</ele>
        <time>2014-08-02T13:13:15Z</time>
      </trkpt>
      <trkpt lat="46.65521" lon="5.61314">
        <ele>454.36</ele>
        <time>2014-08-02T13:13:34Z</time>
      </trkpt>
      <trkpt lat="46.65521" lon="5.61314">
        <ele>454.36</ele>
        <time>2014-08-02T13:13:57Z</time>
      </trkpt>
      <trkpt lat="46.65521" lon="5.61314">
        <ele>454.36</ele>
        <time>2014-08-02T13:14:19Z</time>
      </trkpt>
      <trkpt lat="46.65522" lon="5.61313">
        <ele>454.84</ele>
        <time>2014-08-02T13:14:45Z</time>
      </trkpt>
      <trkpt lat="46.65521" lon="5.6131">
        <ele>454.84</ele>
        <time>2014-08-02T13:14:51Z</time>
      </trkpt>
      <trkpt lat="46.6552" lon="5.61321">
        <ele>454.84</ele>
        <time>2014-08-02T13:15:02Z</time>
      </trkpt>
      <trkpt lat="46.6552" lon="5.61321">
        <ele>453.88</ele>
        <time>2014-08-02T13:15:06Z</time>
      </trkpt>
      <trkpt lat="46.65527" lon="5.61325">
        <ele>455.32</ele>
        <time>2014-08-02T13:15:55Z</time>
      </trkpt>
      <trkpt lat="46.65528" lon="5.61327">
        <ele>454.84</ele>
        <time>2014-08-02T13:15:56Z</time>
      </trkpt>
      <trkpt lat="46.65528" lon="5.6133">
        <ele>454.84</ele>
        <time>2014-08-02T13:15:58Z</time>
      </trkpt>
      <trkpt lat="46.65528" lon="5.61334">
        <ele>454.36</ele>
        <time>2014-08-02T13:16:01Z</time>
      </trkpt>
      <trkpt lat="46.65547" lon="5.61377">
        <ele>453.4</ele>
        <time>2014-08-02T13:16:23Z</time>
      </trkpt>
      <trkpt lat="46.66272" lon="5.61218">
        <ele>436.58</ele>
        <time>2014-08-02T13:20:31Z</time>
      </trkpt>
      <trkpt lat="46.66277" lon="5.61221">
        <ele>436.58</ele>
        <time>2014-08-02T13:20:35Z</time>
      </trkpt>
      <trkpt lat="46.66275" lon="5.61228">
        <ele>436.58</ele>
        <time>2014-08-02T13:20:47Z</time>
      </trkpt>
      <trkpt lat="46.66275" lon="5.61226">
        <ele>436.58</ele>
        <time>2014-08-02T13:21:14Z</time>
      </trkpt>
      <trkpt lat="46.66279" lon="5.61221">
        <ele>436.1</ele>
        <time>2014-08-02T13:21:47Z</time>
      </trkpt>
      <trkpt lat="46.66282" lon="5.61218">
        <ele>436.1</ele>
        <time>2014-08-02T13:22:03Z</time>
      </trkpt>
      <trkpt lat="46.66282" lon="5.61214">
        <ele>436.1</ele>
        <time>2014-08-02T13:22:17Z</time>
      </trkpt>
      <trkpt lat="46.66284" lon="5.61213">
        <ele>436.58</ele>
        <time>2014-08-02T13:22:33Z</time>
      </trkpt>
      <trkpt lat="46.66292" lon="5.61197">
        <ele>436.1</ele>
        <time>2014-08-02T13:22:42Z</time>
      </trkpt>
      <trkpt lat="46.66308" lon="5.61142">
        <ele>434.65</ele>
        <time>2014-08-02T13:22:54Z</time>
      </trkpt>
      <trkpt lat="46.66319" lon="5.61108">
        <ele>433.69</ele>
        <time>2014-08-02T13:23:01Z</time>
      </trkpt>
      <trkpt lat="46.66324" lon="5.61074">
        <ele>433.21</ele>
        <time>2014-08-02T13:23:07Z</time>
      </trkpt>
      <trkpt lat="46.66326" lon="5.61064">
        <ele>433.21</ele>
        <time>2014-08-02T13:23:09Z</time>
      </trkpt>
      <trkpt lat="46.66327" lon="5.61047">
        <ele>432.25</ele>
        <time>2014-08-02T13:23:12Z</time>
      </trkpt>
      <trkpt lat="46.66322" lon="5.60972">
        <ele>431.29</ele>
        <time>2014-08-02T13:23:24Z</time>
      </trkpt>
      <trkpt lat="46.66318" lon="5.60947">
        <ele>430.81</ele>
        <time>2014-08-02T13:23:28Z</time>
      </trkpt>
      <trkpt lat="46.6631" lon="5.60913">
        <ele>430.33</ele>
        <time>2014-08-02T13:23:34Z</time>
      </trkpt>
      <trkpt lat="46.66304" lon="5.60879">
        <ele>429.85</ele>
        <time>2014-08-02T13:23:40Z</time>
      </trkpt>
      <trkpt lat="46.66296" lon="5.60845">
        <ele>428.89</ele>
        <time>2014-08-02T13:23:46Z</time>
      </trkpt>
      <trkpt lat="46.66289" lon="5.60828">
        <ele>428.89</ele>
        <time>2014-08-02T13:23:49Z</time>
      </trkpt>
      <trkpt lat="46.66278" lon="5.60802">
        <ele>427.92</ele>
        <time>2014-08-02T13:23:53Z</time>
      </trkpt>
      <trkpt lat="46.66269" lon="5.60782">
        <ele>427.44</ele>
        <time>2014-08-02T13:23:56Z</time>
      </trkpt>
      <trkpt lat="46.66258" lon="5.60763">
        <ele>427.44</ele>
        <time>2014-08-02T13:23:59Z</time>
      </trkpt>
      <trkpt lat="46.66244" lon="5.60738">
        <ele>426.96</ele>
        <time>2014-08-02T13:24:03Z</time>
      </trkpt>
      <trkpt lat="46.66227" lon="5.60716">
        <ele>426.48</ele>
        <time>2014-08-02T13:24:07Z</time>
      </trkpt>
      <trkpt lat="46.66204" lon="5.60691">
        <ele>425.52</ele>
        <time>2014-08-02T13:24:12Z</time>
      </trkpt>
      <trkpt lat="46.66162" lon="5.60662">
        <ele>424.56</ele>
        <time>2014-08-02T13:24:20Z</time>
      </trkpt>
      <trkpt lat="46.66095" lon="5.60625">
        <ele>422.64</ele>
        <time>2014-08-02T13:24:34Z</time>
      </trkpt>
      <trkpt lat="46.66077" lon="5.60609">
        <ele>421.68</ele>
        <time>2014-08-02T13:24:44Z</time>
      </trkpt>
      <trkpt lat="46.66056" lon="5.6059">
        <ele>421.19</ele>
        <time>2014-08-02T13:24:54Z</time>
      </trkpt>
      <trkpt lat="46.66012" lon="5.60562">
        <ele>419.27</ele>
        <time>2014-08-02T13:25:07Z</time>
      </trkpt>
      <trkpt lat="46.65991" lon="5.60551">
        <ele>419.27</ele>
        <time>2014-08-02T13:25:12Z</time>
      </trkpt>
      <trkpt lat="46.65942" lon="5.60512">
        <ele>417.83</ele>
        <time>2014-08-02T13:25:25Z</time>
      </trkpt>
      <trkpt lat="46.6593" lon="5.60503">
        <ele>417.83</ele>
        <time>2014-08-02T13:25:28Z</time>
      </trkpt>
      <trkpt lat="46.6592" lon="5.60492">
        <ele>417.83</ele>
        <time>2014-08-02T13:25:31Z</time>
      </trkpt>
      <trkpt lat="46.65892" lon="5.6046">
        <ele>417.35</ele>
        <time>2014-08-02T13:25:40Z</time>
      </trkpt>
      <trkpt lat="46.65879" lon="5.6045">
        <ele>417.35</ele>
        <time>2014-08-02T13:25:45Z</time>
      </trkpt>
      <trkpt lat="46.65858" lon="5.60431">
        <ele>416.39</ele>
        <time>2014-08-02T13:25:56Z</time>
      </trkpt>
      <trkpt lat="46.65841" lon="5.60419">
        <ele>417.35</ele>
        <time>2014-08-02T13:26:08Z</time>
      </trkpt>
      <trkpt lat="46.65831" lon="5.604">
        <ele>417.35</ele>
        <time>2014-08-02T13:26:19Z</time>
      </trkpt>
      <trkpt lat="46.65827" lon="5.60392">
        <ele>417.35</ele>
        <time>2014-08-02T13:26:22Z</time>
      </trkpt>
      <trkpt lat="46.65822" lon="5.60366">
        <ele>417.35</ele>
        <time>2014-08-02T13:26:30Z</time>
      </trkpt>
      <trkpt lat="46.6582" lon="5.60357">
        <ele>417.35</ele>
        <time>2014-08-02T13:26:33Z</time>
      </trkpt>
      <trkpt lat="46.65817" lon="5.60341">
        <ele>416.87</ele>
        <time>2014-08-02T13:26:38Z</time>
      </trkpt>
      <trkpt lat="46.65817" lon="5.60261">
        <ele>416.87</ele>
        <time>2014-08-02T13:26:54Z</time>
      </trkpt>
      <trkpt lat="46.65826" lon="5.60176">
        <ele>416.87</ele>
        <time>2014-08-02T13:27:09Z</time>
      </trkpt>
      <trkpt lat="46.65822" lon="5.60143">
        <ele>416.39</ele>
        <time>2014-08-02T13:27:18Z</time>
      </trkpt>
      <trkpt lat="46.65818" lon="5.60141">
        <ele>416.39</ele>
        <time>2014-08-02T13:27:24Z</time>
      </trkpt>
      <trkpt lat="46.65807" lon="5.60138">
        <ele>416.39</ele>
        <time>2014-08-02T13:27:40Z</time>
      </trkpt>
      <trkpt lat="46.65807" lon="5.60139">
        <ele>415.43</ele>
        <time>2014-08-02T13:27:48Z</time>
      </trkpt>
      <trkpt lat="46.65806" lon="5.60138">
        <ele>415.91</ele>
        <time>2014-08-02T13:33:48Z</time>
      </trkpt>
      <trkpt lat="46.65803" lon="5.60142">
        <ele>415.91</ele>
        <time>2014-08-02T13:33:49Z</time>
      </trkpt>
      <trkpt lat="46.65806" lon="5.60138">
        <ele>412.54</ele>
        <time>2014-08-02T13:34:10Z</time>
      </trkpt>
      <trkpt lat="46.65807" lon="5.6014">
        <ele>409.18</ele>
        <time>2014-08-02T13:34:21Z</time>
      </trkpt>
      <trkpt lat="46.65809" lon="5.60142">
        <ele>407.74</ele>
        <time>2014-08-02T13:34:47Z</time>
      </trkpt>
      <trkpt lat="46.65823" lon="5.60141">
        <ele>408.22</ele>
        <time>2014-08-02T13:35:01Z</time>
      </trkpt>
      <trkpt lat="46.65836" lon="5.60137">
        <ele>408.22</ele>
        <time>2014-08-02T13:35:15Z</time>
      </trkpt>
      <trkpt lat="46.65839" lon="5.60121">
        <ele>408.22</ele>
        <time>2014-08-02T13:35:21Z</time>
      </trkpt>
      <trkpt lat="46.65855" lon="5.60066">
        <ele>408.22</ele>
        <time>2014-08-02T13:35:35Z</time>
      </trkpt>
      <trkpt lat="46.65877" lon="5.60022">
        <ele>408.22</ele>
        <time>2014-08-02T13:35:46Z</time>
      </trkpt>
      <trkpt lat="46.65893" lon="5.60003">
        <ele>407.74</ele>
        <time>2014-08-02T13:35:51Z</time>
      </trkpt>
      <trkpt lat="46.65906" lon="5.59988">
        <ele>407.74</ele>
        <time>2014-08-02T13:35:55Z</time>
      </trkpt>
      <trkpt lat="46.65924" lon="5.59969">
        <ele>407.26</ele>
        <time>2014-08-02T13:36:00Z</time>
      </trkpt>
      <trkpt lat="46.65979" lon="5.5992">
        <ele>405.81</ele>
        <time>2014-08-02T13:36:13Z</time>
      </trkpt>
      <trkpt lat="46.65983" lon="5.59916">
        <ele>405.81</ele>
        <time>2014-08-02T13:36:14Z</time>
      </trkpt>
      <trkpt lat="46.66" lon="5.599">
        <ele>404.85</ele>
        <time>2014-08-02T13:36:18Z</time>
      </trkpt>
      <trkpt lat="46.66063" lon="5.59863">
        <ele>403.41</ele>
        <time>2014-08-02T13:36:30Z</time>
      </trkpt>
      <trkpt lat="46.66125" lon="5.59843">
        <ele>401.01</ele>
        <time>2014-08-02T13:36:42Z</time>
      </trkpt>
      <trkpt lat="46.66142" lon="5.5984">
        <ele>400.53</ele>
        <time>2014-08-02T13:36:55Z</time>
      </trkpt>
      <trkpt lat="46.66142" lon="5.5984">
        <ele>401.01</ele>
        <time>2014-08-02T13:37:22Z</time>
      </trkpt>
      <trkpt lat="46.66145" lon="5.59841">
        <ele>400.53</ele>
        <time>2014-08-02T13:37:26Z</time>
      </trkpt>
      <trkpt lat="46.66157" lon="5.59838">
        <ele>400.53</ele>
        <time>2014-08-02T13:37:31Z</time>
      </trkpt>
      <trkpt lat="46.66211" lon="5.59825">
        <ele>399.08</ele>
        <time>2014-08-02T13:37:44Z</time>
      </trkpt>
      <trkpt lat="46.66264" lon="5.5981">
        <ele>397.64</ele>
        <time>2014-08-02T13:37:54Z</time>
      </trkpt>
      <trkpt lat="46.66342" lon="5.59772">
        <ele>395.72</ele>
        <time>2014-08-02T13:38:08Z</time>
      </trkpt>
      <trkpt lat="46.66348" lon="5.59769">
        <ele>395.24</ele>
        <time>2014-08-02T13:38:09Z</time>
      </trkpt>
      <trkpt lat="46.66355" lon="5.59764">
        <ele>395.24</ele>
        <time>2014-08-02T13:38:11Z</time>
      </trkpt>
      <trkpt lat="46.66381" lon="5.59741">
        <ele>394.28</ele>
        <time>2014-08-02T13:38:18Z</time>
      </trkpt>
      <trkpt lat="46.66392" lon="5.5973">
        <ele>394.28</ele>
        <time>2014-08-02T13:38:21Z</time>
      </trkpt>
      <trkpt lat="46.66408" lon="5.59716">
        <ele>393.32</ele>
        <time>2014-08-02T13:38:25Z</time>
      </trkpt>
      <trkpt lat="46.66431" lon="5.59688">
        <ele>392.36</ele>
        <time>2014-08-02T13:38:30Z</time>
      </trkpt>
      <trkpt lat="46.66452" lon="5.59657">
        <ele>391.39</ele>
        <time>2014-08-02T13:38:35Z</time>
      </trkpt>
      <trkpt lat="46.66456" lon="5.59651">
        <ele>391.39</ele>
        <time>2014-08-02T13:38:36Z</time>
      </trkpt>
      <trkpt lat="46.66458" lon="5.59646">
        <ele>391.39</ele>
        <time>2014-08-02T13:38:37Z</time>
      </trkpt>
      <trkpt lat="46.66461" lon="5.59641">
        <ele>391.39</ele>
        <time>2014-08-02T13:38:38Z</time>
      </trkpt>
      <trkpt lat="46.66468" lon="5.59626">
        <ele>390.91</ele>
        <time>2014-08-02T13:38:41Z</time>
      </trkpt>
      <trkpt lat="46.66475" lon="5.59608">
        <ele>390.43</ele>
        <time>2014-08-02T13:38:44Z</time>
      </trkpt>
      <trkpt lat="46.66492" lon="5.59568">
        <ele>389.47</ele>
        <time>2014-08-02T13:38:50Z</time>
      </trkpt>
      <trkpt lat="46.66506" lon="5.59521">
        <ele>388.51</ele>
        <time>2014-08-02T13:38:57Z</time>
      </trkpt>
      <trkpt lat="46.66511" lon="5.59489">
        <ele>388.51</ele>
        <time>2014-08-02T13:39:01Z</time>
      </trkpt>
      <trkpt lat="46.66517" lon="5.59443">
        <ele>387.55</ele>
        <time>2014-08-02T13:39:07Z</time>
      </trkpt>
      <trkpt lat="46.66525" lon="5.59367">
        <ele>386.11</ele>
        <time>2014-08-02T13:39:15Z</time>
      </trkpt>
      <trkpt lat="46.66534" lon="5.59304">
        <ele>385.15</ele>
        <time>2014-08-02T13:39:22Z</time>
      </trkpt>
      <trkpt lat="46.66541" lon="5.59252">
        <ele>384.18</ele>
        <time>2014-08-02T13:39:28Z</time>
      </trkpt>
      <trkpt lat="46.66553" lon="5.59202">
        <ele>383.22</ele>
        <time>2014-08-02T13:39:34Z</time>
      </trkpt>
      <trkpt lat="46.66565" lon="5.59174">
        <ele>382.74</ele>
        <time>2014-08-02T13:39:38Z</time>
      </trkpt>
      <trkpt lat="46.66577" lon="5.59135">
        <ele>381.78</ele>
        <time>2014-08-02T13:39:43Z</time>
      </trkpt>
      <trkpt lat="46.66582" lon="5.59118">
        <ele>381.78</ele>
        <time>2014-08-02T13:39:45Z</time>
      </trkpt>
      <trkpt lat="46.66635" lon="5.5901">
        <ele>379.38</ele>
        <time>2014-08-02T13:39:59Z</time>
      </trkpt>
      <trkpt lat="46.66643" lon="5.58996">
        <ele>378.9</ele>
        <time>2014-08-02T13:40:01Z</time>
      </trkpt>
      <trkpt lat="46.66684" lon="5.58958">
        <ele>377.94</ele>
        <time>2014-08-02T13:40:09Z</time>
      </trkpt>
      <trkpt lat="46.66708" lon="5.58944">
        <ele>376.97</ele>
        <time>2014-08-02T13:40:14Z</time>
      </trkpt>
      <trkpt lat="46.66721" lon="5.58937">
        <ele>376.49</ele>
        <time>2014-08-02T13:40:17Z</time>
      </trkpt>
      <trkpt lat="46.66739" lon="5.58933">
        <ele>375.05</ele>
        <time>2014-08-02T13:40:21Z</time>
      </trkpt>
      <trkpt lat="46.66762" lon="5.58932">
        <ele>373.61</ele>
        <time>2014-08-02T13:40:25Z</time>
      </trkpt>
      <trkpt lat="46.66769" lon="5.5893">
        <ele>373.13</ele>
        <time>2014-08-02T13:40:26Z</time>
      </trkpt>
      <trkpt lat="46.66786" lon="5.58924">
        <ele>371.21</ele>
        <time>2014-08-02T13:40:30Z</time>
      </trkpt>
      <trkpt lat="46.66789" lon="5.5892">
        <ele>369.76</ele>
        <time>2014-08-02T13:40:41Z</time>
      </trkpt>
      <trkpt lat="46.6679" lon="5.58918">
        <ele>369.76</ele>
        <time>2014-08-02T13:40:44Z</time>
      </trkpt>
      <trkpt lat="46.66803" lon="5.58899">
        <ele>368.32</ele>
        <time>2014-08-02T13:40:49Z</time>
      </trkpt>
      <trkpt lat="46.66826" lon="5.5886">
        <ele>364.48</ele>
        <time>2014-08-02T13:40:54Z</time>
      </trkpt>
      <trkpt lat="46.66848" lon="5.58821">
        <ele>360.63</ele>
        <time>2014-08-02T13:40:58Z</time>
      </trkpt>
      <trkpt lat="46.66869" lon="5.58784">
        <ele>357.27</ele>
        <time>2014-08-02T13:41:02Z</time>
      </trkpt>
      <trkpt lat="46.66874" lon="5.58776">
        <ele>356.31</ele>
        <time>2014-08-02T13:41:03Z</time>
      </trkpt>
      <trkpt lat="46.66901" lon="5.58743">
        <ele>351.98</ele>
        <time>2014-08-02T13:41:08Z</time>
      </trkpt>
      <trkpt lat="46.66918" lon="5.58724">
        <ele>349.58</ele>
        <time>2014-08-02T13:41:13Z</time>
      </trkpt>
      <trkpt lat="46.66921" lon="5.58711">
        <ele>348.62</ele>
        <time>2014-08-02T13:41:25Z</time>
      </trkpt>
      <trkpt lat="46.66923" lon="5.58708">
        <ele>348.13</ele>
        <time>2014-08-02T13:41:37Z</time>
      </trkpt>
      <trkpt lat="46.66923" lon="5.58708">
        <ele>347.65</ele>
        <time>2014-08-02T13:41:59Z</time>
      </trkpt>
      <trkpt lat="46.66923" lon="5.58707">
        <ele>347.65</ele>
        <time>2014-08-02T13:42:22Z</time>
      </trkpt>
      <trkpt lat="46.66922" lon="5.58701">
        <ele>347.17</ele>
        <time>2014-08-02T13:42:42Z</time>
      </trkpt>
      <trkpt lat="46.66941" lon="5.58668">
        <ele>343.81</ele>
        <time>2014-08-02T13:42:49Z</time>
      </trkpt>
      <trkpt lat="46.66945" lon="5.58662">
        <ele>342.85</ele>
        <time>2014-08-02T13:42:50Z</time>
      </trkpt>
      <trkpt lat="46.66968" lon="5.58629">
        <ele>339.48</ele>
        <time>2014-08-02T13:42:56Z</time>
      </trkpt>
      <trkpt lat="46.66977" lon="5.58618">
        <ele>338.04</ele>
        <time>2014-08-02T13:42:59Z</time>
      </trkpt>
      <trkpt lat="46.66979" lon="5.58617">
        <ele>337.56</ele>
        <time>2014-08-02T13:43:00Z</time>
      </trkpt>
      <trkpt lat="46.66979" lon="5.58613">
        <ele>337.56</ele>
        <time>2014-08-02T13:43:08Z</time>
      </trkpt>
      <trkpt lat="46.6697" lon="5.5861">
        <ele>337.08</ele>
        <time>2014-08-02T13:43:13Z</time>
      </trkpt>
      <trkpt lat="46.6695" lon="5.58609">
        <ele>335.64</ele>
        <time>2014-08-02T13:43:19Z</time>
      </trkpt>
      <trkpt lat="46.66932" lon="5.58608">
        <ele>334.68</ele>
        <time>2014-08-02T13:43:23Z</time>
      </trkpt>
      <trkpt lat="46.669" lon="5.58567">
        <ele>330.83</ele>
        <time>2014-08-02T13:43:32Z</time>
      </trkpt>
      <trkpt lat="46.66897" lon="5.58548">
        <ele>328.91</ele>
        <time>2014-08-02T13:43:34Z</time>
      </trkpt>
      <trkpt lat="46.66892" lon="5.58498">
        <ele>325.06</ele>
        <time>2014-08-02T13:43:39Z</time>
      </trkpt>
      <trkpt lat="46.66888" lon="5.5845">
        <ele>321.22</ele>
        <time>2014-08-02T13:43:46Z</time>
      </trkpt>
      <trkpt lat="46.66888" lon="5.58447">
        <ele>320.74</ele>
        <time>2014-08-02T13:43:47Z</time>
      </trkpt>
      <trkpt lat="46.66892" lon="5.58436">
        <ele>320.26</ele>
        <time>2014-08-02T13:43:50Z</time>
      </trkpt>
      <trkpt lat="46.66907" lon="5.58407">
        <ele>318.33</ele>
        <time>2014-08-02T13:43:57Z</time>
      </trkpt>
      <trkpt lat="46.6692" lon="5.58379">
        <ele>316.89</ele>
        <time>2014-08-02T13:44:01Z</time>
      </trkpt>
      <trkpt lat="46.66943" lon="5.58299">
        <ele>315.45</ele>
        <time>2014-08-02T13:44:12Z</time>
      </trkpt>
      <trkpt lat="46.66962" lon="5.58288">
        <ele>314.49</ele>
        <time>2014-08-02T13:44:19Z</time>
      </trkpt>
      <trkpt lat="46.66994" lon="5.58284">
        <ele>313.53</ele>
        <time>2014-08-02T13:44:28Z</time>
      </trkpt>
      <trkpt lat="46.67011" lon="5.58279">
        <ele>313.05</ele>
        <time>2014-08-02T13:44:32Z</time>
      </trkpt>
      <trkpt lat="46.67033" lon="5.58268">
        <ele>312.57</ele>
        <time>2014-08-02T13:44:37Z</time>
      </trkpt>
      <trkpt lat="46.67049" lon="5.58251">
        <ele>312.57</ele>
        <time>2014-08-02T13:44:41Z</time>
      </trkpt>
      <trkpt lat="46.67074" lon="5.58185">
        <ele>310.64</ele>
        <time>2014-08-02T13:44:51Z</time>
      </trkpt>
      <trkpt lat="46.6708" lon="5.58171">
        <ele>310.16</ele>
        <time>2014-08-02T13:44:53Z</time>
      </trkpt>
      <trkpt lat="46.67114" lon="5.5811">
        <ele>307.28</ele>
        <time>2014-08-02T13:45:01Z</time>
      </trkpt>
      <trkpt lat="46.67118" lon="5.58101">
        <ele>307.28</ele>
        <time>2014-08-02T13:45:02Z</time>
      </trkpt>
      <trkpt lat="46.67147" lon="5.58026">
        <ele>303.91</ele>
        <time>2014-08-02T13:45:09Z</time>
      </trkpt>
      <trkpt lat="46.67165" lon="5.57983">
        <ele>301.51</ele>
        <time>2014-08-02T13:45:13Z</time>
      </trkpt>
      <trkpt lat="46.67198" lon="5.57928">
        <ele>299.11</ele>
        <time>2014-08-02T13:45:19Z</time>
      </trkpt>
      <trkpt lat="46.67217" lon="5.57883">
        <ele>297.18</ele>
        <time>2014-08-02T13:45:27Z</time>
      </trkpt>
      <trkpt lat="46.67218" lon="5.57882">
        <ele>297.18</ele>
        <time>2014-08-02T13:45:38Z</time>
      </trkpt>
      <trkpt lat="46.67218" lon="5.57882">
        <ele>297.18</ele>
        <time>2014-08-02T13:45:43Z</time>
      </trkpt>
      <trkpt lat="46.67209" lon="5.57857">
        <ele>296.7</ele>
        <time>2014-08-02T13:45:51Z</time>
      </trkpt>
      <trkpt lat="46.67148" lon="5.57779">
        <ele>294.78</ele>
        <time>2014-08-02T13:46:08Z</time>
      </trkpt>
      <trkpt lat="46.67094" lon="5.5771">
        <ele>292.38</ele>
        <time>2014-08-02T13:46:21Z</time>
      </trkpt>
      <trkpt lat="46.67071" lon="5.57674">
        <ele>290.94</ele>
        <time>2014-08-02T13:46:27Z</time>
      </trkpt>
      <trkpt lat="46.67029" lon="5.5758">
        <ele>287.57</ele>
        <time>2014-08-02T13:46:40Z</time>
      </trkpt>
      <trkpt lat="46.66999" lon="5.57512">
        <ele>286.13</ele>
        <time>2014-08-02T13:46:49Z</time>
      </trkpt>
      <trkpt lat="46.66979" lon="5.57414">
        <ele>285.17</ele>
        <time>2014-08-02T13:47:01Z</time>
      </trkpt>
      <trkpt lat="46.6697" lon="5.5739">
        <ele>285.17</ele>
        <time>2014-08-02T13:47:04Z</time>
      </trkpt>
      <trkpt lat="46.66965" lon="5.57361">
        <ele>284.69</ele>
        <time>2014-08-02T13:47:08Z</time>
      </trkpt>
      <trkpt lat="46.66964" lon="5.57345">
        <ele>284.21</ele>
        <time>2014-08-02T13:47:10Z</time>
      </trkpt>
      <trkpt lat="46.66964" lon="5.57322">
        <ele>283.73</ele>
        <time>2014-08-02T13:47:14Z</time>
      </trkpt>
      <trkpt lat="46.66965" lon="5.57316">
        <ele>283.25</ele>
        <time>2014-08-02T13:47:25Z</time>
      </trkpt>
      <trkpt lat="46.66981" lon="5.57271">
        <ele>282.28</ele>
        <time>2014-08-02T13:47:34Z</time>
      </trkpt>
      <trkpt lat="46.66995" lon="5.5725">
        <ele>281.8</ele>
        <time>2014-08-02T13:47:38Z</time>
      </trkpt>
      <trkpt lat="46.67006" lon="5.57232">
        <ele>281.8</ele>
        <time>2014-08-02T13:47:42Z</time>
      </trkpt>
      <trkpt lat="46.67031" lon="5.57232">
        <ele>281.8</ele>
        <time>2014-08-02T13:47:48Z</time>
      </trkpt>
      <trkpt lat="46.67067" lon="5.57293">
        <ele>282.28</ele>
        <time>2014-08-02T13:47:59Z</time>
      </trkpt>
      <trkpt lat="46.67072" lon="5.57307">
        <ele>282.28</ele>
        <time>2014-08-02T13:48:01Z</time>
      </trkpt>
      <trkpt lat="46.67116" lon="5.57399">
        <ele>283.25</ele>
        <time>2014-08-02T13:48:17Z</time>
      </trkpt>
      <trkpt lat="46.6715" lon="5.57465">
        <ele>284.69</ele>
        <time>2014-08-02T13:48:31Z</time>
      </trkpt>
      <trkpt lat="46.6716" lon="5.57486">
        <ele>285.17</ele>
        <time>2014-08-02T13:48:35Z</time>
      </trkpt>
      <trkpt lat="46.67176" lon="5.57509">
        <ele>285.65</ele>
        <time>2014-08-02T13:48:40Z</time>
      </trkpt>
      <trkpt lat="46.67196" lon="5.57544">
        <ele>286.13</ele>
        <time>2014-08-02T13:48:47Z</time>
      </trkpt>
      <trkpt lat="46.67215" lon="5.57564">
        <ele>286.61</ele>
        <time>2014-08-02T13:48:52Z</time>
      </trkpt>
      <trkpt lat="46.67231" lon="5.57579">
        <ele>287.09</ele>
        <time>2014-08-02T13:48:56Z</time>
      </trkpt>
      <trkpt lat="46.67243" lon="5.57597">
        <ele>287.57</ele>
        <time>2014-08-02T13:49:00Z</time>
      </trkpt>
      <trkpt lat="46.67256" lon="5.57601">
        <ele>287.57</ele>
        <time>2014-08-02T13:49:04Z</time>
      </trkpt>
      <trkpt lat="46.67293" lon="5.57618">
        <ele>288.05</ele>
        <time>2014-08-02T13:49:15Z</time>
      </trkpt>
      <trkpt lat="46.67301" lon="5.57621">
        <ele>288.53</ele>
        <time>2014-08-02T13:49:17Z</time>
      </trkpt>
      <trkpt lat="46.67313" lon="5.57626">
        <ele>288.53</ele>
        <time>2014-08-02T13:49:20Z</time>
      </trkpt>
      <trkpt lat="46.67382" lon="5.57653">
        <ele>290.46</ele>
        <time>2014-08-02T13:49:36Z</time>
      </trkpt>
      <trkpt lat="46.67456" lon="5.57663">
        <ele>292.38</ele>
        <time>2014-08-02T13:49:52Z</time>
      </trkpt>
      <trkpt lat="46.67512" lon="5.57658">
        <ele>294.3</ele>
        <time>2014-08-02T13:50:05Z</time>
      </trkpt>
      <trkpt lat="46.6752" lon="5.57655">
        <ele>294.3</ele>
        <time>2014-08-02T13:50:07Z</time>
      </trkpt>
      <trkpt lat="46.67589" lon="5.57626">
        <ele>297.18</ele>
        <time>2014-08-02T13:50:24Z</time>
      </trkpt>
      <trkpt lat="46.6765" lon="5.57582">
        <ele>300.55</ele>
        <time>2014-08-02T13:50:41Z</time>
      </trkpt>
      <trkpt lat="46.67703" lon="5.57528">
        <ele>302.47</ele>
        <time>2014-08-02T13:50:57Z</time>
      </trkpt>
      <trkpt lat="46.67771" lon="5.57453">
        <ele>302.47</ele>
        <time>2014-08-02T13:51:16Z</time>
      </trkpt>
      <trkpt lat="46.67851" lon="5.57369">
        <ele>301.99</ele>
        <time>2014-08-02T13:51:34Z</time>
      </trkpt>
      <trkpt lat="46.67873" lon="5.57345">
        <ele>302.47</ele>
        <time>2014-08-02T13:51:39Z</time>
      </trkpt>
      <trkpt lat="46.67927" lon="5.57287">
        <ele>303.43</ele>
        <time>2014-08-02T13:51:54Z</time>
      </trkpt>
      <trkpt lat="46.67946" lon="5.57268">
        <ele>304.39</ele>
        <time>2014-08-02T13:52:05Z</time>
      </trkpt>
      <trkpt lat="46.67976" lon="5.57231">
        <ele>305.84</ele>
        <time>2014-08-02T13:52:17Z</time>
      </trkpt>
      <trkpt lat="46.68019" lon="5.57188">
        <ele>306.8</ele>
        <time>2014-08-02T13:52:31Z</time>
      </trkpt>
      <trkpt lat="46.68051" lon="5.57145">
        <ele>308.24</ele>
        <time>2014-08-02T13:52:43Z</time>
      </trkpt>
      <trkpt lat="46.68089" lon="5.57108">
        <ele>308.24</ele>
        <time>2014-08-02T13:52:56Z</time>
      </trkpt>
      <trkpt lat="46.68146" lon="5.57059">
        <ele>307.28</ele>
        <time>2014-08-02T13:53:13Z</time>
      </trkpt>
      <trkpt lat="46.6816" lon="5.57044">
        <ele>306.8</ele>
        <time>2014-08-02T13:53:17Z</time>
      </trkpt>
      <trkpt lat="46.68218" lon="5.56978">
        <ele>302.95</ele>
        <time>2014-08-02T13:53:30Z</time>
      </trkpt>
      <trkpt lat="46.68258" lon="5.56938">
        <ele>300.07</ele>
        <time>2014-08-02T13:53:36Z</time>
      </trkpt>
      <trkpt lat="46.68288" lon="5.56906">
        <ele>296.7</ele>
        <time>2014-08-02T13:53:40Z</time>
      </trkpt>
      <trkpt lat="46.68321" lon="5.56873">
        <ele>293.34</ele>
        <time>2014-08-02T13:53:44Z</time>
      </trkpt>
      <trkpt lat="46.68329" lon="5.56866">
        <ele>292.38</ele>
        <time>2014-08-02T13:53:45Z</time>
      </trkpt>
      <trkpt lat="46.68358" lon="5.56865">
        <ele>288.53</ele>
        <time>2014-08-02T13:53:49Z</time>
      </trkpt>
      <trkpt lat="46.68392" lon="5.56846">
        <ele>284.69</ele>
        <time>2014-08-02T13:53:54Z</time>
      </trkpt>
      <trkpt lat="46.68418" lon="5.56847">
        <ele>282.28</ele>
        <time>2014-08-02T13:53:59Z</time>
      </trkpt>
      <trkpt lat="46.68447" lon="5.56856">
        <ele>279.88</ele>
        <time>2014-08-02T13:54:07Z</time>
      </trkpt>
      <trkpt lat="46.6845" lon="5.56861">
        <ele>279.88</ele>
        <time>2014-08-02T13:54:10Z</time>
      </trkpt>
      <trkpt lat="46.68458" lon="5.56873">
        <ele>278.44</ele>
        <time>2014-08-02T13:54:15Z</time>
      </trkpt>
      <trkpt lat="46.68458" lon="5.56879">
        <ele>277</ele>
        <time>2014-08-02T13:54:25Z</time>
      </trkpt>
    </trkseg>
  </trk>
</gpx>